[[{"header":{"parameterUnit":"m.s-1","parameterCategory":1,"la1":30.6,"la2":29.2853,"lo1":-89.7004,"lo2":-87.6739,"dy":0.0162,"dx":0.0183,"nx":112,"ny":82,"refTime":"2023-05-04T00:00:00:Z","depth":0,"parameterNumber":2,"parameterNumberName":"U-component_of_WINDS"},"data":[0.0,0.0,0.0,0.0,0.0,0.0,0.0,0.0,0.0,0.0,0.0,0.0,0.0,0.0,0.0,0.0,0.0,0.0,0.0,0.0,0.0,0.0,0.0,0.0,0.0,0.0,0.0,0.0,0.0,0.0,0.0,0.0,0.0,0.0,0.0,0.0,0.0,0.0,0.0,0.0,0.0,0.0,0.0,0.0,0.0,0.0,0.0,0.0,0.0,0.0,0.0,0.0,0.0,0.0,0.0,0.0,0.0,0.0,0.0,0.0,0.0,0.0,0.0,0.0,0.0,0.0,0.0,0.0,0.0,0.0,0.0,0.0,0.0,0.0,0.0,0.0,0.0,0.0,0.0,0.0,0.0,0.0,0.0,0.0,0.0,0.0,0.0,0.0,0.0,0.0,-1.6772,-2.0296,-2.1685,-2.2349,-2.231,-2.2296,-2.1091,-1.8235,0.0,0.0,0.0,0.0,0.0,0.0,0.0,0.0,0.0,0.0,0.0,0.0,0.0,0.0,0.0,0.0,0.0,0.0,0.0,0.0,0.0,0.0,0.0,0.0,0.0,0.0,0.0,0.0,0.0,0.0,0.0,0.0,0.0,0.0,0.0,0.0,0.0,0.0,0.0,0.0,0.0,0.0,0.0,0.0,0.0,0.0,0.0,0.0,0.0,0.0,0.0,0.0,0.0,0.0,0.0,0.0,0.0,0.0,0.0,0.0,0.0,0.0,0.0,0.0,0.0,0.0,0.0,0.0,0.0,0.0,0.0,0.0,0.0,0.0,0.0,0.0,0.0,0.0,0.0,0.0,0.0,0.0,0.0,0.0,0.0,0.0,0.0,0.0,0.0,0.0,0.0,0.0,0.0,0.0,0.0,0.0,0.0,0.0,0.0,0.0,0.0,0.0,0.0,0.0,-1.9322,-2.2044,-2.2522,-2.255,-2.2324,-2.2296,-2.1025,-1.8031,0.0,0.0,0.0,0.0,0.0,0.0,0.0,0.0,0.0,0.0,0.0,0.0,0.0,0.0,0.0,0.0,0.0,0.0,0.0,0.0,0.0,0.0,0.0,0.0,0.0,0.0,0.0,0.0,0.0,0.0,0.0,0.0,0.0,0.0,0.0,0.0,0.0,0.0,0.0,0.0,0.0,0.0,0.0,0.0,0.0,0.0,0.0,0.0,0.0,0.0,0.0,0.0,0.0,0.0,0.0,0.0,0.0,0.0,0.0,0.0,0.0,0.0,0.0,0.0,0.0,0.0,0.0,0.0,0.0,0.0,0.0,0.0,0.0,0.0,0.0,0.0,0.0,0.0,0.0,0.0,0.0,0.0,0.0,0.0,0.0,0.0,0.0,0.0,0.0,0.0,0.0,0.0,0.0,0.0,0.0,0.0,0.0,0.0,0.0,0.0,0.0,0.0,0.0,-1.9165,-2.1609,-2.259,-2.2708,-2.2586,-2.2307,-2.2296,-2.1011,-1.7986,-1.79,0.0,0.0,0.0,0.0,0.0,0.0,0.0,0.0,0.0,0.0,0.0,0.0,0.0,0.0,0.0,0.0,0.0,0.0,0.0,0.0,0.0,0.0,0.0,0.0,0.0,0.0,0.0,0.0,0.0,0.0,0.0,0.0,0.0,0.0,0.0,0.0,0.0,0.0,0.0,0.0,0.0,0.0,0.0,0.0,0.0,0.0,0.0,0.0,0.0,0.0,0.0,0.0,0.0,0.0,0.0,0.0,0.0,0.0,0.0,0.0,0.0,0.0,0.0,0.0,0.0,0.0,0.0,0.0,0.0,0.0,0.0,0.0,0.0,0.0,0.0,0.0,0.0,0.0,0.0,0.0,0.0,0.0,0.0,0.0,0.0,0.0,0.0,0.0,0.0,0.0,0.0,0.0,0.0,0.0,0.0,0.0,0.0,0.0,0.0,0.0,0.0,0.0,-2.0852,-2.2868,-2.2808,-2.2822,-2.2678,-2.2321,-2.2296,-2.1011,-1.7986,-1.78,0.0,0.0,0.0,0.0,0.0,0.0,0.0,0.0,0.0,0.0,0.0,0.0,0.0,0.0,0.0,0.0,0.0,0.0,0.0,0.0,0.0,0.0,0.0,0.0,0.0,0.0,0.0,0.0,0.0,0.0,0.0,0.0,0.0,0.0,0.0,0.0,0.0,0.0,0.0,0.0,0.0,0.0,0.0,0.0,0.0,0.0,0.0,0.0,0.0,0.0,0.0,0.0,0.0,0.0,0.0,0.0,0.0,0.0,0.0,0.0,0.0,0.0,0.0,0.0,0.0,0.0,0.0,0.0,0.0,0.0,0.0,0.0,0.0,0.0,0.0,0.0,0.0,0.0,0.0,0.0,0.0,0.0,0.0,0.0,0.0,0.0,0.0,0.0,0.0,0.0,0.0,0.0,0.0,0.0,0.0,0.0,0.0,0.0,0.0,0.0,0.0,0.0,-2.0761,-2.2224,-2.3064,-2.3165,-2.2933,-2.2349,-2.2296,-2.1011,-1.7986,-1.78,0.0,0.0,0.0,0.0,0.0,0.0,0.0,0.0,0.0,0.0,0.0,0.0,0.0,0.0,0.0,0.0,0.0,0.0,0.0,0.0,0.0,0.0,0.0,0.0,0.0,0.0,0.0,0.0,0.0,0.0,0.0,0.0,0.0,0.0,0.0,0.0,0.0,0.0,0.0,0.0,0.0,0.0,0.0,0.0,0.0,0.0,0.0,0.0,0.0,0.0,0.0,0.0,0.0,0.0,0.0,0.0,0.0,0.0,0.0,0.0,0.0,0.0,0.0,0.0,0.0,0.0,0.0,0.0,0.0,0.0,0.0,0.0,0.0,0.0,0.0,0.0,0.0,0.0,0.0,0.0,0.0,0.0,0.0,0.0,0.0,0.0,0.0,0.0,0.0,0.0,0.0,0.0,0.0,0.0,0.0,0.0,0.0,0.0,0.0,0.0,0.0,0.0,-2.1746,-2.3341,-2.3512,-2.3317,-2.3021,-2.259,-2.2402,-2.1011,-1.7986,0.0,0.0,0.0,0.0,0.0,0.0,0.0,0.0,0.0,0.0,0.0,0.0,0.0,0.0,0.0,0.0,0.0,0.0,0.0,0.0,0.0,0.0,0.0,0.0,0.0,0.0,0.0,0.0,0.0,0.0,0.0,0.0,0.0,0.0,0.0,0.0,0.0,0.0,0.0,0.0,0.0,0.0,0.0,0.0,0.0,0.0,0.0,0.0,0.0,0.0,0.0,0.0,0.0,0.0,0.0,0.0,0.0,0.0,0.0,0.0,0.0,0.0,0.0,0.0,0.0,0.0,0.0,0.0,0.0,0.0,0.0,0.0,0.0,0.0,0.0,0.0,0.0,0.0,0.0,0.0,0.0,0.0,0.0,0.0,0.0,0.0,0.0,0.0,0.0,0.0,0.0,0.0,0.0,0.0,0.0,0.0,0.0,0.0,0.0,0.0,0.0,0.0,-1.9638,-2.2315,-2.4074,-2.3742,-2.35,-2.3177,-2.2746,-2.2523,-2.1118,-1.8098,0.0,0.0,0.0,0.0,0.0,0.0,0.0,0.0,0.0,0.0,0.0,0.0,0.0,0.0,0.0,0.0,0.0,0.0,0.0,0.0,0.0,0.0,0.0,0.0,0.0,0.0,0.0,0.0,0.0,0.0,0.0,0.0,0.0,0.0,0.0,0.0,0.0,0.0,0.0,0.0,0.0,0.0,0.0,0.0,0.0,0.0,0.0,0.0,0.0,0.0,0.0,0.0,0.0,0.0,0.0,0.0,0.0,0.0,0.0,0.0,0.0,0.0,0.0,0.0,0.0,0.0,0.0,0.0,0.0,0.0,0.0,0.0,0.0,0.0,0.0,0.0,0.0,0.0,0.0,0.0,0.0,0.0,0.0,0.0,0.0,0.0,0.0,0.0,0.0,0.0,0.0,0.0,0.0,0.0,0.0,0.0,0.0,0.0,0.0,0.0,0.0,0.0,-1.9523,-2.2248,-2.4074,-2.3735,-2.3703,-2.3426,-2.2772,-2.2708,-2.1389,0.0,0.0,0.0,0.0,0.0,0.0,0.0,0.0,0.0,0.0,0.0,0.0,0.0,0.0,0.0,0.0,0.0,0.0,0.0,0.0,0.0,0.0,0.0,0.0,0.0,0.0,0.0,0.0,0.0,0.0,0.0,0.0,0.0,0.0,0.0,0.0,0.0,0.0,0.0,0.0,0.0,0.0,0.0,0.0,0.0,0.0,0.0,0.0,0.0,0.0,0.0,0.0,0.0,0.0,0.0,0.0,0.0,0.0,0.0,0.0,0.0,0.0,0.0,0.0,0.0,0.0,0.0,0.0,0.0,0.0,0.0,0.0,0.0,0.0,0.0,0.0,0.0,0.0,0.0,0.0,0.0,0.0,0.0,0.0,0.0,0.0,0.0,0.0,0.0,0.0,0.0,0.0,0.0,0.0,0.0,0.0,0.0,0.0,0.0,0.0,0.0,0.0,0.0,-1.9644,-2.2315,-2.4161,-2.4064,-2.3837,-2.361,-2.3414,-2.3189,-2.1743,-1.8643,0.0,0.0,0.0,0.0,0.0,0.0,0.0,0.0,0.0,0.0,0.0,0.0,0.0,0.0,0.0,0.0,0.0,0.0,0.0,0.0,0.0,0.0,0.0,0.0,0.0,0.0,0.0,0.0,0.0,0.0,0.0,0.0,0.0,0.0,0.0,0.0,0.0,0.0,0.0,0.0,0.0,0.0,0.0,0.0,0.0,0.0,0.0,0.0,0.0,0.0,0.0,0.0,0.0,0.0,0.0,0.0,0.0,0.0,0.0,0.0,0.0,0.0,0.0,0.0,0.0,0.0,0.0,0.0,0.0,0.0,0.0,0.0,0.0,0.0,0.0,0.0,0.0,0.0,0.0,0.0,0.0,0.0,0.0,0.0,0.0,0.0,0.0,0.0,0.0,0.0,0.0,0.0,0.0,0.0,0.0,0.0,0.0,0.0,0.0,0.0,0.0,0.0,-1.9701,-2.2321,-2.419,-2.419,-2.4016,-2.3855,-2.3703,-2.3522,-2.2321,-1.9831,0.0,0.0,0.0,0.0,0.0,0.0,0.0,0.0,0.0,0.0,0.0,0.0,0.0,0.0,0.0,0.0,0.0,0.0,0.0,0.0,0.0,0.0,0.0,0.0,0.0,0.0,0.0,0.0,0.0,0.0,0.0,0.0,0.0,0.0,0.0,0.0,0.0,0.0,0.0,0.0,0.0,0.0,0.0,0.0,0.0,0.0,0.0,0.0,0.0,0.0,0.0,0.0,0.0,0.0,0.0,0.0,0.0,0.0,0.0,0.0,0.0,0.0,0.0,0.0,0.0,0.0,0.0,0.0,0.0,0.0,0.0,0.0,0.0,0.0,0.0,0.0,0.0,0.0,0.0,0.0,0.0,0.0,0.0,0.0,0.0,0.0,0.0,0.0,0.0,0.0,0.0,0.0,0.0,0.0,0.0,0.0,0.0,0.0,0.0,0.0,0.0,0.0,-1.9701,-2.2321,-2.419,-2.419,-2.419,-2.4084,-2.3774,-2.3753,-2.3056,-2.1447,0.0,0.0,0.0,0.0,0.0,0.0,0.0,0.0,0.0,0.0,0.0,0.0,0.0,0.0,0.0,0.0,0.0,0.0,0.0,0.0,0.0,0.0,0.0,0.0,0.0,0.0,0.0,0.0,0.0,0.0,0.0,0.0,0.0,0.0,0.0,0.0,0.0,0.0,0.0,0.0,0.0,0.0,0.0,0.0,0.0,0.0,0.0,0.0,0.0,0.0,0.0,0.0,0.0,0.0,0.0,0.0,0.0,0.0,0.0,0.0,-2.0312,-1.834,0.0,0.0,0.0,0.0,0.0,0.0,0.0,0.0,0.0,0.0,0.0,0.0,0.0,0.0,0.0,0.0,0.0,0.0,0.0,0.0,0.0,0.0,0.0,0.0,0.0,0.0,0.0,0.0,0.0,0.0,0.0,0.0,0.0,0.0,0.0,0.0,0.0,0.0,0.0,0.0,-1.9701,-2.2321,-2.419,-2.419,-2.419,-2.417,-2.4094,-2.4094,-2.3417,-2.1789,-2.1359,0.0,0.0,0.0,0.0,0.0,0.0,0.0,0.0,0.0,0.0,0.0,0.0,0.0,0.0,0.0,0.0,0.0,0.0,0.0,0.0,0.0,0.0,0.0,0.0,0.0,0.0,0.0,0.0,0.0,0.0,0.0,0.0,0.0,0.0,0.0,0.0,0.0,0.0,0.0,0.0,0.0,0.0,0.0,0.0,0.0,0.0,0.0,0.0,0.0,0.0,0.0,0.0,0.0,0.0,0.0,0.0,0.0,0.0,0.0,-2.0859,-2.0098,0.0,0.0,0.0,0.0,0.0,0.0,0.0,0.0,0.0,0.0,0.0,0.0,0.0,0.0,0.0,0.0,0.0,0.0,0.0,0.0,0.0,0.0,0.0,0.0,0.0,0.0,0.0,0.0,0.0,0.0,0.0,0.0,0.0,0.0,0.0,0.0,0.0,0.0,0.0,0.0,-1.9271,-2.2219,-2.4339,-2.4339,-2.4266,-2.419,-2.419,-2.419,-2.3841,-2.3006,-2.2235,0.0,0.0,0.0,0.0,0.0,0.0,0.0,0.0,0.0,0.0,0.0,0.0,0.0,0.0,0.0,0.0,0.0,0.0,0.0,0.0,0.0,0.0,0.0,0.0,0.0,0.0,0.0,0.0,0.0,0.0,0.0,0.0,0.0,0.0,0.0,0.0,0.0,0.0,0.0,0.0,0.0,0.0,0.0,0.0,0.0,0.0,0.0,0.0,0.0,0.0,0.0,0.0,0.0,-2.1797,-2.1933,-2.1913,-2.1878,-2.1877,-2.1928,-2.2183,-2.2596,-2.2949,-2.0839,0.0,0.0,0.0,0.0,0.0,0.0,0.0,0.0,0.0,0.0,0.0,0.0,0.0,0.0,0.0,0.0,0.0,0.0,0.0,0.0,0.0,0.0,-1.9596,-2.1035,-2.1173,-2.1038,-2.1339,0.0,0.0,0.0,0.0,0.0,0.0,0.0,0.0,0.0,0.0,0.0,-1.8817,-2.2132,-2.4543,-2.4543,-2.4375,-2.4256,-2.4256,-2.4218,-2.419,-2.419,-2.2951,-2.1972,0.0,0.0,0.0,0.0,0.0,0.0,0.0,0.0,0.0,0.0,0.0,0.0,0.0,0.0,0.0,0.0,0.0,0.0,0.0,0.0,0.0,0.0,0.0,0.0,0.0,0.0,0.0,0.0,0.0,0.0,0.0,0.0,-1.8343,-1.9877,0.0,0.0,0.0,0.0,0.0,0.0,0.0,0.0,0.0,0.0,0.0,0.0,0.0,-2.0625,-2.1387,-2.3066,-2.4277,-2.5059,-2.6562,-2.7243,-2.7203,-2.7199,-2.7156,-2.6989,-2.4832,0.0,-2.3066,-2.2743,0.0,0.0,0.0,0.0,0.0,0.0,0.0,0.0,0.0,0.0,0.0,0.0,0.0,0.0,0.0,0.0,0.0,0.0,0.0,0.0,0.0,0.0,-2.4574,-2.487,-2.3821,-2.3164,-2.4686,-2.1275,-1.8331,-1.9854,-1.8914,-1.7817,0.0,0.0,0.0,0.0,0.0,0.0,-1.8817,-2.225,-2.476,-2.476,-2.4575,-2.4452,-2.4452,-2.4303,-2.419,-2.419,-2.3988,-2.3244,-2.1787,-2.2803,0.0,0.0,0.0,0.0,0.0,0.0,0.0,0.0,0.0,0.0,0.0,0.0,0.0,0.0,0.0,0.0,0.0,0.0,0.0,0.0,0.0,0.0,0.0,0.0,0.0,0.0,0.0,0.0,0.0,-1.751,-1.9339,-1.9685,-1.9721,-1.9067,0.0,0.0,0.0,0.0,0.0,0.0,0.0,0.0,0.0,-2.1309,-2.2715,-2.3652,-2.4023,-2.5699,-2.6728,-2.7119,-2.8309,-2.8848,-2.8822,-2.9291,-2.9233,-2.8706,-2.7489,-2.656,-2.5797,-2.436,-2.4025,-2.4195,0.0,0.0,0.0,0.0,-1.8765,-1.9394,-1.8906,-2.0195,-2.1973,-2.1484,0.0,0.0,0.0,0.0,0.0,0.0,0.0,-2.0776,-2.1714,-2.3055,-2.4418,-2.5424,-2.5093,-2.4762,-2.5547,-2.3162,-2.1084,-2.1817,-2.0544,-1.9058,-1.806,-1.8706,0.0,0.0,0.0,-2.1402,-2.0449,-2.305,-2.4941,-2.493,-2.4771,-2.4615,-2.4512,-2.4428,-2.433,-2.4199,-2.419,-2.3802,-2.2898,-2.3583,-2.2855,0.0,0.0,0.0,0.0,0.0,0.0,0.0,0.0,0.0,0.0,0.0,0.0,0.0,0.0,0.0,0.0,0.0,0.0,0.0,0.0,0.0,0.0,0.0,0.0,0.0,0.0,0.0,0.0,-1.7979,-1.9964,-1.9848,-2.0404,-2.0159,0.0,0.0,0.0,0.0,0.0,0.0,-2.1543,-2.2402,-2.3086,-2.3516,-2.5371,-2.6562,-2.6989,-2.8223,-2.9044,-2.9498,-3.0047,-3.0273,-3.0268,-3.0875,-3.0808,-3.0222,-3.0127,-2.9786,-2.9117,-2.6378,-2.5579,-2.5963,-2.5024,-2.3837,-2.2513,-2.15,-2.1444,-2.1794,-2.115,-2.2499,-2.4394,-2.375,-2.3672,-2.3672,-2.2734,0.0,0.0,0.0,0.0,-2.1855,-2.3105,-2.3926,-2.4766,-2.6055,-2.6367,-2.6367,-2.6367,-2.4863,-2.3554,-2.3726,-2.2357,-2.0755,-1.9446,-2.0305,0.0,-1.7749,-2.0649,-2.2749,-2.1753,-2.3701,-2.5159,-2.5116,-2.4949,-2.4799,-2.4643,-2.4599,-2.452,-2.4357,-2.4312,-2.4154,-2.3921,-2.4008,-2.3431,-2.2066,0.0,0.0,0.0,0.0,0.0,0.0,0.0,0.0,0.0,0.0,0.0,0.0,0.0,0.0,0.0,0.0,0.0,0.0,0.0,0.0,0.0,0.0,0.0,0.0,0.0,0.0,0.0,0.0,0.0,-2.1388,-2.3817,0.0,0.0,0.0,0.0,-2.0527,-2.1289,-2.2539,-2.4121,-2.5039,-2.6269,-2.793,-2.8105,-2.8902,-3.0432,-3.0526,-3.1378,-3.2947,-3.2983,-3.2932,-3.2827,-3.2861,-3.2819,-3.2717,-3.2705,-3.2686,-3.2402,-2.9148,-2.7838,-2.7698,-2.6017,-2.5282,-2.5023,-2.3373,-2.3864,-2.534,-2.5301,-2.6495,-2.8047,-2.7988,-2.6894,-2.4961,-2.1719,-2.123,0.0,0.0,-2.2344,-2.4238,-2.4316,-2.6172,-2.8066,-2.8144,-2.8164,-2.8164,-2.8164,-2.6152,-2.457,-2.541,-2.416,-2.2949,-2.2851,0.0,-2.2109,-1.9547,-2.1411,-2.2759,-2.1817,-2.3858,-2.5383,-2.5379,-2.5152,-2.4992,-2.4986,-2.485,-2.4782,-2.4775,-2.4583,-2.4478,-2.4469,-2.3991,-2.384,-2.406,-2.1461,0.0,0.0,0.0,0.0,0.0,0.0,0.0,0.0,0.0,0.0,0.0,0.0,0.0,0.0,0.0,0.0,0.0,0.0,0.0,0.0,0.0,0.0,0.0,0.0,0.0,0.0,0.0,0.0,-2.2266,-2.3413,0.0,-2.3984,-2.3945,-2.3691,-2.3086,-2.4883,-2.6523,-2.7676,-2.8574,-2.959,-3.0762,-3.1262,-3.1793,-3.2363,-3.2237,-3.2474,-3.3076,-3.3606,-3.3812,-3.3799,-3.4352,-3.4289,-3.3744,-3.3744,-3.341,-3.282,-3.163,-3.1152,-3.0995,-2.9373,-2.8718,-2.8483,-2.6893,-2.6722,-2.7277,-2.7316,-2.7753,-2.8301,-2.8301,-2.7871,-2.7148,-2.5918,-2.5762,-2.5957,-2.5644,-2.6211,-2.6914,-2.6914,-2.7598,-2.8301,-2.8301,-2.8301,-2.8301,-2.8301,-2.7578,-2.6992,-2.7305,-2.5059,-2.3105,-2.3164,-2.4512,-2.4922,-2.289,-2.4783,-2.6302,-2.593,-2.6649,-2.7169,-2.7074,-2.6492,-2.6029,-2.5843,-2.5279,-2.4891,-2.4811,-2.4731,-2.4631,-2.4512,-2.432,-2.421,-2.419,-2.3243,-2.1179,0.0,0.0,0.0,0.0,0.0,0.0,0.0,0.0,0.0,0.0,0.0,0.0,0.0,0.0,0.0,0.0,0.0,0.0,0.0,0.0,0.0,0.0,0.0,0.0,0.0,-1.7849,-2.1163,-2.32,-2.4271,-2.5209,-2.6074,-2.6152,-2.6406,-2.6992,-2.8633,-2.998,-3.084,-3.1426,-3.2012,-3.2598,-3.3069,-3.3431,-3.3704,-3.3522,-3.3571,-3.3857,-3.4379,-3.4641,-3.4661,-3.5231,-3.4718,-3.3391,-3.4276,-3.3814,-3.2564,-3.343,-3.3776,-3.3622,-3.2,-3.1356,-3.1187,-3.0152,-2.9824,-2.9895,-2.9997,-3.0019,-3.0019,-3.0019,-2.9844,-2.9551,-2.9277,-2.8965,-2.8672,-2.8379,-2.8516,-2.873,-2.873,-2.8965,-2.918,-2.918,-2.918,-2.918,-2.918,-2.8242,-2.7676,-2.8574,-2.6641,-2.459,-2.375,-2.5,-2.5449,-2.3418,-2.459,-2.5683,-2.5636,-2.637,-2.6851,-2.6765,-2.6711,-2.6625,-2.6449,-2.4826,-2.415,-2.493,-2.4093,-2.3912,-2.4652,-2.3794,-2.3241,-2.3057,-2.2196,-2.0455,-1.7848,0.0,0.0,0.0,0.0,0.0,0.0,0.0,0.0,0.0,0.0,0.0,0.0,0.0,0.0,0.0,0.0,0.0,0.0,0.0,0.0,0.0,0.0,0.0,-1.5442,-1.9832,-2.3398,-2.4386,-2.6806,-2.873,-2.9629,-2.9726,-3.043,-3.2109,-3.2246,-3.2598,-3.3398,-3.334,-3.3281,-3.332,-3.3244,-3.3585,-3.4374,-3.4356,-3.4739,-3.55,-3.55,-3.55,-3.55,-3.55,-3.4154,-3.1968,-3.4423,-3.4096,-3.2006,-3.4481,-3.55,-3.5327,-3.3603,-3.2949,-3.2929,-3.2917,-3.303,-3.3218,-3.3254,-3.332,-3.3398,-3.3398,-3.2871,-3.207,-3.123,-3.0391,-2.9531,-2.8691,-2.9062,-2.9707,-2.9687,-3.0312,-3.0937,-3.0918,-3.0898,-3.0898,-3.0898,-2.8242,-2.6602,-2.9141,-2.8965,-2.7559,-2.4961,-2.4531,-2.3711,-2.125,-2.0898,0.0,-2.0918,-2.3019,-2.4508,-2.4507,-2.5809,-2.6698,-2.6749,-2.3555,-2.262,-2.5135,-2.2793,-2.2421,-2.489,-2.2495,-2.1051,-2.0917,-1.8338,-1.8036,-2.011,0.0,0.0,0.0,0.0,0.0,0.0,0.0,0.0,0.0,0.0,0.0,0.0,0.0,0.0,0.0,0.0,0.0,0.0,0.0,0.0,0.0,-1.8766,-2.1431,-2.0792,-2.2572,-2.5184,-2.8542,-2.9673,-3.0762,-3.2207,-3.2363,-3.2559,-3.3027,-3.3066,-3.3437,-3.4297,-3.1992,-3.0937,-3.1562,-3.1436,-3.1456,-3.1667,-3.4,-3.5271,-3.55,-3.55,-3.55,-3.55,-3.55,-3.5115,-3.4481,-3.5192,-3.5096,-3.45,-3.5212,-3.55,-3.5385,-3.4276,-3.384,-3.3776,-3.3183,-3.3067,-3.2947,-3.1187,-3.1785,-3.3344,-3.3378,-3.3242,-3.3027,-3.2793,-3.2559,-3.2305,-3.207,-3.2168,-3.2226,-3.1641,-3.166,-3.168,-3.1055,-3.0898,-3.0898,-3.0898,-3.0156,-2.9687,-3.0391,-3.0351,-2.9551,-2.7578,-2.7754,-2.793,-2.7226,-2.7656,-2.8066,-2.8066,-2.8652,-2.9057,-2.8941,-2.7126,-2.6374,-2.7543,-2.4494,-2.3306,-2.5173,-2.4601,-2.4418,-2.4972,-2.4206,-2.3604,-2.327,-2.0782,-1.9792,0.0,0.0,0.0,0.0,0.0,0.0,0.0,0.0,0.0,0.0,0.0,0.0,0.0,0.0,0.0,0.0,0.0,0.0,0.0,0.0,0.0,0.0,-2.1667,-2.5337,-2.5909,-2.6553,-2.8172,-3.1376,-3.1876,-3.2461,-3.3809,-3.3945,-3.4101,-3.4453,-3.4492,-3.4707,-3.5215,-3.3359,-3.1836,-3.0897,-3.208,-3.2048,-3.0575,-3.3842,-3.55,-3.55,-3.55,-3.5673,-3.6,-3.6,-3.5615,-3.5007,-3.6084,-3.5949,-3.5045,-3.6122,-3.6538,-3.6423,0.0,0.0,0.0,0.0,-3.4133,-3.4016,-3.2647,-3.3155,-3.4404,-3.4471,-3.4238,-3.3945,-3.3945,-3.2949,-3.1816,-3.1816,-3.1016,-3.0312,-3.0957,-3.1113,-3.1172,-3.1387,-3.1445,-3.1348,-3.0976,-3.0039,-2.959,-3.0684,-3.0019,0.0,-2.9375,-2.8906,-2.8144,-2.7031,-2.7305,-2.7637,-2.7676,-2.8613,-2.9238,-2.9152,-2.7992,-2.7452,-2.7993,-2.4888,0.0,0.0,0.0,-2.3616,-2.3429,-2.3303,0.0,0.0,0.0,-1.9494,-2.0511,-1.8982,0.0,0.0,-1.7485,-1.6189,0.0,0.0,0.0,0.0,0.0,0.0,0.0,0.0,0.0,0.0,0.0,0.0,0.0,0.0,0.0,0.0,-2.4471,-2.814,-3.05,-3.1002,-3.1688,-3.3177,-3.3456,-3.3887,-3.4766,-3.4844,-3.5176,-3.5937,-3.5996,-3.5996,-3.5996,-3.5625,0.0,0.0,0.0,-3.3646,-3.0536,-3.3824,-3.5558,-3.5635,-3.5635,-3.6058,-3.6846,-3.6846,-3.6045,-3.4744,-3.7026,-3.6719,-3.4802,-3.7065,-3.8007,-3.7834,-3.625,-3.5577,-3.5463,-3.5245,-3.5333,-3.5587,-3.5482,0.0,0.0,-3.5974,-3.5469,-3.4843,-3.4844,-3.2734,-3.0312,-3.0312,-2.8652,-2.7363,-2.9609,-3.0176,-3.0547,-3.1992,-3.2344,-3.2129,-3.1348,-2.9297,-2.8262,-3.0605,-2.9082,-2.8184,-3.0508,-2.8984,-2.6641,-2.4336,-2.3984,-2.4004,-2.4062,-2.6035,-2.7441,-2.7441,-2.8509,0.0,-2.8308,-2.506,-2.3737,-2.5361,-2.324,-2.1847,-2.163,-2.1552,-2.0358,-1.7893,-1.7767,-1.8779,-2.0914,-2.068,-2.1478,-2.3159,-1.8974,-1.7652,0.0,0.0,0.0,0.0,0.0,0.0,0.0,0.0,0.0,0.0,0.0,0.0,0.0,0.0,0.0,-2.523,-2.8904,-3.2102,-3.3295,-3.3634,-3.3884,-3.4215,-3.4374,-3.4785,-3.5664,-3.5742,-3.582,-3.5996,-3.5996,-3.5996,-3.5996,-3.3379,-3.1582,-3.0898,-3.1339,-3.1268,-3.059,-3.3848,-3.5827,-3.6462,-3.6462,0.0,-3.7757,-3.7757,-3.7565,-3.7296,-3.7796,-3.7719,-3.7296,-3.7796,-3.8007,-3.7892,-3.6865,-3.6077,-3.5257,-3.3217,-3.3749,-3.5257,-3.3345,-3.3978,-3.5694,-3.5926,-3.5854,-3.5685,-3.5722,-3.5293,0.0,-3.4766,-3.4394,-3.3965,-3.3769,-3.3711,-3.3613,-3.3242,-3.3164,-3.3125,-3.2949,-3.2012,-3.1348,-3.1855,-3.0976,-3.0312,-3.0801,-3.0488,-2.9961,-2.9473,-2.9394,-2.9394,-2.9414,-2.9844,-3.0156,-3.0156,-2.8554,-2.7964,-2.9134,-2.5983,-2.466,-2.6324,-2.5258,-2.446,-2.428,-2.415,-2.3756,-2.3053,-2.2873,-2.3015,-2.3474,-2.3427,-2.3462,-2.357,-2.213,-2.1498,0.0,0.0,0.0,0.0,0.0,0.0,0.0,0.0,0.0,0.0,0.0,-2.0149,0.0,0.0,-2.5346,-2.7505,-2.9621,-3.1762,-3.3898,-3.472,-3.5107,-3.5107,-3.5252,-3.5527,-3.5957,-3.5996,-3.5996,-3.5996,-3.5996,-3.5996,-3.5996,-3.4375,-3.2635,-3.086,-3.2333,-3.2295,-3.0525,-3.4218,-3.6308,-3.6712,-3.7142,-3.7815,-3.8642,-3.8642,-3.8873,-3.9238,-3.9238,-3.9238,-3.9238,-3.9238,-3.9008,-3.8604,-3.8161,-3.7488,-3.6603,-3.5315,-3.5661,-3.658,-3.5408,-3.5548,-3.628,-3.6481,-3.6268,-3.591,-3.5975,-3.5117,-3.4101,-3.4101,-3.3164,-3.2344,-3.3223,-3.3457,-3.3555,-3.3945,-3.4043,-3.3926,-3.3496,-3.3086,-3.2793,-3.2793,-3.2441,-3.2148,-3.2148,-3.1816,-3.1406,-3.0976,-3.0898,-3.0898,-3.0898,-3.0898,-3.0898,-3.0898,-2.9726,-2.91,-2.9474,-2.741,-2.6268,-2.6633,-2.6217,-2.5655,-2.5036,-2.4864,-2.4708,-2.4503,-2.4303,-2.419,-2.419,-2.419,-2.4026,-2.371,-2.356,-2.3141,0.0,0.0,0.0,0.0,0.0,0.0,0.0,0.0,-2.0944,-2.0933,-2.2048,-2.336,-2.4476,-2.486,-2.6125,-2.955,-3.0223,-3.132,-3.4064,-3.5161,-3.5707,-3.5707,-3.5876,-3.5996,-3.5996,-3.5996,-3.5996,-3.5996,-3.5996,-3.5996,-3.5996,-3.6152,-3.4937,-3.2062,-3.4739,-3.4843,-3.1956,-3.529,-3.7061,-3.7219,-3.7911,-3.87,-3.9534,-3.9534,-3.99,-4.0496,-4.0496,-4.0496,-4.0496,-4.0496,-4.0112,-3.9534,-3.9534,-3.9104,-3.845,-3.8123,-3.8007,-3.8017,-3.8084,-3.7674,-3.714,-3.7294,-3.6907,-3.6384,-3.6458,-3.4921,-3.3183,-3.3163,-3.1523,-3.0273,-3.2383,-3.2949,-3.3281,-3.4629,-3.4941,-3.4766,-3.4062,-3.3769,-3.3652,-3.3652,-3.3516,-3.3398,-3.3398,-3.2851,-3.2148,-3.1289,-3.1016,-3.0898,-3.0898,-3.0898,-3.0898,-3.0898,-3.0898,-3.0506,-2.9562,-2.8749,-2.7872,-2.69,-2.6851,-2.6381,-2.5344,-2.5164,-2.4918,-2.4569,-2.4357,-2.432,-2.4428,-2.4428,-2.4356,-2.4266,-2.454,-2.4025,-1.3498,-1.1637,-1.1523,-1.3961,-1.678,-1.9,0.0,0.0,-2.6576,-2.5597,-2.7785,-3.027,-3.154,-3.241,-3.309,-3.3551,-3.4276,-3.4923,-3.5308,-3.5544,-3.5707,-3.5707,-3.5876,-3.5996,-3.5996,-3.5996,-3.5996,-3.5996,-3.5996,-3.5996,-3.5996,-3.6738,-3.6972,-3.6562,-3.7558,-3.7878,-3.7413,-3.7831,-3.835,-3.9015,-3.9111,-3.9573,-4.0362,-4.0362,-4.0419,-4.0496,-4.0496,-4.0496,-4.0496,-4.0496,-4.0458,-4.0362,-4.0362,-4.0304,-4.0035,-3.8546,-3.8007,-3.8017,-3.8084,-3.799,-3.7913,-3.8176,-3.8149,-3.8033,-3.8116,-3.7471,-3.6698,-3.6599,-3.5869,-3.5215,-3.5508,-3.5566,-3.5625,-3.5801,-3.5859,-3.582,-3.5723,-3.5098,-3.4551,-3.4551,-3.3926,-3.3398,-3.3398,-3.332,-3.2988,-3.2187,-3.1406,-3.0898,-3.0898,-3.0898,-3.0898,-3.0898,-3.0898,-3.0501,-2.9506,-2.9308,-2.8817,-2.7815,-2.7755,-2.7346,-2.6465,-2.6248,-2.5702,-2.4775,-2.4559,-2.4727,-2.5264,-2.5264,-2.5611,-2.6266,-2.6027,-2.512,-1.5476,-1.6168,-1.755,0.0,-2.2054,-2.4882,-2.4922,-2.7512,-2.9854,-2.967,-3.1117,-3.2641,-3.3504,-3.2737,-3.2641,0.0,-3.3596,-3.3231,-3.5212,-3.5621,-3.5707,-3.5707,-3.4117,-3.3027,-3.3027,-3.4824,-3.5176,-3.3184,-3.4883,-3.6211,-3.6738,-3.7109,-3.7475,-3.786,-3.8185,-3.828,-3.8133,-3.8608,-3.8998,-3.9304,-3.9765,-4.0169,-4.0496,-4.0496,-4.0496,-4.0496,-4.0496,-4.0496,-4.0496,-4.0496,-4.0496,-4.0504,-4.0595,-4.0574,-4.0419,-3.9708,-3.9504,-3.9586,-3.959,-3.9268,-3.8856,-3.9042,-3.8747,-3.8312,-3.838,-3.825,-3.7949,-3.7378,-3.699,-3.6641,-3.6133,-3.5996,-3.5996,-3.5996,-3.5996,-3.5996,-3.5996,-3.5703,-3.5469,-3.5469,-3.5156,-3.4902,-3.4902,-3.4492,-3.4043,-3.3711,-3.2519,-3.1465,-3.0976,-3.0898,-3.0898,-3.0898,-3.0898,-3.0675,-3.0133,-3.0103,-2.9659,-2.8662,-2.8607,-2.8222,-2.739,-2.7158,-2.6854,-2.6438,-2.6239,-2.6182,-2.6265,-2.6265,-2.6399,-2.6602,-2.6697,-2.641,-1.6983,-1.9162,0.0,-2.2893,-2.5994,-2.884,-2.95,-3.0796,-3.1962,-3.2447,-3.3242,-3.4011,-3.4471,-3.3045,-3.2615,-3.5096,-3.3423,-3.2673,-3.5181,-3.5819,-3.5636,-3.4464,-3.2501,-3.043,-2.8262,-3.2012,-3.3965,-3.2422,-3.4824,-3.6621,-3.7266,-3.7754,-3.8212,-3.866,-3.8954,-3.8984,-3.8747,-3.9393,-3.9693,-3.965,-4.0227,-4.0496,-4.0496,-4.053,-4.053,-4.0496,-4.053,-4.0552,-4.0552,-4.0552,-4.0568,-4.0584,-4.0682,-4.0678,-4.0571,-4.0571,-4.0642,-4.0697,-4.0697,-4.0306,-3.9806,-3.9949,-3.9552,-3.9045,-3.9109,-3.9032,-3.8828,-3.8142,-3.7636,-3.7148,-3.6523,-3.6172,-3.5996,-3.5996,-3.5996,-3.5996,-3.5996,-3.5996,-3.5996,-3.5996,-3.5996,-3.5996,-3.5996,-3.5488,-3.498,-3.4746,-3.3672,-3.248,-3.1406,-3.1055,-3.0898,-3.0898,-3.0898,-3.0811,-3.0617,-3.0603,-3.0277,-2.9509,-2.9467,-2.9083,-2.828,-2.8088,-2.7873,-2.7618,-2.7457,-2.7379,-2.7342,-2.727,-2.7277,-2.738,-2.7595,-2.7695,-1.7144,0.0,-1.8959,-2.3581,-2.6299,-2.8448,-3.0791,-3.2174,-3.303,-3.3316,-3.4271,-3.5125,-3.5407,-3.5404,-3.5385,-3.5481,-3.5404,-3.5406,-3.5565,-3.6386,-3.544,-3.1338,-3.1634,-2.9199,0.0,-2.7051,-3.2383,-3.5605,-3.6719,-3.7266,-3.7305,-3.8906,-3.9762,-3.9665,-4.0599,-4.0955,-4.062,-4.0713,-4.0668,-4.0458,-4.0496,-4.0496,-4.0504,-4.0623,-4.0623,-4.0504,-4.0643,-4.0692,-4.0692,-4.0692,-4.0736,-4.0789,-4.0793,-4.0793,-4.0789,-4.0789,-4.0757,-4.0697,-4.0697,-4.0732,-4.0774,-4.0916,-4.0935,-4.0916,-4.0916,-4.0418,-3.9823,-3.9662,-3.8505,-3.7285,-3.7266,-3.6621,-3.5996,-3.5996,-3.5996,-3.5996,-3.5996,-3.5996,-3.5996,-3.5996,-3.5996,-3.5996,-3.5996,-3.5976,-3.5664,-3.4824,-3.4668,-3.4023,-3.2363,-3.1426,-3.0898,-3.0898,-3.0898,-3.0811,-3.0617,-3.0603,-3.0525,-3.0364,-3.0365,-2.9962,-2.9107,-2.9063,-2.8597,-2.7618,-2.7593,-2.7878,-2.8455,-2.8194,-2.8481,-2.9307,-2.9056,-2.8957,-1.7125,0.0,-2.3504,-2.5593,-2.8577,-3.1201,-3.2008,-3.3025,-3.3881,-3.4201,-3.2907,-3.1798,-3.2065,-3.0269,-2.9481,-3.175,-3.0212,-3.0331,-3.4892,-3.2464,-3.1382,-3.4511,-3.1252,0.0,0.0,0.0,0.0,-3.0078,-3.4531,-3.7793,-3.8965,-3.957,-4.0068,-4.0422,-4.0838,-4.0912,-4.0581,-4.0718,-4.0698,-4.0496,-4.0496,-4.0545,-4.0636,-4.0674,-4.0687,-4.0649,-4.0722,-4.0732,-4.0703,-4.0742,-4.0784,-4.0805,-4.0905,-4.0874,-4.0809,-4.0908,-4.0928,-4.0906,-4.0906,-4.0905,-4.095,-4.099,-4.0996,-4.0996,-4.0996,-4.0888,-4.0625,-4.0017,-3.9432,-3.8769,-3.7598,-3.707,-3.6719,-3.6133,-3.5996,-3.5996,-3.5996,-3.5996,-3.5996,-3.5996,-3.5996,-3.5996,-3.5996,-3.5996,-3.5703,-3.4824,-3.375,-3.2832,-3.2266,-3.1445,-3.0898,-3.0898,-3.0898,-3.0811,-3.0617,-3.0603,-3.0545,-3.0402,-3.0404,-3.0269,-2.9962,-2.9967,-2.9809,-2.9454,-2.9454,-2.9461,-2.9479,-2.928,-2.9242,-2.9392,-2.9123,-2.9005,-1.9244,-2.2947,-2.685,-2.813,-3.0758,-3.3036,-3.3036,-3.3642,-3.43,-3.4632,-3.2917,-3.1168,-3.0522,-2.8346,-2.7481,-3.0,-2.8558,-2.9099,-3.4738,-3.2876,-3.1971,-3.4868,-3.1975,-3.0898,0.0,0.0,0.0,-2.9004,-3.3516,-3.6855,-3.7988,-3.834,-3.9228,-4.0815,-4.0996,-4.0916,-4.0561,-4.0766,-4.0766,-4.0581,-4.0581,-4.0616,-4.0703,-4.0767,-4.0116,-3.8995,-4.0299,-4.0151,-3.9086,-4.0356,-4.0908,-4.0955,-4.1048,-4.1023,-4.0955,-4.1049,-4.1077,-4.1056,-4.1021,-4.1026,-4.1077,-4.1077,-4.1077,-4.1077,-4.1077,-4.1128,-4.1074,-4.0527,-4.0137,-3.9648,-3.8516,-3.7773,-3.7168,-3.6601,-3.623,-3.5996,-3.5996,-3.5996,-3.5996,-3.5996,-3.5996,-3.5996,-3.5996,-3.5996,-3.5801,-3.5254,-3.3984,-3.2871,-3.2285,-3.1445,-3.0898,-3.0898,-3.0898,-3.0811,-3.0617,-3.0603,-3.0545,-3.0402,-3.0404,-3.0404,-3.0404,-3.0404,-3.0404,-3.0404,-3.0404,-3.0311,-3.0143,-2.9829,-2.9625,-2.9494,-2.916,-2.9005,-2.3095,-2.6321,-2.8823,-3.0962,-3.2665,-3.3807,-3.3807,-3.3987,-3.421,-3.435,-3.3759,-3.2516,0.0,0.0,-2.8665,-2.9885,-2.9923,-3.1116,-3.4811,-3.6701,-3.6306,0.0,0.0,0.0,0.0,0.0,0.0,-3.2402,-3.3965,-3.498,-3.5039,-3.582,-3.7711,-4.09,-4.1128,-4.1039,-4.0715,-4.0883,-4.0906,-4.0721,-4.0715,-4.0715,-4.0713,-4.0916,-3.9162,-3.6165,-3.9546,-3.916,-3.6401,-3.9669,-4.1081,-4.1191,-4.1191,-4.1191,-4.1191,-4.1191,-4.1191,-4.1171,-4.1054,-4.1083,-4.1191,-4.1191,-4.1191,-4.1191,-4.1191,-4.1191,-4.1191,-4.1191,-4.0605,-3.9961,-3.9902,-3.8672,-3.7402,-3.7324,-3.668,-3.6055,-3.6016,-3.5996,-3.5996,-3.5996,-3.5996,-3.5996,-3.5996,-3.5996,-3.5996,-3.5996,-3.5254,-3.4101,-3.2461,-3.1504,-3.0957,-3.0898,-3.0898,-3.0811,-3.0617,-3.06,-3.0541,-3.0402,-3.0404,-3.0404,-3.0404,-3.0404,-3.0404,-3.0404,-3.0404,-3.0404,-3.0404,-2.9939,-2.9705,-2.9696,-2.9228,-2.9005,-2.3258,-2.7106,-3.1355,-3.2466,-3.3273,-3.3807,-3.3807,-3.3701,-3.2905,-3.0443,-2.7628,-2.4643,0.0,0.0,0.0,-2.474,-2.3577,0.0,-3.0794,-3.0587,0.0,-3.2649,0.0,-3.457,-3.6738,-3.7734,0.0,-3.4277,-3.6855,-3.8867,-3.9512,-3.9746,-4.0211,-4.0978,-4.1128,-4.1054,-4.0779,-4.0832,-4.0887,-4.0925,-4.0817,-4.084,-4.0928,-4.0981,-4.0517,-3.9704,-4.0711,-4.0594,-3.9786,-4.0753,-4.1171,-4.1191,-4.1191,-4.1191,-4.1191,-4.1191,-4.1191,-4.1191,-4.1151,-4.1171,-4.1191,-4.1191,-4.1191,-4.1191,-4.1191,-4.1191,-4.1191,-4.1191,-4.1035,-4.0723,-4.0078,-3.957,-3.8906,-3.7617,-3.7129,-3.6797,-3.6133,-3.5996,-3.5996,-3.5996,-3.5996,-3.5996,-3.5996,-3.5996,-3.5996,-3.5996,-3.5254,-3.4316,-3.3223,-3.2383,-3.1621,-3.0976,-3.0815,-3.0708,-3.0611,-3.0547,-3.05,-3.0416,-3.0404,-3.0404,-3.0404,-3.0404,-3.0404,-3.0404,-3.0404,-3.0404,-3.0404,-2.9939,-2.9705,-2.9696,-2.9228,-2.9005,-2.6605,-2.954,-3.2687,-3.3105,-3.3508,-3.333,-3.1568,-3.1061,-2.9922,-2.6355,-2.3707,0.0,-1.8183,-1.5856,0.0,0.0,0.0,0.0,-2.9025,-2.9373,-3.0072,0.0,-3.366,0.0,-4.0059,-4.0469,-3.9668,0.0,-3.7949,-3.8398,-3.8887,-3.8926,-3.9589,-4.1043,-4.1151,-4.1128,-4.0986,-4.086,-4.0867,-4.0996,-4.092,-4.0922,-4.0996,-4.1055,-4.0241,-3.8894,-4.0507,-4.0291,-3.8933,-4.0546,-4.1191,-4.1191,-4.1191,-4.1191,-4.1191,-4.1191,-4.1191,-4.1191,-4.1191,-4.1191,-4.1191,-4.1191,-4.1191,-4.1191,-4.1191,-4.1191,-4.1191,-4.1191,-4.1191,-4.1094,-4.0605,-4.0195,-3.9648,-3.8672,-3.8144,-3.7734,-3.7246,-3.6836,-3.6465,-3.6074,-3.5996,-3.5996,-3.5996,-3.5996,-3.5996,-3.5996,-3.5586,-3.4961,-3.4082,-3.3242,-3.2402,-3.1562,-3.1357,-3.1088,-3.0631,-3.0541,-3.0463,-3.0396,-3.0404,-3.0404,-3.0404,-3.0404,-3.0404,-3.0404,-3.0404,-3.0404,-3.0404,-2.9939,-2.9705,-2.9696,-2.9228,-2.9189,-3.0597,-3.214,-3.3273,-3.3273,-3.3536,-3.2852,-2.9255,-2.804,-2.6628,-2.2918,0.0,-1.965,-1.7778,-1.6828,-1.7715,-2.1951,0.0,-2.4817,-2.7395,-3.0042,-3.1916,-3.2467,-3.3716,-3.6289,-4.0762,-4.0781,-4.0703,-4.1172,-3.8398,-3.6699,-3.6699,-3.6699,-3.8086,-4.1094,-4.1191,-4.1191,-4.1191,-4.0964,-4.0914,-4.1025,-4.1025,-4.1025,-4.1026,-4.1149,-3.9551,-3.6855,-3.9883,-3.9473,-3.6914,-3.9941,-4.1191,-4.1191,-4.1191,-4.1191,-4.1191,-4.1191,-4.1191,-4.1191,-4.1191,-4.1191,-4.1191,-4.1191,-4.1191,-4.1191,-4.1191,-4.1191,-4.1191,-4.1191,-4.1191,-4.1191,-4.1191,-4.0644,-4.0039,-3.9922,-3.9316,-3.873,-3.8613,-3.793,-3.707,-3.6328,-3.6074,-3.5996,-3.5996,-3.5996,-3.5996,-3.5996,-3.5996,-3.5723,-3.4961,-3.4101,-3.3262,-3.2441,-3.2233,-3.1822,-3.102,-3.0878,-3.0791,-3.0743,-3.0731,-3.0731,-3.0731,-3.0731,-3.0731,-3.0731,-3.0731,-3.0731,-3.0731,-3.0261,-3.0025,-3.0017,-2.9542,-2.9684,-2.9577,-3.1377,-3.3694,-3.3694,-3.3748,-3.344,-3.2069,-2.9326,0.0,0.0,-1.8836,-1.6216,-1.6487,-1.5925,-1.6808,-2.1043,0.0,0.0,0.0,0.0,-3.0328,0.0,0.0,0.0,0.0,-3.8594,0.0,0.0,-4.0644,-4.0293,-4.0293,-4.0293,-4.0586,-4.1172,-4.1191,-4.1191,-4.1191,-4.115,-4.1149,-4.1171,-4.1171,-4.1171,-4.1171,-4.1191,-4.0879,-4.0332,-4.0937,-4.0859,-4.0332,-4.0957,-4.1191,-4.1191,-4.1191,-4.1191,-4.1191,-4.1191,-4.1191,-4.1191,-4.1191,-4.1191,-4.1191,-4.1191,-4.1191,-4.1191,-4.1191,-4.1191,-4.1191,-4.1191,-4.1191,-4.1191,-4.1191,-4.1094,-4.0781,-4.0078,-3.9785,-3.9473,-3.8769,-3.793,-3.7266,-3.7109,-3.6484,-3.5996,-3.5996,-3.5996,-3.5996,-3.5996,-3.5996,-3.5957,-3.5781,-3.5019,-3.4141,-3.3281,-3.3067,-3.2936,-3.2765,-3.2585,-3.2479,-3.2468,-3.2468,-3.2468,-3.2468,-3.2468,-3.2468,-3.2468,-3.2468,-3.2468,-3.2468,-3.1998,-3.177,-3.1742,-3.1221,-3.1054,-2.9606,-3.1285,-3.3807,-3.3807,-3.3495,-3.21,-2.7934,0.0,0.0,0.0,-1.3213,-1.1715,-1.1667,0.0,0.0,0.0,0.0,0.0,0.0,0.0,0.0,0.0,0.0,0.0,0.0,-3.6719,-3.6699,-3.8379,-3.8496,-3.9297,-4.1094,-4.1191,-4.1191,-4.1191,-4.1191,-4.1191,-4.1191,-4.1191,-4.1191,-4.1191,-4.1191,-4.1191,-4.1191,-4.1191,-4.1191,-4.1191,-4.1191,-4.0176,-3.8633,-4.0449,-4.0137,-3.8672,-4.0488,-4.1191,-4.1191,-4.1191,-4.1191,-4.1191,-4.1191,-4.1191,-4.1191,-4.1191,-4.1191,-4.1191,-4.1191,-4.1191,-4.1191,-4.1191,-4.1191,-4.1191,-4.1191,-4.1191,-4.1094,-4.0684,-4.0586,-4.0332,-3.9453,-3.8945,-3.8516,-3.8066,-3.7266,-3.668,-3.668,-3.6309,-3.5996,-3.5996,-3.5996,-3.5995,-3.5949,-3.5577,-3.499,-3.4111,-3.3869,-3.3584,-3.313,-3.2982,-3.2891,-3.2891,-3.2891,-3.2891,-3.2891,-3.2891,-3.2891,-3.2891,-3.2891,-3.2891,-3.2891,-3.2425,-3.2194,-3.2194,-3.1658,-3.1623,-3.0528,-3.1867,-3.3752,-3.3587,-3.306,-3.084,-2.4107,-2.1492,0.0,0.0,-0.9153,-0.8639,-0.874,0.0,-1.1889,0.0,0.0,0.0,0.0,0.0,0.0,0.0,0.0,0.0,0.0,-3.5937,0.0,-3.7051,-3.7109,-3.8301,-4.1055,-4.1191,-4.1191,-4.1191,-4.1191,-4.1191,-4.1191,-4.1191,-4.1191,-4.1191,-4.1191,-4.1191,-4.1191,-4.1191,-4.1191,-4.1191,-4.1191,-3.9219,-3.6269,-3.9766,-3.9141,-3.6348,-3.9844,-4.1191,-4.1191,-4.1191,-4.1191,-4.1191,-4.1191,-4.1191,-4.1191,-4.1191,-4.1191,-4.1191,-4.1191,-4.1191,-4.1191,-4.1191,-4.1191,-4.1191,-4.1191,-4.1191,-4.1191,-4.1191,-4.1191,-4.1016,-4.0332,-4.0039,-3.9707,-3.9004,-3.8164,-3.7519,-3.7324,-3.6738,-3.6211,-3.6014,-3.5975,-3.595,-3.5873,-3.5836,-3.5573,-3.4888,-3.4672,-3.4289,-3.3621,-3.3496,-3.3468,-3.3468,-3.3468,-3.3468,-3.3468,-3.3468,-3.3468,-3.3468,-3.3468,-3.3468,-3.3468,-3.3026,-3.2826,-3.2807,-3.2329,-3.2453,-3.2651,-3.3568,-3.3623,-3.2894,-3.2656,-3.1292,-2.6219,0.0,0.0,-1.486,-1.1097,-0.9522,-1.2552,-1.3287,-1.4644,0.0,0.0,-1.8449,0.0,0.0,0.0,0.0,0.0,0.0,0.0,-3.7344,-3.7305,-4.0488,-4.0723,-4.0859,-4.1172,-4.1191,-4.1191,-4.1191,-4.1191,-4.1191,-4.1191,-4.1191,-4.1191,-4.1191,-4.1191,-4.1191,-4.1191,-4.1191,-4.1191,-4.1191,-4.1191,-3.9219,-3.6269,-3.9766,-3.9141,-3.6348,-3.9844,-4.1191,-4.1191,-4.1191,-4.1191,-4.1191,-4.1191,-4.1191,-4.1191,-4.1191,-4.1191,-4.1191,-4.1191,-4.1191,-4.1191,-4.1191,-4.1191,-4.1191,-4.1191,-4.1191,-4.1191,-4.1191,-4.1191,-4.1172,-4.1094,-4.0469,-3.9883,-3.9805,-3.9082,-3.8223,-3.7441,-3.7226,-3.6893,-3.6031,-3.5908,-3.5853,-3.5726,-3.5674,-3.5607,-3.5529,-3.5485,-3.5456,-3.5373,-3.5296,-3.525,-3.525,-3.525,-3.525,-3.525,-3.525,-3.525,-3.525,-3.525,-3.525,-3.5269,-3.4977,-3.4823,-3.4842,-3.4537,-3.4434,-2.6898,-2.9414,-3.2265,-3.1953,-3.1513,-2.9641,-2.3786,0.0,-1.7355,-1.1384,-0.8497,-0.7323,-0.8285,-0.933,-1.118,-1.4657,0.0,0.0,0.0,0.0,0.0,0.0,0.0,0.0,0.0,0.0,-3.6582,-3.7969,-3.8066,-3.8984,-4.1094,-4.1191,-4.1191,-4.1191,-4.1191,-4.1191,-4.1191,-4.1191,-4.1191,-4.1191,-4.1191,-4.1191,-4.1191,-4.1191,-4.1191,-4.1191,-4.1191,-3.8047,-3.3359,-3.8906,-3.793,-3.3476,-3.9023,-4.1191,-4.1191,-4.1191,-4.1191,-4.1191,-4.1191,-4.1191,-4.1191,-4.1191,-4.1191,-4.1191,-4.1191,-4.1191,-4.1191,-4.1191,-4.1191,-4.1191,-4.1191,-4.1191,-4.1191,-4.1191,-4.1191,-4.1191,-4.1191,-4.0937,-4.0684,-4.0684,-3.998,-3.9277,-3.8926,-3.8355,-3.7676,-3.6803,-3.6614,-3.6343,-3.572,-3.5621,-3.5574,-3.554,-3.5547,-3.5547,-3.5547,-3.5521,-3.55,-3.55,-3.55,-3.55,-3.55,-3.55,-3.55,-3.55,-3.55,-3.55,-3.55,-3.5223,-3.5105,-3.5096,-3.4813,-3.4694,-2.4016,-2.7394,-3.1342,-3.1103,-2.9898,-2.72,0.0,0.0,-1.4811,-0.8269,-0.6426,-0.5792,-0.5122,-0.6161,-0.8339,-1.2096,0.0,-1.7538,-2.5298,0.0,0.0,0.0,0.0,-3.6306,0.0,-3.6504,-3.7539,-3.7539,-3.7539,-3.8613,-4.1074,-4.1191,-4.1191,-4.1191,-4.1191,-4.1191,-4.1191,-4.1191,-4.1191,-4.1191,-4.1191,-4.0664,-3.9707,-4.0723,-4.0644,-3.9726,-4.0742,-3.7851,-3.2871,-3.8769,-3.7734,-3.2988,-3.8906,-4.1191,-4.1191,-4.1191,-4.1191,-4.1191,-4.1191,-4.1191,-4.1191,-4.1191,-4.1191,-4.1191,-4.1191,-4.1191,-4.1191,-4.1191,-4.1191,-4.1191,-4.1191,-4.1191,-4.1191,-4.1191,-4.1191,-4.1191,-4.1191,-4.1191,-4.1191,-4.1191,-4.0703,-4.0195,-3.9899,-3.9258,-3.8484,-3.7609,-3.7393,-3.7089,-3.6394,-3.6314,-3.6195,-3.5898,-3.5846,-3.575,-3.5519,-3.55,-3.55,-3.55,-3.55,-3.55,-3.55,-3.55,-3.55,-3.55,-3.55,-3.55,-3.55,-3.5304,-3.5215,-3.5215,-3.5016,-3.4841,-2.6678,-2.9524,-3.1213,-3.0411,-2.7816,-2.4163,0.0,0.0,-1.1957,-0.7027,-0.6015,-0.5792,-0.5122,-0.5666,-0.7635,-1.1981,-1.3385,0.0,-2.2008,0.0,0.0,0.0,0.0,-3.4649,-3.8203,-4.0117,-4.1152,-4.1152,-4.1152,-4.1152,-4.1191,-4.1191,-4.1191,-4.1191,-4.1191,-4.1191,-4.1191,-4.1191,-4.1191,-4.1191,-4.1191,-3.9394,-3.6172,-3.9629,-3.9316,-3.625,-3.9707,-3.9199,-3.6211,-3.9746,-3.9121,-3.6309,-3.9824,-4.1191,-4.1191,-4.1191,-4.1191,-4.1191,-4.1191,-4.1191,-4.1191,-4.1191,-4.1191,-4.1191,-4.1191,-4.1191,-4.1191,-4.1191,-4.1191,-4.1191,-4.1191,-4.1191,-4.1191,-4.1191,-4.1191,-4.1191,-4.1191,-4.1191,-4.1191,-4.1191,-4.1191,-4.0877,-3.9871,-3.9687,-3.9313,-3.8243,-3.8084,-3.8065,-3.7978,-3.7969,-3.7642,-3.6769,-3.6692,-3.6365,-3.5577,-3.55,-3.55,-3.55,-3.55,-3.55,-3.55,-3.55,-3.55,-3.55,-3.55,-3.55,-3.55,-3.55,-3.55,-3.55,-3.5493,-3.5207,-1.8519,-2.0868,-2.2951,-2.2134,-2.1161,-1.9271,-1.4976,0.0,-1.0586,-0.6785,-0.557,-0.5145,-0.503,-0.5666,-0.7635,-1.1981,-1.3385,0.0,0.0,0.0,0.0,0.0,-3.5644,-3.7711,0.0,0.0,-3.8633,-4.1016,-3.8984,-3.8691,-4.1074,-4.1191,-4.1191,-4.1191,-4.1191,-4.1191,-4.1191,-4.1191,-4.1191,-4.1191,-4.1191,-3.9375,-3.6113,-3.9609,-3.9297,-3.6191,-3.9687,-3.9219,-3.6269,-3.9766,-3.9141,-3.6348,-3.9844,-4.1191,-4.1191,-4.1191,-4.1191,-4.1191,-4.1191,-4.1191,-4.1191,-4.1191,-4.1191,-4.1191,-4.1191,-4.1191,-4.1191,-4.1191,-4.1191,-4.1191,-4.1191,-4.1191,-4.1191,-4.1191,-4.1191,-4.1191,-4.1191,-4.1191,-4.1191,-4.1191,-4.1127,-4.0955,-4.0647,-4.0461,-4.0068,-3.9132,-3.8942,-3.8707,-3.8072,-3.8007,-3.7892,-3.7623,-3.7584,-3.7026,-3.5615,-3.55,-3.55,-3.55,-3.55,-3.55,-3.55,-3.55,-3.55,-3.55,-3.55,-3.55,-3.55,-3.55,-3.55,-3.55,-3.55,-3.5215,0.0,-1.7069,-1.9187,-1.8684,-1.7638,0.0,0.0,0.0,-0.8865,-0.6492,-0.6402,-0.6409,-0.5208,-0.6716,-0.8706,-1.0483,-1.3621,0.0,0.0,0.0,0.0,0.0,0.0,0.0,0.0,-3.9238,-3.8867,-4.1035,-3.9199,-3.8906,-4.1074,-4.1191,-4.1191,-4.1191,-4.1191,-4.1191,-4.1191,-4.1191,-4.1191,-4.1191,-4.1191,-3.9375,-3.6113,-3.9609,-3.9297,-3.6191,-3.9687,-3.9961,0.0,-4.0293,-3.9922,-3.8184,-4.0351,-4.1191,-4.1191,-4.1191,-4.1191,-4.1191,-4.1191,-4.1191,-4.1191,-4.1191,-4.1191,-4.1191,-4.1191,-4.1191,-4.1191,-4.1191,-4.1191,-4.1191,-4.1191,-4.1191,-4.1191,-4.1191,-4.1191,-4.1191,-4.1191,-4.1151,-4.1127,-4.1127,-4.1021,-4.0911,-4.088,-4.0777,-4.0505,-3.9889,-3.9788,-3.9554,-3.9008,-3.8931,-3.8834,-3.8527,-3.8488,-3.793,-3.6558,-3.6442,-3.6442,-3.6442,-3.6135,-3.5942,-3.5942,-3.5654,-3.55,-3.55,-3.55,-3.55,-3.55,-3.55,-3.55,-3.55,-3.541,-3.5113,0.0,-1.691,0.0,0.0,0.0,0.0,0.0,0.0,0.0,0.0,0.0,-0.9052,-0.5914,-0.8805,-1.0861,-0.8369,-1.4165,0.0,0.0,0.0,0.0,0.0,-3.1486,0.0,-4.0371,-4.1055,-4.1191,-4.1191,-4.1191,-4.1191,-4.1191,-4.1191,-4.1191,-4.1191,-4.1191,-4.1191,-4.1191,-4.1191,-4.1074,-4.082,-4.1074,-3.9258,-3.5762,-3.9492,-3.9297,-3.6191,-3.9687,-4.1191,-4.1191,-4.1191,-4.1191,-4.1191,-4.1191,-4.1191,-4.1191,-4.1191,-4.1191,-4.1191,-4.1191,-4.1191,-4.1191,-4.1191,-4.1191,-4.1191,-4.1191,-4.1191,-4.1191,-4.1191,-4.1191,-4.1191,-4.1191,-4.1191,-4.1191,-4.1191,-4.1191,-4.1191,-4.1191,-4.108,-4.099,-4.099,-4.0874,-4.077,-4.0701,-4.0692,-4.063,-4.0519,-4.0496,-4.0496,-4.0496,-4.0496,-4.0208,-3.9477,-3.94,-3.9073,-3.8257,-3.8065,-3.8007,-3.8007,-3.7238,-3.6788,-3.6788,-3.6077,-3.5654,-3.5596,-3.5538,-3.55,-3.55,-3.55,-3.55,-3.5493,-3.5223,-3.4954,-1.0855,0.0,-1.1811,-1.1196,-1.048,-0.9691,0.0,0.0,0.0,0.0,0.0,0.0,0.0,0.0,0.0,0.0,0.0,0.0,0.0,0.0,0.0,-2.8153,-3.3456,-3.718,-3.7226,-3.9629,-4.1191,-4.1191,-4.1191,-4.1191,-4.1191,-4.1191,-4.1191,-4.1191,-4.1191,-4.1191,-4.1191,-4.1191,-3.9863,-3.7246,-3.9922,-3.8008,-3.2305,-3.8418,-3.9297,-3.6191,-3.9687,-4.1191,-4.1191,-4.1191,-4.1191,-4.1191,-4.1191,-4.1191,-4.1191,-4.1191,-4.1191,-4.1191,-4.1191,-4.1191,-4.1191,-4.1191,-4.1191,-4.1171,-4.108,-4.1126,-4.1191,-4.1191,-4.1191,-4.1191,-4.1191,-4.1191,-4.1191,-4.1191,-4.1126,-4.1051,-4.1051,-4.095,-4.0854,-4.0854,-4.0785,-4.0724,-4.0703,-4.0616,-4.0549,-4.0504,-4.0496,-4.0496,-4.0496,-4.0496,-4.0439,-4.0246,-4.0227,-4.015,-3.9938,-3.8738,-3.8007,-3.8007,-3.7815,-3.77,-3.77,-3.7507,-3.7103,-3.6423,-3.5808,-3.55,-3.55,-3.55,-3.55,-3.5493,-3.5223,-3.4954,-0.9702,-0.9702,-0.9864,-1.0521,-0.9878,-0.9221,0.0,0.0,0.0,0.0,0.0,0.0,0.0,0.0,0.0,0.0,-1.5846,0.0,0.0,0.0,0.0,-2.8103,-3.1676,-3.4637,-3.5835,-3.9076,-4.1129,-4.1191,-4.1191,-4.1191,-4.1191,-4.1191,-4.1191,-4.1191,-4.1191,-4.1191,-4.1191,-4.1191,-3.9453,-3.6035,-3.9531,-3.8398,-3.3418,-3.8769,-4.0176,-3.8398,-3.8691,-3.9726,-4.1074,-3.9473,-3.9766,-4.1191,-4.1191,-4.1191,-4.1191,-4.1191,-4.1191,-4.1191,-4.1191,-4.1191,-4.1191,-4.1191,-4.1151,-4.1083,-4.1023,-4.1017,-4.1026,-4.1082,-4.1056,-4.1026,-4.1082,-4.1055,-4.1021,-4.1021,-4.0959,-4.0911,-4.0911,-4.0821,-4.0757,-4.0757,-4.0684,-4.061,-4.061,-4.0545,-4.0496,-4.0496,-4.0496,-4.0496,-4.0496,-4.0496,-4.0496,-4.0496,-4.0496,-4.0496,-4.0496,-3.9669,-3.9142,-3.9142,-3.8796,-3.8604,-3.8604,-3.82,-3.7777,-3.7315,-3.6873,-3.6442,-3.6058,-3.6058,-3.5804,-3.5304,-3.5034,-3.4764,-0.9551,-0.9515,-1.0121,-1.2679,-1.1484,-1.0323,0.0,0.0,0.0,0.0,0.0,0.0,0.0,0.0,0.0,0.0,0.0,0.0,0.0,-2.5991,-2.7533,-2.7942,-2.9679,-3.2163,-3.5536,-3.897,-4.1051,-4.1151,-4.1191,-4.1191,-4.1191,-4.1191,-4.1191,-4.1191,-4.1191,-4.1191,-4.1191,-4.1191,-3.9453,-3.6035,-3.9531,-3.9375,-3.6113,-3.9609,-4.1191,-4.1035,-3.8086,-3.8476,-4.0976,-3.8008,-3.8535,-4.1191,-4.1191,-4.1191,-4.1191,-4.1191,-4.1191,-4.1191,-4.1171,-4.1171,-4.1171,-4.1149,-4.1055,-4.0962,-4.0952,-4.086,-4.0813,-4.0911,-4.089,-4.0839,-4.095,-4.0899,-4.0797,-4.0797,-4.0785,-4.0773,-4.0773,-4.0712,-4.0661,-4.0661,-4.0588,-4.0496,-4.0496,-4.0496,-4.0496,-4.0496,-4.0496,-4.0496,-4.0496,-4.0496,-4.0496,-4.0496,-4.0496,-4.0496,-4.0496,-4.0496,-4.0496,-4.0496,-3.9861,-3.9477,-3.9477,-3.8661,-3.82,-3.82,-3.8065,-3.7642,-3.6904,-3.6856,-3.6347,-3.5458,-3.5142,-3.485,-0.8865,-0.8681,-0.9437,-1.2527,-1.1484,-1.0323,0.0,0.0,0.0,0.0,0.0,0.0,0.0,0.0,0.0,0.0,0.0,-2.3206,0.0,0.0,-3.0166,-2.8156,-3.379,-3.7298,-3.5864,-3.8934,-4.1019,-4.1026,-4.1148,-4.1191,-4.1191,-4.1191,-4.1191,-4.1191,-4.1191,-4.1191,-4.1191,-4.1191,-3.9453,-3.6035,-3.9531,-3.9375,-3.6113,-3.9609,-4.1191,-4.1172,-4.0625,-4.0703,-4.1152,-4.0625,-4.0723,-4.1191,-4.1191,-4.1191,-4.1191,-4.1191,-4.1191,-4.1172,-4.1077,-4.1026,-4.1,-4.0905,-4.0854,-4.0824,-4.0762,-4.0735,-4.0718,-4.074,-4.0776,-4.0801,-4.0836,-4.0809,-4.0797,-4.0797,-4.0762,-4.0713,-4.0713,-4.063,-4.0523,-4.0523,-4.0519,-4.0496,-4.0496,-4.0496,-4.0496,-4.0496,-4.0496,-4.0496,-4.0496,-4.0496,-4.0496,-4.0496,-4.0496,-4.0496,-4.0496,-4.0496,-4.0496,-4.0496,-4.0381,-4.0323,-4.0323,-3.9534,-3.9111,-3.9111,-3.8373,-3.793,-3.7796,-3.7513,-3.7296,-3.7118,-3.6626,-3.6373,-0.9254,-0.9144,-1.0135,-1.4224,-1.2142,-1.0554,0.0,0.0,0.0,0.0,0.0,0.0,0.0,0.0,-2.0542,-1.9485,0.0,-2.9242,-2.8338,-3.0602,-3.2082,-3.1378,-3.4845,-3.6866,-3.5751,-3.8792,-4.0848,-4.0899,-4.1021,-4.1082,-4.1082,-4.1151,-4.1191,-4.1191,-4.1191,-4.1191,-4.1191,-4.1191,-3.9453,-3.6035,-3.9531,-3.9375,-3.6113,-3.9609,-4.1191,-4.1094,-3.9219,-3.9453,-4.1055,-3.918,-3.9492,-4.1191,-4.1191,-4.1191,-4.1191,-4.1191,-4.115,-4.1081,-4.1023,-4.0955,-4.0877,-4.0813,-4.0775,-4.0747,-4.0701,-4.0655,-4.0582,-4.0582,-4.0604,-4.0645,-4.0722,-4.0685,-4.0647,-4.0647,-4.0604,-4.0582,-4.0582,-4.0537,-4.0496,-4.0496,-4.0496,-4.0496,-4.0496,-4.0496,-4.0496,-4.0496,-4.0496,-4.0496,-4.0496,-4.0496,-4.0496,-4.0496,-4.0496,-4.0496,-4.0496,-4.0496,-4.0496,-4.0496,-4.0496,-4.0496,-4.0496,-4.015,-3.9958,-3.9958,-3.9554,-3.9142,-3.87,-3.8378,-3.788,-3.7268,-3.6873,-3.6623,-0.9478,-0.9423,-1.0447,-1.4714,-1.2299,0.0,0.0,0.0,0.0,0.0,0.0,0.0,0.0,-1.817,0.0,-2.3413,-2.9357,-3.3218,-3.291,-3.3583,-3.441,-3.5283,-3.6142,-3.6697,-3.6742,-3.9137,-4.0729,-4.077,-4.0893,-4.0962,-4.0994,-4.1102,-4.1171,-4.1191,-4.1191,-4.1191,-4.1191,-4.1191,-3.9863,-3.7246,-3.9922,-3.9805,-3.7305,-3.998,-4.1191,-4.1055,-3.8379,-3.873,-4.0996,-3.832,-3.8789,-4.1191,-4.1191,-4.1191,-4.1191,-4.1151,-4.1105,-4.1049,-4.1019,-4.0925,-4.085,-4.0805,-4.0776,-4.0724,-4.0709,-4.063,-4.0537,-4.0512,-4.0496,-4.0508,-4.063,-4.0588,-4.0496,-4.0496,-4.0496,-4.0496,-4.0496,-4.0496,-4.0496,-4.0496,-4.0496,-4.0496,-4.0496,-4.0496,-4.0496,-4.0496,-4.0496,-4.0496,-4.0496,-4.0496,-4.0496,-4.0496,-4.0496,-4.0496,-4.0496,-4.0496,-4.0496,-4.0496,-4.0496,-4.0496,-4.0496,-4.0496,-4.0496,-4.0496,-4.0496,-4.0208,-3.9592,-3.9184,-3.854,-3.7675,-3.7324,-3.7054,-0.8791,-0.8589,-0.9213,-1.1801,-1.107,0.0,-2.0124,-1.5146,0.0,-2.1742,0.0,0.0,0.0,-2.4043,-2.4509,-2.8068,-2.9794,-3.2,-3.5808,-3.7084,-3.795,-3.8842,-3.965,-4.0138,-4.0154,-4.0475,-4.0703,-4.0715,-4.0766,-4.0867,-4.0992,-4.1019,-4.1077,-4.1191,-4.1191,-4.1191,-4.1191,-4.1191,-4.1074,-4.082,-4.1074,-4.1074,-4.082,-4.1094,-4.1191,-4.1191,-4.0937,-4.0976,-4.1172,-4.0937,-4.0976,-4.1191,-4.1191,-4.1191,-4.1172,-4.1055,-4.1081,-4.1171,-4.103,-4.0992,-4.0962,-4.085,-4.0793,-4.0788,-4.0724,-4.0692,-4.0649,-4.0549,-4.0496,-4.0496,-4.0512,-4.0504,-4.0496,-4.0496,-4.0496,-4.0496,-4.0496,-4.0496,-4.0496,-4.0496,-4.0496,-4.0496,-4.0496,-4.0496,-4.0496,-4.0496,-4.0496,-4.0496,-4.0496,-4.0496,-4.0496,-4.0496,-4.0496,-4.0496,-4.0496,-4.0496,-4.0496,-4.0496,-4.0496,-4.0496,-4.0496,-4.0496,-4.0496,-4.0496,-4.0496,-4.0477,-4.0419,-3.9829,-3.9509,-3.9418,-3.8827,-3.8539,-1.081,-1.0737,-1.1673,-1.5607,-1.3531,0.0,0.0,-1.7729,-1.6087,-2.5259,-2.2357,0.0,0.0,0.0,-2.7626,-2.8896,-3.2045,-3.5058,-3.7219,-3.8257,-3.913,-3.9958,-4.0304,-4.0496,-4.0496,-4.0545,-4.0581,-4.0581,-4.0684,-4.0767,-4.0814,-4.0843,-4.0905,-4.0955,-4.1026,-4.1078,-4.1078,-4.1151,-4.1191,-4.1191,-4.1191,-4.1191,-4.1191,-4.1191,-4.1191,-4.1191,-4.1191,-4.1191,-4.1191,-4.1191,-4.1191,-4.1191,-4.1191,-4.1191,-4.1191,-4.1149,-4.1104,-4.1077,-4.1021,-4.0952,-4.0857,-4.0767,-4.0742,-4.0715,-4.0616,-4.0581,-4.0566,-4.0519,-4.0496,-4.0496,-4.0496,-4.0496,-4.0496,-4.0496,-4.0496,-4.0496,-4.0496,-4.0496,-4.0496,-4.0496,-4.0496,-4.0496,-4.0496,-4.0496,-4.0496,-4.0496,-4.0496,-4.0496,-4.0496,-4.0496,-4.0496,-4.0496,-4.0496,-4.0496,-4.0496,-4.0496,-4.0496,-4.0496,-4.0496,-4.0496,-4.0496,-4.0496,-4.0496,-4.0496,-4.0496,-4.0425,-4.0241,-3.98,-3.9486,-3.9276,-3.8888,-3.8707,-1.2095,-1.2095,-1.3091,-1.7149,0.0,0.0,-2.1544,-1.9794,-1.8651,-2.6633,-2.5423,-2.2586,-2.1508,0.0,0.0,0.0,-3.2679,-3.5795,-3.7738,-3.8738,-3.9611,-4.04,-4.0496,-4.0496,-4.0496,-4.0496,-4.0496,-4.0496,-4.0595,-4.0668,-4.0697,-4.0738,-4.0784,-4.0797,-4.088,-4.0957,-4.0996,-4.1082,-4.1151,-4.1191,-4.1191,-4.1191,-4.1191,-4.1191,-4.1191,-4.1191,-4.1191,-4.1191,-4.1191,-4.1191,-4.1191,-4.1191,-4.115,-4.1151,-4.1191,-4.115,-4.108,-4.0996,-4.0996,-4.0914,-4.0785,-4.0742,-4.0731,-4.0704,-4.0603,-4.0566,-4.0552,-4.0512,-4.0496,-4.0496,-4.0496,-4.0496,-4.0496,-4.0496,-4.0496,-4.0496,-4.0496,-4.0496,-4.0496,-4.0496,-4.0496,-4.0496,-4.0496,-4.0496,-4.0496,-4.0496,-4.0496,-4.0496,-4.0496,-4.0496,-4.0496,-4.0496,-4.0496,-4.0496,-4.0496,-4.0496,-4.0496,-4.0496,-4.0496,-4.0496,-4.0496,-4.0496,-4.0496,-4.0496,-4.0496,-4.0364,-4.0101,-3.9765,-3.9445,-3.9099,-3.8815,-3.8707,-1.215,-1.2132,-1.2701,0.0,0.0,0.0,-2.3388,-2.0865,-1.8351,-2.5121,-3.0591,-3.3109,-2.9684,-2.9813,0.0,-3.0404,-3.1173,-3.3218,-3.7411,-3.8757,-3.9611,-4.0419,-4.0496,-4.0496,-4.0496,-4.0496,-4.0496,-4.0496,-4.0496,-4.0559,-4.0686,-4.0697,-4.0726,-4.0793,-4.0797,-4.0864,-4.0996,-4.0996,-4.1077,-4.1191,-4.1191,-4.1191,-4.1191,-4.1191,-4.1191,-4.1191,-4.1191,-4.1191,-4.1191,-4.1191,-4.1191,-4.1191,-4.1054,-4.1081,-4.1172,-4.1052,-4.0996,-4.0996,-4.0994,-4.0914,-4.0797,-4.0797,-4.0797,-4.0796,-4.0724,-4.0697,-4.0661,-4.053,-4.0496,-4.0496,-4.0496,-4.0496,-4.0496,-4.0496,-4.0496,-4.0496,-4.0496,-4.0496,-4.0496,-4.0496,-4.0496,-4.0496,-4.0496,-4.0496,-4.0496,-4.0496,-4.0496,-4.0496,-4.0496,-4.0496,-4.0496,-4.0496,-4.0496,-4.0496,-4.0496,-4.0496,-4.0496,-4.0496,-4.0496,-4.0496,-4.0496,-4.0496,-4.0496,-4.0496,-4.0496,-4.0364,-4.0101,-3.9775,-3.9426,-3.9099,-3.8829,-3.8707,-1.5857,-1.508,0.0,0.0,0.0,0.0,0.0,-1.9316,0.0,0.0,-2.9511,-2.971,-2.6937,-3.0577,-3.3192,-3.0788,-3.3615,-3.6565,-3.7815,-3.9246,-4.0227,-4.0477,-4.0496,-4.0496,-4.0496,-4.0496,-4.0496,-4.0496,-4.0496,-4.0519,-4.0559,-4.0559,-4.0604,-4.0721,-4.0775,-4.0864,-4.0996,-4.1083,-4.1151,-4.1191,-4.1191,-4.1191,-4.1191,-4.1191,-4.1191,-4.1191,-4.1191,-4.1191,-4.1191,-4.1191,-4.1191,-4.1191,-4.115,-4.1151,-4.1172,-4.1052,-4.0996,-4.099,-4.0883,-4.0824,-4.0785,-4.0738,-4.0726,-4.0718,-4.0596,-4.0559,-4.0552,-4.0512,-4.0496,-4.0496,-4.0496,-4.0496,-4.0496,-4.0496,-4.0496,-4.0496,-4.0496,-4.0496,-4.0496,-4.0496,-4.0496,-4.0496,-4.0496,-4.0496,-4.0496,-4.0496,-4.0496,-4.0496,-4.0496,-4.0496,-4.0496,-4.0496,-4.0496,-4.0496,-4.0496,-4.0496,-4.0496,-4.0496,-4.0496,-4.0496,-4.0496,-4.0496,-4.0496,-4.0496,-4.0496,-4.0364,-4.0101,-4.0002,-3.9775,-3.9438,-3.9131,-3.8985,-1.7704,-1.7043,0.0,0.0,0.0,-1.7272,-1.8508,0.0,0.0,0.0,-3.1295,-3.0837,-2.9455,-3.256,-3.482,-3.316,-3.5776,-3.8123,-3.8469,-3.9669,-4.0496,-4.0496,-4.0496,-4.0496,-4.0496,-4.0496,-4.0496,-4.0496,-4.0496,-4.0496,-4.0496,-4.0496,-4.0549,-4.0616,-4.0665,-4.0761,-4.0917,-4.0996,-4.1083,-4.1191,-4.1191,-4.1191,-4.1191,-4.1191,-4.1191,-4.1191,-4.1191,-4.1191,-4.1191,-4.1191,-4.1191,-4.1191,-4.1149,-4.1126,-4.1104,-4.0964,-4.0899,-4.0859,-4.0794,-4.0738,-4.0674,-4.0636,-4.0623,-4.0603,-4.0515,-4.0496,-4.0496,-4.0496,-4.0496,-4.0496,-4.0496,-4.0496,-4.0496,-4.0496,-4.0496,-4.0496,-4.0496,-4.0496,-4.0496,-4.0496,-4.0496,-4.0496,-4.0496,-4.0496,-4.0496,-4.0496,-4.0496,-4.0496,-4.0496,-4.0496,-4.0496,-4.0496,-4.0496,-4.0496,-4.0496,-4.0496,-4.0496,-4.0496,-4.0496,-4.0496,-4.0496,-4.0496,-4.0496,-4.0496,-4.0496,-4.0364,-4.0101,-4.0101,-3.9922,-3.9599,-3.9389,-3.9244,-1.839,0.0,0.0,0.0,0.0,0.0,-2.3202,-2.4114,-2.5951,-3.3212,0.0,-3.4385,-3.495,-3.5088,-3.5439,-3.6488,-3.7416,-3.8296,-3.9188,-3.9996,-4.0496,-4.0496,-4.0496,-4.0496,-4.0496,-4.0496,-4.0496,-4.0496,-4.0496,-4.0496,-4.0496,-4.0496,-4.0504,-4.0519,-4.0519,-4.061,-4.0797,-4.0797,-4.092,-4.1151,-4.1151,-4.1151,-4.1151,-4.1191,-4.1191,-4.1191,-4.1191,-4.1191,-4.1171,-4.1171,-4.1171,-4.115,-4.1026,-4.0988,-4.0962,-4.0843,-4.0752,-4.0697,-4.068,-4.0596,-4.0496,-4.0496,-4.0496,-4.0496,-4.0496,-4.0496,-4.0496,-4.0496,-4.0496,-4.0496,-4.0496,-4.0496,-4.0496,-4.0496,-4.0496,-4.0496,-4.0496,-4.0496,-4.0496,-4.0496,-4.0496,-4.0496,-4.0496,-4.0496,-4.0496,-4.0496,-4.0496,-4.0496,-4.0496,-4.0496,-4.0496,-4.0496,-4.0496,-4.0496,-4.0496,-4.0496,-4.0496,-4.0496,-4.0496,-4.0496,-4.0496,-4.0496,-4.0496,-4.0496,-4.0496,-4.0381,-4.0139,-4.0139,-3.9973,-3.969,-3.9656,-3.9474,0.0,-1.9124,0.0,0.0,0.0,0.0,-2.8551,-2.9178,-2.9109,-3.3746,-3.2483,-3.1419,-3.4253,-3.4963,-3.5389,-3.6241,-3.7295,-3.8296,-3.9188,-3.9996,-4.0496,-4.0496,-4.0496,-4.0496,-4.0496,-4.0496,-4.0496,-4.0496,-4.0496,-4.0496,-4.0496,-4.0496,-4.0545,-4.0642,-4.0668,-4.0699,-4.0797,-4.0797,-4.082,-4.0899,-4.0899,-4.0899,-4.0883,-4.1104,-4.1191,-4.1191,-4.1191,-4.1149,-4.103,-4.103,-4.0988,-4.0877,-4.0857,-4.0831,-4.0839,-4.0742,-4.0707,-4.068,-4.0588,-4.0508,-4.0496,-4.0496,-4.0496,-4.0496,-4.0496,-4.0496,-4.0496,-4.0496,-4.0496,-4.0496,-4.0496,-4.0496,-4.0496,-4.0496,-4.0496,-4.0496,-4.0496,-4.0496,-4.0496,-4.0496,-4.0496,-4.0496,-4.0496,-4.0496,-4.0496,-4.0496,-4.0496,-4.0496,-4.0496,-4.0496,-4.0496,-4.0496,-4.0496,-4.0496,-4.0496,-4.0496,-4.0496,-4.0496,-4.0496,-4.0496,-4.0496,-4.0496,-4.0496,-4.0496,-4.0496,-4.0473,-4.0406,-4.0406,-4.0381,-4.0292,-4.0091,-3.9943,0.0,0.0,0.0,0.0,0.0,0.0,-2.931,-3.0815,-3.1869,-3.3855,-3.2804,-3.2105,-3.4102,-3.4574,-3.4981,-3.5961,-3.7056,-3.8065,-3.8774,-3.981,-4.0457,-4.033,-4.0414,-4.0496,-4.0496,-4.0496,-4.0496,-4.0496,-4.0496,-4.0496,-4.0496,-4.0496,-4.0523,-4.0596,-4.0603,-4.0642,-4.0752,-4.0752,-4.0766,-4.0797,-4.0797,-4.0797,-4.0801,-4.0933,-4.1017,-4.1017,-4.1017,-4.0962,-4.0908,-4.0908,-4.0864,-4.0793,-4.0757,-4.0752,-4.0738,-4.0642,-4.0603,-4.0589,-4.0515,-4.0496,-4.0496,-4.0496,-4.0496,-4.0496,-4.0496,-4.0496,-4.0496,-4.0496,-4.0496,-4.0496,-4.0496,-4.0496,-4.0496,-4.0496,-4.0496,-4.0496,-4.0496,-4.0496,-4.0496,-4.0496,-4.0496,-4.0496,-4.0496,-4.0496,-4.0496,-4.0496,-4.0496,-4.0496,-4.0496,-4.0496,-4.0496,-4.0496,-4.0496,-4.0496,-4.0496,-4.0496,-4.0496,-4.0496,-4.0496,-4.0496,-4.0496,-4.0496,-4.0496,-4.0496,-4.0496,-4.0496,-4.0496,-4.0496,-4.0422,-4.0313,-4.0304,-4.0139,0.0,0.0,0.0,0.0,0.0,0.0,-2.8796,-3.0889,-3.3128,-3.3697,-3.3807,-3.3881,-3.4086,-3.4171,-3.4554,-3.5647,-3.6662,-3.7509,-3.8118,-3.9328,-4.0065,-3.9833,-4.0127,-4.0381,-4.0433,-4.0441,-4.0457,-4.0496,-4.0496,-4.0496,-4.0496,-4.0496,-4.0496,-4.0496,-4.0496,-4.0552,-4.0655,-4.0681,-4.0688,-4.0742,-4.0742,-4.0742,-4.0742,-4.0742,-4.0764,-4.0797,-4.0797,-4.0789,-4.0788,-4.0788,-4.0779,-4.0733,-4.069,-4.0681,-4.0642,-4.0537,-4.0496,-4.0496,-4.0496,-4.0496,-4.0496,-4.0496,-4.0496,-4.0496,-4.0496,-4.0496,-4.0496,-4.0496,-4.0496,-4.0496,-4.0496,-4.0496,-4.0496,-4.0496,-4.0496,-4.0496,-4.0496,-4.0496,-4.0496,-4.0496,-4.0496,-4.0496,-4.0496,-4.0496,-4.0496,-4.0496,-4.0496,-4.0496,-4.0496,-4.0496,-4.0496,-4.0496,-4.0496,-4.0496,-4.0496,-4.0496,-4.0496,-4.0496,-4.0496,-4.0496,-4.0496,-4.0496,-4.0496,-4.0496,-4.0496,-4.0496,-4.0496,-4.0496,-4.0381,-4.0167,-4.0389,-4.0212,0.0,0.0,0.0,0.0,0.0,0.0,0.0,0.0,-3.0436,0.0,-3.3807,-3.3802,-3.3855,-3.4043,-3.4503,-3.5406,-3.5891,-3.6419,-3.7249,-3.8123,-3.8664,-3.8631,-3.9266,-3.9821,-4.0129,-4.0148,-4.0241,-4.0481,-4.0496,-4.0496,-4.0496,-4.0496,-4.0496,-4.0496,-4.0496,-4.0512,-4.0534,-4.0534,-4.053,-4.0533,-4.0533,-4.0533,-4.0533,-4.0533,-4.0641,-4.0797,-4.0797,-4.0761,-4.0707,-4.0707,-4.0629,-4.0533,-4.0523,-4.0534,-4.0515,-4.0504,-4.0496,-4.0496,-4.0496,-4.0496,-4.0496,-4.0496,-4.0496,-4.0496,-4.0496,-4.0496,-4.0496,-4.0496,-4.0496,-4.0496,-4.0496,-4.0496,-4.0496,-4.0496,-4.0496,-4.0496,-4.0496,-4.0496,-4.0496,-4.0496,-4.0496,-4.0496,-4.0496,-4.0496,-4.0496,-4.0496,-4.0496,-4.0496,-4.0496,-4.0496,-4.0496,-4.0496,-4.0496,-4.0496,-4.0496,-4.0496,-4.0496,-4.0496,-4.0496,-4.0496,-4.0496,-4.0496,-4.0496,-4.0496,-4.0496,-4.0496,-4.0496,-4.0496,-4.0481,-4.0457,-4.0481,-4.0319,-1.9436,0.0,0.0,0.0,0.0,0.0,-2.9806,0.0,-2.9237,-3.2467,-3.3495,-3.3807,-3.3807,-3.3902,-3.4097,-3.4493,-3.5167,-3.575,-3.5932,-3.6979,-3.7653,-3.7469,-3.7928,-3.831,-3.8455,-3.9051,-3.9489,-3.9595,-4.0164,-4.0496,-4.0496,-4.0496,-4.0496,-4.0496,-4.0496,-4.0496,-4.0496,-4.0496,-4.0496,-4.0496,-4.0496,-4.0496,-4.0496,-4.0496,-4.0547,-4.0635,-4.0635,-4.0617,-4.0602,-4.0602,-4.0552,-4.0496,-4.0496,-4.0496,-4.0496,-4.0496,-4.0496,-4.0496,-4.0496,-4.0496,-4.0496,-4.0496,-4.0496,-4.0496,-4.0496,-4.0496,-4.0496,-4.0496,-4.0496,-4.0496,-4.0496,-4.0496,-4.0496,-4.0496,-4.0496,-4.0496,-4.0496,-4.0496,-4.0496,-4.0496,-4.0496,-4.0496,-4.0496,-4.0496,-4.0496,-4.0496,-4.0496,-4.0496,-4.0496,-4.0496,-4.0496,-4.0496,-4.0496,-4.0496,-4.0496,-4.0496,-4.0496,-4.0496,-4.0496,-4.0496,-4.0496,-4.0496,-4.0441,-4.0286,-4.0414,-4.0496,-4.0496,-4.0496,-4.0414,-4.0286,-4.0286,-4.011,0.0,0.0,0.0,0.0,0.0,0.0,0.0,0.0,-2.7236,0.0,-3.2522,-3.3568,-3.3752,-3.3807,-3.3807,-3.3807,-3.4517,-3.4995,-3.4734,-3.582,-3.6555,-3.6303,-3.6682,-3.7017,-3.7171,-3.7935,-3.8518,-3.8654,-3.9418,-3.9861,-3.9861,-4.0073,-4.0208,-4.0208,-4.04,-4.0496,-4.0496,-4.0496,-4.0496,-4.0496,-4.0496,-4.0496,-4.0496,-4.0496,-4.0496,-4.0496,-4.0496,-4.0496,-4.0496,-4.0496,-4.0496,-4.0496,-4.0496,-4.0496,-4.0496,-4.0496,-4.0496,-4.0496,-4.0496,-4.0496,-4.0496,-4.0496,-4.0496,-4.0496,-4.0496,-4.0496,-4.0496,-4.0496,-4.0496,-4.0496,-4.0496,-4.0496,-4.0496,-4.0496,-4.0496,-4.0496,-4.0496,-4.0496,-4.0496,-4.0496,-4.0496,-4.0496,-4.0496,-4.0496,-4.0496,-4.0496,-4.0496,-4.0496,-4.0496,-4.0496,-4.0496,-4.0496,-4.0449,-4.0389,-4.0389,-4.0319,-4.0311,-4.0389,-4.0319,-4.0311,-4.0389,-4.0319,-4.0185,-3.9982,-4.0176,-4.0319,-4.0389,-4.0389,-4.0304,-4.0101,-4.0012,-3.9797,0.0,0.0,0.0,0.0,0.0,0.0,0.0,0.0,-2.3245,-2.7229,-3.0503,-3.2894,-3.366,-3.3807,-3.3807,-3.3807,-3.3839,-3.3889,-3.3862,-3.4587,-3.5115,-3.5087,-3.5831,-3.6557,-3.7065,-3.7149,-3.7432,-3.8001,-3.8096,-3.8123,-3.8123,-3.8911,-3.9361,-3.9361,-4.0092,-4.0496,-4.0496,-4.0496,-4.0496,-4.0496,-4.0496,-4.0496,-4.0496,-4.0496,-4.0496,-4.0496,-4.0496,-4.0496,-4.0496,-4.0496,-4.0496,-4.0496,-4.0496,-4.0496,-4.0496,-4.0496,-4.0496,-4.0496,-4.0496,-4.0496,-4.0496,-4.0496,-4.0496,-4.0496,-4.0496,-4.0496,-4.0496,-4.0496,-4.0496,-4.0496,-4.0496,-4.0496,-4.0496,-4.0496,-4.0496,-4.0496,-4.0496,-4.0496,-4.0496,-4.0496,-4.0496,-4.0496,-4.0496,-4.0496,-4.0496,-4.0496,-4.0496,-4.0496,-4.0496,-4.0496,-4.0496,-4.0496,-4.0267,-4.012,-4.012,-3.9829,-3.9786,-4.0101,-3.9819,-3.9797,-4.011,-3.9819,-3.9645,-3.9622,-3.9645,-3.9808,-4.012,-4.012,-4.011,-4.0091,-3.9775,-3.9457,0.0,0.0,0.0,0.0,-1.8177,-1.5864,-2.0692,-2.1794,-2.2363,-2.4318,-2.8503,-3.1604,-3.087,-3.2412,-3.3807,-3.3807,-3.3807,-3.3807,-3.3807,-3.4045,-3.4215,-3.4215,-3.4504,-3.4778,-3.4964,-3.5644,-3.6241,-3.6616,-3.5823,-3.6094,-3.7904,-3.6738,-3.6783,-3.8411,-3.9284,-3.9977,-4.0496,-4.0496,-4.0496,-4.0496,-4.0496,-4.0496,-4.0496,-4.0496,-4.0496,-4.0496,-4.0496,-4.0496,-4.0496,-4.0496,-4.0496,-4.0496,-4.0496,-4.0496,-4.0496,-4.0496,-4.0496,-4.0496,-4.0496,-4.0496,-4.0496,-4.0496,-4.0496,-4.0496,-4.0496,-4.0496,-4.0496,-4.0496,-4.0496,-4.0496,-4.0496,-4.0496,-4.0496,-4.0496,-4.0496,-4.0496,-4.0496,-4.0496,-4.0496,-4.0496,-4.0496,-4.0496,-4.0496,-4.0496,-4.0496,-4.0496,-4.0356,-4.0241,-4.0241,-4.0062,-3.9915,-3.9915,-3.984,-3.9775,-3.9775,-3.9668,-3.9645,-3.9775,-3.9668,-3.9645,-3.9775,-3.9656,-3.9505,-3.9276,-3.9486,-3.9656,-3.9775,-3.9775,-3.9775,-3.9775,-3.9445,-3.9212,-1.6456,0.0,0.0,0.0,0.0,-1.429,-1.8074,-2.0197,-2.1602,-2.2428,-2.7071,-3.0742,-2.9941,-3.1549,-3.3164,-3.3715,-3.3807,-3.3807,-3.3807,-3.3807,-3.3807,-3.3807,-3.3807,-3.3842,-3.3928,-3.4612,-3.5184,-3.5486,-3.4707,-3.5057,-3.6922,-3.576,-3.5949,-3.793,-3.8854,-3.9554,-4.0092,-4.0362,-4.0496,-4.0496,-4.0496,-4.0496,-4.0496,-4.0496,-4.0496,-4.0496,-4.0496,-4.0496,-4.0496,-4.0496,-4.0496,-4.0496,-4.0496,-4.0496,-4.0496,-4.0496,-4.0496,-4.0496,-4.0496,-4.0496,-4.0496,-4.0496,-4.0496,-4.0481,-4.0389,-4.0364,-4.0347,-4.023,-4.0193,-4.0193,-4.0193,-4.0193,-4.0193,-4.0193,-4.0193,-4.0193,-4.0193,-4.0353,-4.0496,-4.0496,-4.0433,-4.0389,-4.0481,-4.0433,-4.0364,-4.0364,-4.0204,-4.0071,-3.9962,-3.9742,-3.9599,-3.9599,-3.9505,-3.9426,-3.9426,-3.9352,-3.9339,-3.9432,-3.9352,-3.9339,-3.9445,-3.9352,-3.9184,-3.8975,-3.9171,-3.9288,-3.9288,-3.9383,-3.9426,-3.9414,-3.9104,-3.8975,0.0,0.0,0.0,0.0,0.0,0.0,-1.3335,0.0,-2.0676,-2.1519,-2.6153,-3.0301,-3.1121,-3.1323,-3.1892,-3.3476,-3.3752,-3.377,-3.3807,-3.3807,-3.3807,-3.3807,-3.3807,-3.3902,-3.4152,-3.4188,-3.4334,-3.4663,-3.4859,-3.5003,-3.5069,-3.6082,-3.7051,-3.7923,-3.8777,-3.9246,-3.9304,-4.0073,-4.0477,-4.0496,-4.0496,-4.0496,-4.0496,-4.0496,-4.0496,-4.0496,-4.0496,-4.0496,-4.0496,-4.0496,-4.0496,-4.0496,-4.0496,-4.0496,-4.0496,-4.0496,-4.0489,-4.0489,-4.0489,-4.0481,-4.0481,-4.0481,-4.0481,-4.0422,-4.0167,-4.0091,-4.0012,-3.9679,-3.9599,-3.9599,-3.9599,-3.9611,-3.9611,-3.9599,-3.9599,-3.9599,-3.9599,-4.0063,-4.0481,-4.0481,-4.0258,-4.0167,-4.0422,-4.025,-4.0091,-4.0091,-4.0081,-3.9943,-3.9622,-3.9576,-3.9576,-3.9576,-3.9276,-3.9085,-3.9085,-3.8859,-3.8818,-3.9072,-3.8826,-3.8833,-3.9072,-3.8844,-3.8707,-3.8707,-3.8707,-3.8707,-3.8707,-3.8961,-3.9085,-3.9085,-3.8815,-3.8707,-1.4493,0.0,0.0,0.0,0.0,0.0,-1.4169,0.0,-1.8823,-1.9069,-2.3189,-2.6972,-2.7787,-2.9347,-3.087,-3.1911,-3.2559,-3.3146,-3.3715,-3.3807,-3.3807,-3.3807,-3.3807,-3.3829,-3.3902,-3.3915,-3.4037,-3.4323,-3.2703,-3.2603,-3.4699,-3.528,-3.5922,-3.6733,-3.7183,-3.8027,-3.9284,-3.9515,-3.9919,-4.0496,-4.0496,-4.0496,-4.0496,-4.0496,-4.0496,-4.0496,-4.0496,-4.0496,-4.0496,-4.0496,-4.0496,-4.0496,-4.0496,-4.0496,-4.0496,-4.0496,-4.0372,-4.0204,-4.0204,-4.0053,-3.9853,-3.9853,-3.9853,-3.9832,-3.9746,-3.9742,-3.9731,-3.9622,-3.9599,-3.9599,-3.9599,-3.9775,-3.9901,-3.9656,-3.9599,-3.9599,-3.9599,-3.9735,-3.9853,-3.9853,-3.9778,-3.9757,-3.9832,-3.9778,-3.9742,-3.9742,-3.9541,-3.9339,-3.9238,-3.9073,-3.896,-3.896,-3.8859,-3.8818,-3.8818,-3.8732,-3.8735,-3.8818,-3.875,-3.8735,-3.8818,-3.875,-3.8707,-3.8707,-3.8707,-3.8707,-3.8707,-3.8758,-3.8818,-3.8818,-3.8735,-3.8707,0.0,0.0,0.0,0.0,0.0,0.0,-1.4493,-1.7179,-1.9638,-1.9638,-2.3511,-2.6741,-2.619,-2.7255,-2.8466,-2.9274,-2.9787,-3.0742,-3.254,-3.2797,-3.2926,-3.3256,-3.3311,-3.344,-3.377,-3.3807,-3.385,-3.4018,-3.2769,-3.2787,-3.4598,-3.486,-3.5144,-3.5609,-3.6106,-3.7024,-3.8362,-3.8744,-3.9336,-4.011,-4.011,-4.011,-4.011,-4.011,-4.0203,-4.033,-4.0194,-4.0212,-4.033,-4.0175,-4.0212,-4.0347,-4.0457,-4.0345,-4.0148,-4.0285,-4.0148,-3.9891,-3.9891,-3.9765,-3.9599,-3.9599,-3.9599,-3.9576,-3.9426,-3.9389,-3.9371,-3.9268,-3.9229,-3.9229,-3.9229,-3.9371,-3.947,-3.9268,-3.9229,-3.9229,-3.9229,-3.9229,-3.9288,-3.9552,-3.9493,-3.9445,-3.9576,-3.9474,-3.9389,-3.9389,-3.9244,-3.9044,-3.8947,-3.8803,-3.8707,-3.8707,-3.8707,-3.8707,-3.8707,-3.8707,-3.8707,-3.8707,-3.8707,-3.8707,-3.8707,-3.8707,-3.8707,-3.8707,-3.8707,-3.8707,-3.8707,-3.8707,-3.8707,-3.8707,-3.8707,-3.8707,0.0,0.0,0.0,0.0,-1.4493,0.0,-1.4493,-1.7876,-2.106,-2.1335,-2.4795,-2.7226,-2.5338,-2.4989,-2.5227,-2.5952,-2.608,-2.7218,-3.0534,-3.1231,-3.158,-3.2014,-3.2289,-3.2761,-3.3458,-3.3532,-3.3568,-3.366,-3.3963,-3.4288,-3.4591,-3.4632,-3.4643,-3.4643,-3.5373,-3.6149,-3.695,-3.7829,-3.8648,-3.9467,-3.9561,-3.9599,-3.9599,-3.9599,-3.9765,-4.0022,-3.9731,-3.9775,-4.0022,-3.9712,-3.9775,-4.0062,-4.0302,-4.0072,-3.9634,-3.9932,-3.9829,-3.9534,-3.9534,-3.9529,-3.9493,-3.9493,-3.9493,-3.9445,-3.9139,-3.9063,-3.9013,-3.8777,-3.8719,-3.875,-3.8707,-3.8719,-3.875,-3.8707,-3.8707,-3.8707,-3.8707,-3.8719,-3.8888,-3.9402,-3.9257,-3.9139,-3.9445,-3.9257,-3.9063,-3.9063,-3.9063,-3.8975,-3.8735,-3.8707,-3.8707,-3.8707,-3.8707,-3.8707,-3.8707,-3.8707,-3.8707,-3.8707,-3.8707,-3.8707,-3.8707,-3.8707,-3.8707,-3.8707,-3.8707,-3.8707,-3.8707,-3.8707,-3.8707,-3.8707,-3.8707,-3.8707,0.0,0.0,0.0,0.0,0.0,0.0,-1.4493,-1.5246,-1.6481,-1.8427,-1.9575,-2.0684,-2.2216,-2.2492,-2.2547,-2.2712,-2.2749,-2.4089,-2.7952,-3.0166,-3.0736,-2.8943,-3.0448,-3.1696,-3.1856,-3.1874,-3.2137,-3.2784,-3.3474,-3.3902,-3.3967,-3.4189,-3.43,-3.43,-3.4712,-3.5327,-3.613,-3.6961,-3.778,-3.8641,-3.929,-3.9599,-3.9599,-3.9599,-3.9634,-3.969,-3.9634,-3.9634,-3.9679,-3.9622,-3.9634,-3.9701,-3.9757,-3.9701,-3.9611,-3.9668,-3.9493,-3.9205,-3.9205,-3.9054,-3.8877,-3.8877,-3.8877,-3.8862,-3.8788,-3.8792,-3.8777,-3.8704,-3.8873,-3.8971,-3.8747,-3.8855,-3.8975,-3.8747,-3.8707,-3.8707,-3.8707,-3.8869,-3.8985,-3.8888,-3.8818,-3.8788,-3.8862,-3.8818,-3.8792,-3.8792,-3.8792,-3.8762,-3.8707,-3.8707,-3.8707,-3.8707,-3.8707,-3.8707,-3.8707,-3.8707,-3.8707,-3.8707,-3.8707,-3.8707,-3.8707,-3.8707,-3.8707,-3.8707,-3.8707,-3.8707,-3.8707,-3.8707,-3.8707,-3.8707,-3.8707,-3.8707,0.0,0.0,0.0,-1.4603,0.0,0.0,0.0,-1.5429,-1.664,-1.7851,-1.9087,-1.995,-1.995,-1.995,-1.995,-1.995,-1.995,-2.0666,-2.2685,-2.6109,-2.8551,-2.8943,-3.0063,-3.0962,-3.136,-3.1397,-3.1733,-3.2528,-3.2981,-3.3385,-3.377,-3.3941,-3.4012,-3.4012,-3.4153,-3.4628,-3.5441,-3.628,-3.7118,-3.797,-3.8777,-3.9154,-3.9154,-3.9154,-3.921,-3.9339,-3.9216,-3.9223,-3.9327,-3.9216,-3.9154,-3.9176,-3.9481,-3.9427,-3.9181,-3.9295,-3.9157,-3.8894,-3.8894,-3.88,-3.8707,-3.8707,-3.8707,-3.8707,-3.8707,-3.8707,-3.8707,-3.8707,-3.8803,-3.8869,-3.8735,-3.8803,-3.8869,-3.8735,-3.8707,-3.8707,-3.8707,-3.8818,-3.8855,-3.8719,-3.8707,-3.8707,-3.8707,-3.8707,-3.8707,-3.8707,-3.8707,-3.8707,-3.8707,-3.8707,-3.8707,-3.8707,-3.8707,-3.8707,-3.8707,-3.8707,-3.8707,-3.8707,-3.8707,-3.8707,-3.8707,-3.8707,-3.8707,-3.8707,-3.8707,-3.8707,-3.8707,-3.8707,-3.8707,-3.8707,-3.8707,-3.8707,0.0,0.0,0.0,0.0,0.0,-1.4493,0.0,0.0,0.0,-1.741,-1.8996,-1.9774,-1.7784,-1.741,-1.741,-1.741,-1.741,-1.7575,-1.8034,-2.15,-2.497,-2.7567,-2.8282,-2.8833,-2.9487,-3.0111,-3.0944,-3.2051,-3.2417,-3.2876,-3.3532,-3.3715,-3.3807,-3.3807,-3.3807,-3.4119,-3.4766,-3.5624,-3.645,-3.729,-3.8083,-3.856,-3.8707,-3.8707,-3.8833,-3.8994,-3.8788,-3.8815,-3.9013,-3.8788,-3.8707,-3.875,-3.9242,-3.9127,-3.8719,-3.8933,-3.8898,-3.8707,-3.8707,-3.8707,-3.8707,-3.8707,-3.8707,-3.8707,-3.8707,-3.8707,-3.8707,-3.8707,-3.8707,-3.8707,-3.8707,-3.8707,-3.8707,-3.8707,-3.8707,-3.8707,-3.8707,-3.875,-3.8762,-3.8704,-3.8732,-3.8762,-3.8723,-3.8707,-3.8707,-3.8707,-3.8707,-3.8707,-3.8707,-3.8707,-3.8707,-3.8707,-3.8707,-3.8707,-3.8707,-3.8707,-3.8707,-3.8707,-3.8707,-3.8707,-3.8707,-3.8707,-3.8707,-3.8707,-3.8707,-3.8707,-3.8707,-3.8707,-3.8707,-3.8707,-3.8707,-3.8707,0.0,0.0,0.0,0.0,-1.5031,-1.4493,-1.4493,0.0,-1.4915,-1.4915,0.0,-1.5246,-1.4952,0.0,0.0,-1.4915,-1.4915,-1.5668,-1.7796,-1.8574,-1.9069,-1.9436,-2.1427,-2.2786,-2.2877,-2.5474,-2.8081,-3.0301,-3.1794,-3.2638,-3.2729,-3.3421,-3.3807,-3.3807,-3.3807,-3.3844,-3.3935,-3.4729,-3.5573,-3.645,-3.7254,-3.8025,-3.8707,-3.8707,-3.8723,-3.8732,-3.8704,-3.8719,-3.8732,-3.8704,-3.8707,-3.8707,-3.878,-3.8765,-3.8707,-3.8735,-3.8719,-3.8707,-3.8707,-3.8707,-3.8707,-3.8707,-3.8707,-3.8707,-3.8707,-3.8707,-3.8707,-3.8707,-3.8707,-3.8707,-3.8707,-3.8707,-3.8707,-3.8707,-3.8707,-3.8707,-3.8707,-3.8898,-3.8985,-3.875,-3.888,-3.8971,-3.875,-3.8707,-3.8707,-3.8707,-3.8707,-3.8707,-3.8707,-3.8707,-3.8707,-3.8707,-3.8707,-3.8707,-3.8707,-3.8707,-3.8707,-3.8707,-3.8707,-3.8707,-3.8707,-3.8707,-3.8707,-3.8707,-3.8707,-3.8707,-3.8707,-3.8707,-3.8707,-3.8707,-3.8707,-3.8707,0.0,0.0,0.0,0.0,-1.7876,-1.7289,-1.7289,-1.5839,-1.4493,-1.4493,0.0,0.0,0.0,0.0,0.0,0.0,-1.4493,-1.486,-1.5869,-1.6016,-1.7062,-1.9921,-2.117,-2.2345,-2.374,-2.385,-2.5016,-2.7886,-2.873,-2.9537,-3.0454,-3.2161,-3.333,-3.3788,-3.3807,-3.3807,-3.3807,-3.4601,-3.5445,-3.6303,-3.7125,-3.7918,-3.8707,-3.8707,-3.8707,-3.8707,-3.8707,-3.8707,-3.8707,-3.8707,-3.8707,-3.8707,-3.8707,-3.8707,-3.8707,-3.8707,-3.8707,-3.8707,-3.8707,-3.8707,-3.8707,-3.8707,-3.8707,-3.8707,-3.8707,-3.8707,-3.8707,-3.8707,-3.8707,-3.8707,-3.8707,-3.8707,-3.8707,-3.8707,-3.8707,-3.8707,-3.8707,-3.8788,-3.8829,-3.8719,-3.8788,-3.8829,-3.8719,-3.8707,-3.8707,-3.8707,-3.8707,-3.8707,-3.8707,-3.8707,-3.8707,-3.8707,-3.8707,-3.8707,-3.8707,-3.8707,-3.8707,-3.8707,-3.8707,-3.8707,-3.8707,-3.8707,-3.8707,-3.8707,-3.8707,-3.8707,-3.8707,-3.8707,-3.8707,-3.8707,-3.8707,-3.8707,-2.2786,-2.2951,-2.2473,-2.118,-2.0244,-1.9399,-1.8507,-1.65,-1.4769,-1.4548,-1.4493,0.0,0.0,0.0,-1.4493,-1.4493,0.0,-1.4493,-1.4493,-1.4493,-1.5802,-1.929,-2.0297,-2.1412,-2.3226,-2.2437,-2.2767,-2.5107,-2.6098,-2.7115,-2.829,-3.1041,-3.2858,-3.3458,-3.3697,-3.3807,-3.3807,-3.438,-3.522,-3.6303,-3.6905,-3.7713,-3.8707,-3.8707,-3.8707,-3.8707,-3.8707,-3.8707,-3.8707,-3.8707,-3.8707,-3.8707,-3.8707,-3.8707,-3.8707,-3.8707,-3.8707,-3.8707,-3.8707,-3.8707,-3.8707,-3.8707,-3.8707,-3.8707,-3.8707,-3.8707,-3.8707,-3.8707,-3.8707,-3.8707,-3.8707,-3.8707,-3.8707,-3.8707,-3.8707,-3.8707,-3.8707,-3.8707,-3.8707,-3.8707,-3.8707,-3.8707,-3.8707,-3.8707,-3.8707,-3.8707,-3.8707,-3.8707,-3.8707,-3.8707,-3.8707,-3.8707,-3.8707,-3.8707,-3.8707,-3.8707,-3.8707,-3.8707,-3.8707,-3.8707,-3.8707,-3.8707,-3.8707,-3.8707,-3.8707,-3.8707,-3.8707,-3.8707,-3.8707,-3.8707,-3.8707,-3.8707,-2.6418,-2.5878,-2.4713,-2.2345,-2.1106,-1.9649,-1.6536,-1.5735,-1.5435,-1.4658,-1.4493,-1.4493,-1.4493,-1.4493,0.0,0.0,0.0,0.0,0.0,-1.4493,-1.449,-1.4443,-1.6501,-1.8035,-1.832,-2.0435,-2.1831,-2.1941,-2.4832,-2.662,-2.6675,-3.0436,-3.2601,-3.2638,-3.3385,-3.3807,-3.3807,-3.3825,-3.4669,-3.6303,-3.6321,-3.7165,-3.8707,-3.8707,-3.8707,-3.8707,-3.8707,-3.8707,-3.8707,-3.8707,-3.8707,-3.8707,-3.8707,-3.8707,-3.8707,-3.8707,-3.8707,-3.8707,-3.8707,-3.8707,-3.8707,-3.8707,-3.8707,-3.8707,-3.8707,-3.8707,-3.8707,-3.8707,-3.8707,-3.8707,-3.8707,-3.8707,-3.8707,-3.8707,-3.8707,-3.8707,-3.8707,-3.8707,-3.8707,-3.8707,-3.8707,-3.8707,-3.8707,-3.8707,-3.8707,-3.8707,-3.8707,-3.8707,-3.8707,-3.8707,-3.8707,-3.8707,-3.8707,-3.8707,-3.8707,-3.8707,-3.8707,-3.8707,-3.8707,-3.8707,-3.8707,-3.8707,-3.8707,-3.8707,-3.8707,-3.8707,-3.8707,-3.8707,-3.8707,-3.8707,-3.8707,-3.8707,-2.8558,-2.8778,-2.8374,-2.7567,-2.5529,-2.3465,-2.2363,-1.8783,-1.5625,-1.5343,-1.486,-1.4493,-1.4493,-1.4493,0.0,0.0,0.0,0.0,0.0,-1.427,-1.4089,-1.4011,-1.4963,-1.621,-1.7759,-1.7336,-1.7638,-1.9234,-2.0354,-2.1216,-2.173,-2.6631,-2.9677,-3.0198,-3.2559,-3.3807,-3.3807,-3.3807,-3.4633,-3.6303,-3.6303,-3.7147,-3.8707,-3.8707,-3.8707,-3.8707,-3.8707,-3.8707,-3.8707,-3.8707,-3.8707,-3.8707,-3.8707,-3.8707,-3.8707,-3.8707,-3.8707,-3.8707,-3.8707,-3.8707,-3.8707,-3.8707,-3.8707,-3.8707,-3.8707,-3.8707,-3.8707,-3.8707,-3.8707,-3.8707,-3.8707,-3.8707,-3.8707,-3.8707,-3.8707,-3.8707,-3.8707,-3.8707,-3.8707,-3.8707,-3.8707,-3.8707,-3.8707,-3.8707,-3.8707,-3.8707,-3.8707,-3.8707,-3.8707,-3.8707,-3.8707,-3.8707,-3.8707,-3.8707,-3.8707,-3.8707,-3.8707,-3.8707,-3.8707,-3.8707,-3.8707,-3.8707,-3.8707,-3.8707,-3.8707,-3.8707,-3.8707,-3.8707,-3.8707,-3.8707,-3.8707,-3.8707,-3.1054,-3.1476,-3.1274,-3.0411,-2.8631,-2.6806,-2.565,-2.2161,-1.8985,-1.8408,-1.7869,-1.7172,-1.5998,-1.5778,-1.5502,0.0,0.0,0.0,0.0,-1.4058,-1.386,-1.3795,-1.4795,-1.5767,-1.6457,-1.6005,-1.5994,-1.6768,-1.7612,-1.8335,-1.8856,-2.4281,-2.7732,-2.8546,-3.1696,-3.3513,-3.3807,-3.3807,-3.4486,-3.5844,-3.6156,-3.6982,-3.8285,-3.8579,-3.8707,-3.8707,-3.8707,-3.8707,-3.8707,-3.8707,-3.8707,-3.8707,-3.8707,-3.8707,-3.8707,-3.8707,-3.8707,-3.8707,-3.8707,-3.8707,-3.8707,-3.8707,-3.8707,-3.8707,-3.8707,-3.8707,-3.8707,-3.8707,-3.8707,-3.8707,-3.8707,-3.8707,-3.8707,-3.8707,-3.8707,-3.8707,-3.8707,-3.8707,-3.8707,-3.8707,-3.8707,-3.8707,-3.8707,-3.8707,-3.8707,-3.8707,-3.8707,-3.8707,-3.8707,-3.8707,-3.8707,-3.8707,-3.8707,-3.8707,-3.8707,-3.8707,-3.8707,-3.8707,-3.8707,-3.8707,-3.8707,-3.8707,-3.8707,-3.8707,-3.8707,-3.8707,-3.8707,-3.8707,-3.8707,-3.8707,-3.8707,-3.8707]},{"header":{"parameterUnit":"m.s-1","parameterCategory":1,"la1":30.6,"la2":29.2853,"lo1":-89.7004,"lo2":-87.6739,"dy":0.0162,"dx":0.0183,"nx":112,"ny":82,"refTime":"2023-05-04T00:00:00:Z","depth":0,"parameterNumber":3,"parameterNumberName":"V-component_of_WINDS"},"data":[0.0,0.0,0.0,0.0,0.0,0.0,0.0,0.0,0.0,0.0,0.0,0.0,0.0,0.0,0.0,0.0,0.0,0.0,0.0,0.0,0.0,0.0,0.0,0.0,0.0,0.0,0.0,0.0,0.0,0.0,0.0,0.0,0.0,0.0,0.0,0.0,0.0,0.0,0.0,0.0,0.0,0.0,0.0,0.0,0.0,0.0,0.0,0.0,0.0,0.0,0.0,0.0,0.0,0.0,0.0,0.0,0.0,0.0,0.0,0.0,0.0,0.0,0.0,0.0,0.0,0.0,0.0,0.0,0.0,0.0,0.0,0.0,0.0,0.0,0.0,0.0,0.0,0.0,0.0,0.0,0.0,0.0,0.0,0.0,0.0,0.0,0.0,0.0,0.0,0.0,0.8684,1.0877,1.2082,1.2774,1.2881,1.2905,1.2024,0.9927,0.0,0.0,0.0,0.0,0.0,0.0,0.0,0.0,0.0,0.0,0.0,0.0,0.0,0.0,0.0,0.0,0.0,0.0,0.0,0.0,0.0,0.0,0.0,0.0,0.0,0.0,0.0,0.0,0.0,0.0,0.0,0.0,0.0,0.0,0.0,0.0,0.0,0.0,0.0,0.0,0.0,0.0,0.0,0.0,0.0,0.0,0.0,0.0,0.0,0.0,0.0,0.0,0.0,0.0,0.0,0.0,0.0,0.0,0.0,0.0,0.0,0.0,0.0,0.0,0.0,0.0,0.0,0.0,0.0,0.0,0.0,0.0,0.0,0.0,0.0,0.0,0.0,0.0,0.0,0.0,0.0,0.0,0.0,0.0,0.0,0.0,0.0,0.0,0.0,0.0,0.0,0.0,0.0,0.0,0.0,0.0,0.0,0.0,0.0,0.0,0.0,0.0,0.0,0.0,0.8984,1.1414,1.1849,1.2212,1.2856,1.2905,1.2139,1.0332,0.0,0.0,0.0,0.0,0.0,0.0,0.0,0.0,0.0,0.0,0.0,0.0,0.0,0.0,0.0,0.0,0.0,0.0,0.0,0.0,0.0,0.0,0.0,0.0,0.0,0.0,0.0,0.0,0.0,0.0,0.0,0.0,0.0,0.0,0.0,0.0,0.0,0.0,0.0,0.0,0.0,0.0,0.0,0.0,0.0,0.0,0.0,0.0,0.0,0.0,0.0,0.0,0.0,0.0,0.0,0.0,0.0,0.0,0.0,0.0,0.0,0.0,0.0,0.0,0.0,0.0,0.0,0.0,0.0,0.0,0.0,0.0,0.0,0.0,0.0,0.0,0.0,0.0,0.0,0.0,0.0,0.0,0.0,0.0,0.0,0.0,0.0,0.0,0.0,0.0,0.0,0.0,0.0,0.0,0.0,0.0,0.0,0.0,0.0,0.0,0.0,0.0,0.0,0.8135,1.0134,1.1635,1.1789,1.2104,1.2847,1.2905,1.2162,1.041,1.0127,0.0,0.0,0.0,0.0,0.0,0.0,0.0,0.0,0.0,0.0,0.0,0.0,0.0,0.0,0.0,0.0,0.0,0.0,0.0,0.0,0.0,0.0,0.0,0.0,0.0,0.0,0.0,0.0,0.0,0.0,0.0,0.0,0.0,0.0,0.0,0.0,0.0,0.0,0.0,0.0,0.0,0.0,0.0,0.0,0.0,0.0,0.0,0.0,0.0,0.0,0.0,0.0,0.0,0.0,0.0,0.0,0.0,0.0,0.0,0.0,0.0,0.0,0.0,0.0,0.0,0.0,0.0,0.0,0.0,0.0,0.0,0.0,0.0,0.0,0.0,0.0,0.0,0.0,0.0,0.0,0.0,0.0,0.0,0.0,0.0,0.0,0.0,0.0,0.0,0.0,0.0,0.0,0.0,0.0,0.0,0.0,0.0,0.0,0.0,0.0,0.0,0.0,0.8959,1.0482,1.1465,1.1566,1.1931,1.2822,1.2905,1.2162,1.041,1.0303,0.0,0.0,0.0,0.0,0.0,0.0,0.0,0.0,0.0,0.0,0.0,0.0,0.0,0.0,0.0,0.0,0.0,0.0,0.0,0.0,0.0,0.0,0.0,0.0,0.0,0.0,0.0,0.0,0.0,0.0,0.0,0.0,0.0,0.0,0.0,0.0,0.0,0.0,0.0,0.0,0.0,0.0,0.0,0.0,0.0,0.0,0.0,0.0,0.0,0.0,0.0,0.0,0.0,0.0,0.0,0.0,0.0,0.0,0.0,0.0,0.0,0.0,0.0,0.0,0.0,0.0,0.0,0.0,0.0,0.0,0.0,0.0,0.0,0.0,0.0,0.0,0.0,0.0,0.0,0.0,0.0,0.0,0.0,0.0,0.0,0.0,0.0,0.0,0.0,0.0,0.0,0.0,0.0,0.0,0.0,0.0,0.0,0.0,0.0,0.0,0.0,0.0,0.7659,0.881,1.0663,1.0864,1.1434,1.2774,1.2905,1.2162,1.041,1.0303,0.0,0.0,0.0,0.0,0.0,0.0,0.0,0.0,0.0,0.0,0.0,0.0,0.0,0.0,0.0,0.0,0.0,0.0,0.0,0.0,0.0,0.0,0.0,0.0,0.0,0.0,0.0,0.0,0.0,0.0,0.0,0.0,0.0,0.0,0.0,0.0,0.0,0.0,0.0,0.0,0.0,0.0,0.0,0.0,0.0,0.0,0.0,0.0,0.0,0.0,0.0,0.0,0.0,0.0,0.0,0.0,0.0,0.0,0.0,0.0,0.0,0.0,0.0,0.0,0.0,0.0,0.0,0.0,0.0,0.0,0.0,0.0,0.0,0.0,0.0,0.0,0.0,0.0,0.0,0.0,0.0,0.0,0.0,0.0,0.0,0.0,0.0,0.0,0.0,0.0,0.0,0.0,0.0,0.0,0.0,0.0,0.0,0.0,0.0,0.0,0.0,0.0,0.7514,0.8901,1.0041,1.0534,1.1166,1.2138,1.2642,1.2162,1.041,0.0,0.0,0.0,0.0,0.0,0.0,0.0,0.0,0.0,0.0,0.0,0.0,0.0,0.0,0.0,0.0,0.0,0.0,0.0,0.0,0.0,0.0,0.0,0.0,0.0,0.0,0.0,0.0,0.0,0.0,0.0,0.0,0.0,0.0,0.0,0.0,0.0,0.0,0.0,0.0,0.0,0.0,0.0,0.0,0.0,0.0,0.0,0.0,0.0,0.0,0.0,0.0,0.0,0.0,0.0,0.0,0.0,0.0,0.0,0.0,0.0,0.0,0.0,0.0,0.0,0.0,0.0,0.0,0.0,0.0,0.0,0.0,0.0,0.0,0.0,0.0,0.0,0.0,0.0,0.0,0.0,0.0,0.0,0.0,0.0,0.0,0.0,0.0,0.0,0.0,0.0,0.0,0.0,0.0,0.0,0.0,0.0,0.0,0.0,0.0,0.0,0.0,0.591,0.7602,0.9061,0.9744,1.0218,1.0838,1.1715,1.2261,1.1857,1.0213,0.0,0.0,0.0,0.0,0.0,0.0,0.0,0.0,0.0,0.0,0.0,0.0,0.0,0.0,0.0,0.0,0.0,0.0,0.0,0.0,0.0,0.0,0.0,0.0,0.0,0.0,0.0,0.0,0.0,0.0,0.0,0.0,0.0,0.0,0.0,0.0,0.0,0.0,0.0,0.0,0.0,0.0,0.0,0.0,0.0,0.0,0.0,0.0,0.0,0.0,0.0,0.0,0.0,0.0,0.0,0.0,0.0,0.0,0.0,0.0,0.0,0.0,0.0,0.0,0.0,0.0,0.0,0.0,0.0,0.0,0.0,0.0,0.0,0.0,0.0,0.0,0.0,0.0,0.0,0.0,0.0,0.0,0.0,0.0,0.0,0.0,0.0,0.0,0.0,0.0,0.0,0.0,0.0,0.0,0.0,0.0,0.0,0.0,0.0,0.0,0.0,0.0,0.6343,0.7796,0.9061,0.971,0.9788,1.0338,1.1665,1.1789,1.1194,0.0,0.0,0.0,0.0,0.0,0.0,0.0,0.0,0.0,0.0,0.0,0.0,0.0,0.0,0.0,0.0,0.0,0.0,0.0,0.0,0.0,0.0,0.0,0.0,0.0,0.0,0.0,0.0,0.0,0.0,0.0,0.0,0.0,0.0,0.0,0.0,0.0,0.0,0.0,0.0,0.0,0.0,0.0,0.0,0.0,0.0,0.0,0.0,0.0,0.0,0.0,0.0,0.0,0.0,0.0,0.0,0.0,0.0,0.0,0.0,0.0,0.0,0.0,0.0,0.0,0.0,0.0,0.0,0.0,0.0,0.0,0.0,0.0,0.0,0.0,0.0,0.0,0.0,0.0,0.0,0.0,0.0,0.0,0.0,0.0,0.0,0.0,0.0,0.0,0.0,0.0,0.0,0.0,0.0,0.0,0.0,0.0,0.0,0.0,0.0,0.0,0.0,0.0,0.5889,0.7602,0.8883,0.9087,0.951,0.9961,1.0364,1.0813,1.0488,0.9093,0.0,0.0,0.0,0.0,0.0,0.0,0.0,0.0,0.0,0.0,0.0,0.0,0.0,0.0,0.0,0.0,0.0,0.0,0.0,0.0,0.0,0.0,0.0,0.0,0.0,0.0,0.0,0.0,0.0,0.0,0.0,0.0,0.0,0.0,0.0,0.0,0.0,0.0,0.0,0.0,0.0,0.0,0.0,0.0,0.0,0.0,0.0,0.0,0.0,0.0,0.0,0.0,0.0,0.0,0.0,0.0,0.0,0.0,0.0,0.0,0.0,0.0,0.0,0.0,0.0,0.0,0.0,0.0,0.0,0.0,0.0,0.0,0.0,0.0,0.0,0.0,0.0,0.0,0.0,0.0,0.0,0.0,0.0,0.0,0.0,0.0,0.0,0.0,0.0,0.0,0.0,0.0,0.0,0.0,0.0,0.0,0.0,0.0,0.0,0.0,0.0,0.0,0.5696,0.7523,0.8804,0.8804,0.9159,0.9517,0.9788,1.0167,0.9938,0.8855,0.0,0.0,0.0,0.0,0.0,0.0,0.0,0.0,0.0,0.0,0.0,0.0,0.0,0.0,0.0,0.0,0.0,0.0,0.0,0.0,0.0,0.0,0.0,0.0,0.0,0.0,0.0,0.0,0.0,0.0,0.0,0.0,0.0,0.0,0.0,0.0,0.0,0.0,0.0,0.0,0.0,0.0,0.0,0.0,0.0,0.0,0.0,0.0,0.0,0.0,0.0,0.0,0.0,0.0,0.0,0.0,0.0,0.0,0.0,0.0,0.0,0.0,0.0,0.0,0.0,0.0,0.0,0.0,0.0,0.0,0.0,0.0,0.0,0.0,0.0,0.0,0.0,0.0,0.0,0.0,0.0,0.0,0.0,0.0,0.0,0.0,0.0,0.0,0.0,0.0,0.0,0.0,0.0,0.0,0.0,0.0,0.0,0.0,0.0,0.0,0.0,0.0,0.5696,0.7523,0.8804,0.8804,0.8804,0.9035,0.9666,0.9718,0.9462,0.8856,0.0,0.0,0.0,0.0,0.0,0.0,0.0,0.0,0.0,0.0,0.0,0.0,0.0,0.0,0.0,0.0,0.0,0.0,0.0,0.0,0.0,0.0,0.0,0.0,0.0,0.0,0.0,0.0,0.0,0.0,0.0,0.0,0.0,0.0,0.0,0.0,0.0,0.0,0.0,0.0,0.0,0.0,0.0,0.0,0.0,0.0,0.0,0.0,0.0,0.0,0.0,0.0,0.0,0.0,0.0,0.0,0.0,0.0,0.0,0.0,0.0,0.0,0.0,0.0,0.0,0.0,0.0,0.0,0.0,0.0,0.0,0.0,0.0,0.0,0.0,0.0,0.0,0.0,0.0,0.0,0.0,0.0,0.0,0.0,0.0,0.0,0.0,0.0,0.0,0.0,0.0,0.0,0.0,0.0,0.0,0.0,0.0,0.0,0.0,0.0,0.0,0.0,0.5696,0.7523,0.8804,0.8804,0.8804,0.8857,0.9008,0.9008,0.8755,0.8146,0.8012,0.0,0.0,0.0,0.0,0.0,0.0,0.0,0.0,0.0,0.0,0.0,0.0,0.0,0.0,0.0,0.0,0.0,0.0,0.0,0.0,0.0,0.0,0.0,0.0,0.0,0.0,0.0,0.0,0.0,0.0,0.0,0.0,0.0,0.0,0.0,0.0,0.0,0.0,0.0,0.0,0.0,0.0,0.0,0.0,0.0,0.0,0.0,0.0,0.0,0.0,0.0,0.0,0.0,0.0,0.0,0.0,0.0,0.0,0.0,0.0,0.0,0.0,0.0,0.0,0.0,0.0,0.0,0.0,0.0,0.0,0.0,0.0,0.0,0.0,0.0,0.0,0.0,0.0,0.0,0.0,0.0,0.0,0.0,0.0,0.0,0.0,0.0,0.0,0.0,0.0,0.0,0.0,0.0,0.0,0.0,0.0,0.0,0.0,0.0,0.0,0.0,0.5051,0.6952,0.8262,0.8262,0.8593,0.8804,0.8804,0.8804,0.8677,0.8345,0.8065,0.0,0.0,0.0,0.0,0.0,0.0,0.0,0.0,0.0,0.0,0.0,0.0,0.0,0.0,0.0,0.0,0.0,0.0,0.0,0.0,0.0,0.0,0.0,0.0,0.0,0.0,0.0,0.0,0.0,0.0,0.0,0.0,0.0,0.0,0.0,0.0,0.0,0.0,0.0,0.0,0.0,0.0,0.0,0.0,0.0,0.0,0.0,0.0,0.0,0.0,0.0,0.0,0.0,0.0,-0.0072,-0.0239,-0.086,-0.0883,-0.0478,-0.046,-0.0296,0.0,-0.0136,0.0,0.0,0.0,0.0,0.0,0.0,0.0,0.0,0.0,0.0,0.0,0.0,0.0,0.0,0.0,0.0,0.0,0.0,0.0,0.0,0.0,0.0,0.1435,0.1287,0.1272,0.1241,0.1095,0.0,0.0,0.0,0.0,0.0,0.0,0.0,0.0,0.0,0.0,0.0,0.4366,0.6216,0.7503,0.7503,0.8156,0.8619,0.8619,0.8725,0.8804,0.8804,0.8325,0.827,0.0,0.0,0.0,0.0,0.0,0.0,0.0,0.0,0.0,0.0,0.0,0.0,0.0,0.0,0.0,0.0,0.0,0.0,0.0,0.0,0.0,0.0,0.0,0.0,0.0,0.0,0.0,0.0,0.0,0.0,0.0,0.0,0.2049,0.1826,0.0,0.0,0.0,0.0,0.0,0.0,0.0,0.0,0.0,0.0,0.0,0.0,0.0,0.0,0.0,0.0,0.0,0.0,0.0,-0.0386,-0.1128,-0.1217,-0.1661,-0.2332,-0.2336,0.0,-0.005,-0.0695,0.0,0.0,0.0,0.0,0.0,0.0,0.0,0.0,0.0,0.0,0.0,0.0,0.0,0.0,0.0,0.0,0.0,0.0,0.0,0.0,0.0,0.0,0.1907,0.1276,0.1118,0.0961,0.0296,0.0766,0.1322,0.1388,0.1385,0.1383,0.0,0.0,0.0,0.0,0.0,0.0,0.4366,0.578,0.675,0.675,0.7396,0.7857,0.7857,0.8427,0.8804,0.8804,0.8731,0.8489,0.8038,0.9097,0.0,0.0,0.0,0.0,0.0,0.0,0.0,0.0,0.0,0.0,0.0,0.0,0.0,0.0,0.0,0.0,0.0,0.0,0.0,0.0,0.0,0.0,0.0,0.0,0.0,0.0,0.0,0.0,0.0,0.2812,0.2589,0.1787,0.1595,0.1145,0.0,0.0,0.0,0.0,0.0,0.0,0.0,0.0,0.0,0.0,0.0,0.0,0.0,-0.0477,-0.0729,-0.074,-0.1329,-0.1828,-0.2205,-0.2691,-0.2879,-0.2859,-0.368,-0.3085,-0.1493,-0.1303,-0.1654,-0.2223,0.0,0.0,0.0,0.0,-0.0409,0.0,0.0,0.0,0.0,0.0,0.0,0.0,0.0,0.0,0.0,0.0,0.0,0.0476,0.0474,0.073,0.0879,0.0555,0.0493,0.0405,0.0084,0.0303,0.0644,0.0905,0.0964,0.0957,0.0966,0.096,0.0,0.0,0.0,0.2628,0.3353,0.4559,0.5529,0.5928,0.6637,0.7262,0.767,0.7996,0.8348,0.8778,0.8804,0.884,0.8962,0.9141,0.8859,0.0,0.0,0.0,0.0,0.0,0.0,0.0,0.0,0.0,0.0,0.0,0.0,0.0,0.0,0.0,0.0,0.0,0.0,0.0,0.0,0.0,0.0,0.0,0.0,0.0,0.0,0.0,0.0,0.2848,0.2628,0.1715,0.1628,0.1211,0.0,0.0,0.0,0.0,0.0,0.0,0.0,0.0,0.0,0.0,0.0,-0.0145,-0.0412,-0.1047,-0.149,-0.1772,-0.2563,-0.3082,-0.3315,-0.3996,-0.4056,-0.3711,-0.4805,-0.4584,-0.3414,-0.2366,-0.2519,-0.3303,-0.1915,-0.1824,-0.2366,-0.1645,-0.0936,-0.0333,-0.0323,-0.0196,0.0,0.0,0.0,0.0,0.0,0.0,0.0,0.0,0.0,0.0,0.0,0.0,0.0,0.0,0.0,0.0,0.0,0.0,0.0103,0.0466,0.0512,0.0521,0.053,0.0532,0.0,0.0407,0.0789,0.1416,0.231,0.341,0.4323,0.4882,0.576,0.6529,0.7095,0.7316,0.7643,0.8209,0.8401,0.8732,0.9242,0.9126,0.8994,0.8887,0.0,0.0,0.0,0.0,0.0,0.0,0.0,0.0,0.0,0.0,0.0,0.0,0.0,0.0,0.0,0.0,0.0,0.0,0.0,0.0,0.0,0.0,0.0,0.0,0.0,0.0,0.0,0.0,0.0,0.1566,0.0728,0.0,0.0,0.0,0.0,0.0,0.0,0.0,0.0,0.0,0.0,0.0,0.0,-0.0504,-0.1495,-0.1566,-0.2057,-0.3027,-0.3067,-0.357,-0.4431,-0.4472,-0.4905,-0.5659,-0.573,-0.5727,-0.5531,-0.4226,-0.3727,-0.3739,-0.3339,-0.3385,-0.3684,-0.3363,-0.2403,-0.1245,-0.1243,-0.0694,0.0,0.0,0.0,0.0,0.0,0.0,0.0,0.0,0.0,0.0,0.0,0.0,0.0,0.0,0.0,0.0,0.0,0.0,0.0,0.0028,0.0026,0.0025,0.0025,0.0,0.0121,0.0363,0.0794,0.1243,0.1597,0.2639,0.337,0.3398,0.469,0.5569,0.5597,0.6253,0.6669,0.6696,0.7369,0.7777,0.7803,0.9059,0.9451,0.8817,0.8562,0.0,0.0,0.0,0.0,0.0,0.0,0.0,0.0,0.0,0.0,0.0,0.0,0.0,0.0,0.0,0.0,0.0,0.0,0.0,0.0,0.0,0.0,0.0,0.0,0.0,0.0,0.0,0.0,0.1606,0.1073,0.0,0.0052,0.0,0.0,0.0,0.0,0.0,0.0,0.0,0.0,0.0,-0.0682,-0.1214,-0.159,-0.2856,-0.3628,-0.4025,-0.4648,-0.5129,-0.5467,-0.5595,-0.5738,-0.5912,-0.5912,-0.5891,-0.575,-0.5293,-0.5073,-0.4944,-0.3574,-0.3463,-0.3908,-0.253,-0.1722,-0.1221,-0.0656,-0.0272,0.0,0.0,0.0,0.0,0.0,0.0,0.0,0.0,0.0,0.0,0.0,0.0,0.0,0.0,0.0,0.0,0.0,0.0,0.0,0.0,0.0,0.0,0.0,0.0,0.0027,0.0125,0.0297,0.0603,0.1189,0.163,0.2287,0.3384,0.39,0.456,0.5611,0.5807,0.6091,0.6561,0.6858,0.7208,0.767,0.8196,0.8573,0.8804,0.8719,0.8156,0.0,0.0,0.0,0.0,0.0,0.0,0.0,0.0,0.0,0.0,0.0,0.0,0.0,0.0,0.0,0.0,0.0,0.0,0.0,0.0,0.0,0.0,0.0,0.0,0.0,0.2231,0.1921,0.1699,0.1113,0.055,0.0057,0.0,0.0,0.0,0.0,0.0,0.0,0.0,0.0,0.0,-0.1046,-0.1752,-0.2098,-0.3745,-0.4755,-0.5098,-0.5792,-0.6108,-0.6112,-0.6252,-0.6122,-0.5888,-0.6044,-0.5962,-0.5742,-0.5895,-0.5956,-0.5815,-0.4426,-0.4233,-0.4591,-0.3302,-0.2413,-0.1665,-0.0425,0.0,0.0,0.0,0.0,0.0,0.0,0.0,0.0,0.0,0.0,0.0,0.0,0.0,0.0,0.0,0.0,0.0,0.0,0.0,0.0,0.0,0.0,0.0,0.0,0.0,0.0,0.0,0.0,0.0168,0.0671,0.095,0.1525,0.2636,0.3132,0.3801,0.4872,0.4938,0.5216,0.5842,0.5979,0.6295,0.6923,0.7076,0.7412,0.7967,0.7942,0.7699,0.7234,0.0,0.0,0.0,0.0,0.0,0.0,0.0,0.0,0.0,0.0,0.0,0.0,0.0,0.0,0.0,0.0,0.0,0.0,0.0,0.0,0.0,0.0,0.0,0.274,0.2084,0.1662,0.1812,0.0731,0.0,0.0,0.0,0.0,0.0,0.0,0.0,0.0,0.0,0.0,0.0,-0.1088,-0.2128,-0.3083,-0.418,-0.5269,-0.63,-0.63,-0.63,-0.63,-0.63,-0.6061,-0.5637,-0.6108,-0.605,-0.5644,-0.6119,-0.63,-0.6269,-0.5925,-0.581,-0.5806,-0.5767,-0.4532,-0.2614,-0.0689,-0.0036,-0.0036,0.0,0.0,0.0,0.0,0.0,0.0,0.0,0.0,0.0,0.0,0.0,0.0,0.0,0.0,0.0,0.0,0.0,0.0,0.0,0.0,0.0,0.0,0.0,0.0,0.0,0.0,0.0,0.0,0.0628,0.107,0.1097,0.2372,0.3248,0.3314,0.3599,0.3988,0.446,0.4741,0.5073,0.549,0.5844,0.6161,0.647,0.6314,0.6969,0.8459,0.0,0.0,0.0,0.0,0.0,0.0,0.0,0.0,0.0,0.0,0.0,0.0,0.0,0.0,0.0,0.0,0.0,0.0,0.0,0.0,0.0,0.3563,0.3755,0.3666,0.2547,0.1872,0.2278,0.0939,0.0,0.0,0.0,0.0,0.0,0.0,0.0,0.0,0.0,0.0,0.0,-0.1751,-0.2821,-0.3084,-0.493,-0.6021,-0.63,-0.63,-0.63,-0.63,-0.63,-0.6231,-0.6119,-0.6245,-0.6228,-0.6122,-0.6248,-0.63,-0.6279,-0.6044,-0.5929,-0.5842,-0.5107,-0.4097,-0.281,-0.1225,-0.0867,-0.1019,-0.0255,0.0,0.0,0.0,0.0,0.0,0.0,0.0,0.0,0.0,0.0,0.0,0.0,0.0,0.0,0.0,0.0,0.0,0.0,0.0,0.0,0.0,0.0,0.0,0.0,0.0,0.0,0.0,0.0188,0.0539,0.1169,0.1511,0.2192,0.3412,0.3524,0.3796,0.4467,0.4559,0.4885,0.5479,0.6091,0.6964,0.8126,0.7487,0.7351,0.0,0.0,0.0,0.0,0.0,0.0,0.0,0.0,0.0,0.0,0.0,0.0,0.0,0.0,0.0,0.0,0.0,0.0,0.0,0.0,0.0,0.0,0.3991,0.4439,0.4568,0.3143,0.2248,0.2607,0.1078,0.0,0.0,0.0,0.0,0.0,0.0,0.0,0.0,0.0,-0.0104,-0.0303,-0.2103,-0.3192,-0.3382,-0.5322,-0.63,-0.63,-0.63,-0.633,-0.6388,-0.6388,-0.632,-0.6173,-0.6363,-0.6339,-0.6179,-0.6369,-0.6484,-0.6463,0.0,0.0,0.0,0.0,-0.4229,-0.3538,-0.1782,-0.1375,-0.1427,-0.0338,0.0,0.0,0.0,0.0,0.0,0.0,0.0,0.0,0.0,0.0,0.0,0.0,0.0,0.0,0.0,0.0,0.0,0.0,0.0,0.0,0.0,0.0,0.0,0.0,0.0,0.0,0.0,0.0,0.0191,0.07,0.0947,0.1619,0.2911,0.3083,0.0,0.0,0.0,0.451,0.5221,0.5756,0.0,0.0,0.0,0.7143,0.7491,0.7286,0.0,0.0,0.9005,0.9066,0.0,0.0,0.0,0.0,0.0,0.0,0.0,0.0,0.0,0.0,0.0,0.0,0.0,0.0,0.0,0.0,0.4508,0.4962,0.5412,0.3772,0.2633,0.2866,0.1168,0.0,0.0,0.0,0.0,0.0,0.0,0.0,0.0,0.0,0.0,0.0,0.0,-0.3314,-0.3716,-0.5433,-0.631,-0.6323,-0.6323,-0.6399,-0.6538,-0.6538,-0.6356,-0.6087,-0.6529,-0.6474,-0.6097,-0.6536,-0.6702,-0.6671,-0.6433,-0.6313,-0.6173,-0.5189,-0.4848,-0.4567,-0.2442,0.0,0.0,-0.0432,-0.0077,-0.0152,-0.0038,0.0,0.0,0.0,0.0,0.0,0.0,0.0,0.0,0.0,0.0,0.0,0.0,0.0,0.0,0.0,0.0,0.0,0.0,0.0,0.0,0.0,0.0,0.0,0.0,0.0,0.0,0.0,0.0591,0.0,0.201,0.2413,0.3151,0.4301,0.4072,0.4197,0.4944,0.5274,0.5598,0.5922,0.6291,0.6881,0.7638,0.8251,0.9283,1.0646,0.8898,0.9485,0.0,0.0,0.0,0.0,0.0,0.0,0.0,0.0,0.0,0.0,0.0,0.0,0.0,0.0,0.0,0.4591,0.5129,0.5661,0.5871,0.413,0.2853,0.2881,0.12,0.0,0.0,0.0,0.0,0.0,0.0,0.0,0.0,0.0,-0.0034,-0.0135,-0.2054,-0.3148,-0.3249,-0.5285,-0.6358,-0.647,-0.647,0.0,-0.6658,-0.6658,-0.6624,-0.6576,-0.6664,-0.6651,-0.6576,-0.6664,-0.6702,-0.6681,-0.6542,-0.6402,-0.6217,-0.5633,-0.5648,-0.5624,-0.3174,-0.3122,-0.3634,-0.0902,-0.0587,-0.1129,-0.0273,0.0,0.0,0.0,0.0,0.0,0.0,0.0,0.0,0.0,0.0,0.0,0.0,0.0,0.0,0.0,0.0,0.0,0.0,0.0,0.0,0.0,0.0,0.0,0.0,0.0,0.0,0.0,0.0125,0.0519,0.124,0.1931,0.2674,0.3553,0.4085,0.4672,0.5355,0.5993,0.6644,0.7296,0.796,0.8377,0.8544,0.8672,0.9183,1.0005,1.0674,1.1612,0.0,0.0,0.0,0.0,0.0,0.0,0.0,0.0,0.0,0.0,0.0,0.5164,0.0,0.0,0.4612,0.485,0.5223,0.5565,0.5939,0.4263,0.2994,0.2994,0.1231,0.0,0.0,0.0,0.0,0.0,0.0,0.0,0.0,0.0,-0.0356,-0.1078,-0.2403,-0.3466,-0.4256,-0.5688,-0.6443,-0.6515,-0.6549,-0.6668,-0.6814,-0.6814,-0.6854,-0.6919,-0.6919,-0.6919,-0.6919,-0.6919,-0.6878,-0.6807,-0.6729,-0.661,-0.6454,-0.6227,-0.6288,-0.6245,-0.4426,-0.4247,-0.4374,-0.1752,-0.1227,-0.1411,-0.0314,0.0,0.0,0.0,0.0,0.0,0.0,0.0,0.0,0.0,0.0,0.0,0.0,0.0,0.0,0.0,0.0,0.0,0.0,0.0,0.0,0.0,0.0,0.0,0.0,0.0,0.0,0.0,0.0,0.0286,0.1029,0.2217,0.3225,0.401,0.4387,0.4871,0.5464,0.6199,0.6939,0.7696,0.8427,0.8804,0.8804,0.8804,0.9133,0.9821,1.108,1.1887,0.0,0.0,0.0,0.0,0.0,0.0,0.0,0.0,0.7263,0.6077,0.5933,0.577,0.4896,0.4551,0.4577,0.5177,0.5295,0.5487,0.6006,0.4356,0.3085,0.3085,0.1253,0.0,0.0,0.0,0.0,0.0,0.0,0.0,0.0,0.0,-0.0534,-0.175,-0.2429,-0.3509,-0.499,-0.5787,-0.6327,-0.6563,-0.6685,-0.6824,-0.6927,-0.6927,-0.6991,-0.7095,-0.7095,-0.7095,-0.7095,-0.7095,-0.7028,-0.6927,-0.6927,-0.6895,-0.678,-0.6722,-0.6702,-0.6533,-0.548,-0.5169,-0.489,-0.2567,-0.1853,-0.1748,-0.0676,-0.019,-0.0036,-0.0289,-0.0172,0.0,0.0,0.0,0.0,0.0,0.0,0.0,0.0,0.0,0.0,0.0,0.0,0.0,0.0,0.0,0.0,0.0,0.0,0.0,0.0,0.0,0.0,0.0,0.0,0.0366,0.1291,0.261,0.3762,0.4683,0.4735,0.4919,0.5329,0.6041,0.6764,0.7482,0.8209,0.8672,0.8891,0.8891,0.9197,0.9804,1.0862,1.1556,0.7793,0.6319,0.5558,0.5747,0.6589,0.7293,0.0,0.0,0.9086,0.6799,0.7153,0.7442,0.5917,0.5715,0.5797,0.5878,0.6044,0.6197,0.6265,0.4443,0.3085,0.3085,0.1253,0.0,0.0,0.0,0.0,0.0,0.0,0.0,0.0,0.0,-0.0081,-0.0239,-0.123,-0.2317,-0.352,-0.4561,-0.5689,-0.6836,-0.6852,-0.6933,-0.7071,-0.7071,-0.7082,-0.7095,-0.7095,-0.7095,-0.7095,-0.7095,-0.7088,-0.7071,-0.7071,-0.7061,-0.7014,-0.6797,-0.6702,-0.6533,-0.548,-0.572,-0.5962,-0.2837,-0.2375,-0.291,-0.1914,-0.0859,-0.024,-0.1278,-0.0822,0.0,0.0,0.0,0.0,0.0,0.0,0.0,0.0,0.0,0.0,0.0,0.0,0.0,0.0,0.0,0.0,0.0,0.0,0.0,0.0,0.0,0.0,0.0,0.0,0.0632,0.2225,0.25,0.3283,0.4779,0.4894,0.4853,0.4786,0.549,0.6141,0.6696,0.745,0.8273,0.9164,0.9164,0.9353,0.9723,1.045,1.1382,0.8294,0.7973,0.7929,0.0,0.8438,0.9241,0.9133,1.0013,1.0243,0.8124,0.8156,0.8025,0.6247,0.5772,0.5755,0.0,0.5962,0.5897,0.6248,0.4453,0.3085,0.3085,0.1266,0.0,0.0,0.0,0.0,0.0,0.0,0.0,0.0,0.0,-0.0613,-0.1943,-0.2419,-0.3475,-0.5274,-0.5813,-0.6351,-0.6886,-0.6967,-0.7038,-0.7095,-0.7095,-0.7095,-0.7095,-0.7095,-0.7095,-0.7095,-0.7095,-0.7095,-0.7051,-0.6384,-0.6517,-0.7082,-0.6957,-0.6522,-0.5872,-0.5432,-0.5475,-0.5461,-0.3502,-0.3049,-0.3099,-0.2095,-0.096,-0.0124,-0.0612,-0.0404,0.0,0.0,0.0,0.0,0.0,0.0,0.0,0.0,0.0,0.0,0.0,0.0,0.0,0.0,0.0,0.0,0.0,0.0,0.0,0.0,0.0,0.0,0.0,0.0,0.0703,0.2471,0.2601,0.3314,0.4925,0.5012,0.4945,0.483,0.5525,0.6015,0.6256,0.6969,0.7818,0.8724,0.8724,0.9058,0.9715,1.0617,1.1312,0.8912,0.914,0.0,0.9395,0.9946,1.0533,1.0774,1.0981,1.0656,0.8998,0.8597,0.8009,0.6389,0.5827,0.5788,0.6228,0.5931,0.5688,0.5848,0.4279,0.3,0.2712,0.1099,0.0,0.0,0.0,0.0,0.0,0.0,0.0,0.0,0.0,-0.0917,-0.2915,-0.2639,-0.3711,-0.631,-0.6107,-0.6331,-0.6947,-0.7048,-0.7095,-0.7095,-0.6782,-0.6782,-0.7095,-0.6782,-0.665,-0.665,-0.665,-0.6425,-0.6065,-0.522,-0.5401,-0.6154,-0.6154,-0.5802,-0.5403,-0.5403,-0.5083,-0.4491,-0.3451,-0.3026,-0.273,-0.2007,-0.0937,-0.0085,-0.0416,-0.0246,0.0,0.0,0.0,0.0,0.0,0.0,0.0,0.0,0.0,0.0,0.0,0.0,0.0,0.0,0.0,0.0,0.0,0.0,0.0,0.0,0.0,0.0,0.0,0.0,0.074,0.2544,0.2711,0.3416,0.5071,0.5196,0.5128,0.4955,0.546,0.5829,0.5996,0.6529,0.724,0.8164,0.8402,0.8896,0.9628,1.0627,1.1119,0.9479,0.0,0.8121,0.9979,1.0293,1.0354,1.1169,1.0883,1.0138,0.9005,0.8267,0.7506,0.6483,0.6282,0.6279,0.6296,0.6282,0.5925,0.488,0.3784,0.275,0.1745,0.0656,0.0,0.0,0.0,0.0,0.0,0.0,0.0,0.0,0.0,-0.0564,-0.1819,-0.0709,-0.1833,-0.5393,-0.4279,-0.4858,-0.7088,-0.7095,-0.7095,-0.7051,-0.5935,-0.6071,-0.7051,-0.5938,-0.5447,-0.5447,-0.5447,-0.4776,-0.3703,-0.3659,-0.3659,-0.3703,-0.3703,-0.4419,-0.5403,-0.5403,-0.4641,-0.3433,-0.2234,-0.1832,-0.1831,-0.1831,-0.097,-0.0261,-0.1428,-0.0882,0.0,0.0,0.0,0.0,0.0,0.0,0.0,0.0,0.0,0.0,0.0,0.0,0.0,0.0,0.0,0.0,0.0,0.0,0.0,0.0,0.0,0.0,0.0,0.0,0.074,0.2544,0.2711,0.3478,0.5286,0.5388,0.5317,0.51,0.5125,0.5397,0.5996,0.6022,0.6532,0.7525,0.8385,0.898,0.9346,1.0218,1.0611,0.9713,0.0,1.0403,1.1328,1.1437,1.1356,1.165,1.117,1.0359,0.9324,0.809,0.6904,0.587,0.5371,0.5231,0.5634,0.5361,0.5246,0.5682,0.3878,0.2539,0.2602,0.1057,0.0,0.0,0.0,0.0,0.0,0.0,0.0,0.0,0.0,-0.0918,-0.2915,-0.1828,-0.2906,-0.6473,-0.4594,-0.4772,-0.7095,-0.7095,-0.6694,-0.5983,-0.5581,-0.5628,-0.5894,-0.473,-0.4641,-0.5359,-0.4552,-0.3972,-0.3525,-0.2726,-0.2903,-0.3481,-0.2681,-0.2683,-0.2995,-0.2995,-0.2726,-0.2325,-0.1924,-0.179,-0.179,-0.179,-0.0937,-0.0089,-0.048,-0.0301,0.0,0.0,0.0,0.0,0.0,0.0,0.0,0.0,0.0,0.0,0.0,0.0,0.0,0.0,0.0,0.0,0.0,0.0,0.0,0.0,0.0,0.0,0.0,0.0,0.074,0.2544,0.2711,0.348,0.5292,0.5395,0.5371,0.5317,0.5284,0.539,0.5592,0.5592,0.6061,0.6975,0.7845,0.8627,0.9338,1.0206,1.0593,1.1083,1.1535,1.206,1.2783,1.2505,1.2024,1.2024,1.142,1.0527,0.9523,0.8131,0.6767,0.5622,0.503,0.4877,0.5324,0.5068,0.5033,0.5657,0.3891,0.2516,0.2553,0.1047,0.0,0.0,0.0,0.0,0.0,0.0,0.0,0.0,0.0,-0.0899,-0.2899,-0.179,-0.2861,-0.647,-0.415,-0.415,-0.6473,-0.6473,-0.6115,-0.5359,-0.451,-0.4349,-0.4702,-0.3481,-0.338,-0.4065,-0.3265,-0.2681,-0.2236,-0.1478,-0.1612,-0.2236,-0.1433,-0.1165,-0.121,-0.1657,-0.1522,-0.1165,-0.1165,-0.1165,-0.1165,-0.1165,-0.0628,0.0,0.0,0.0,0.0,0.0,0.0,0.0,0.0,0.0,0.0,0.0,0.0,0.0,0.0,0.0,0.0,0.0,0.0,0.0,0.0,0.0,0.0,0.0,0.0,0.0,0.0,0.0,0.074,0.2544,0.2711,0.348,0.5292,0.5395,0.5395,0.5395,0.5395,0.5395,0.5395,0.5395,0.5686,0.6235,0.7437,0.8285,0.8877,1.004,1.0593,1.32,1.3303,1.2908,1.4151,1.3364,1.2305,1.2305,1.1496,1.0418,0.9445,0.8222,0.6911,0.0,0.0,0.5022,0.5303,0.531,0.5172,0.4776,0.3776,0.2698,0.0,0.0,0.0,0.0,0.0,0.0,0.0,0.0,0.0,0.0,0.0,-0.0535,-0.1741,-0.0628,-0.1702,-0.527,-0.3038,-0.2995,-0.5225,-0.527,-0.527,-0.5134,-0.2861,-0.2438,-0.3442,-0.2246,-0.1753,-0.1788,-0.1732,-0.1031,0.0,0.0,0.0,0.0,0.0,0.0,-0.018,-0.1299,-0.0941,0.0,0.0,0.0,0.0,0.0,0.0,0.0,0.0,0.0,0.0,0.0,0.0,0.0,0.0,0.0,0.0,0.0,0.0,0.0,0.0,0.0,0.0,0.0,0.0,0.0,0.0,0.0,0.0,0.0,0.0,0.0,0.0,0.0034,0.0773,0.2544,0.2744,0.3513,0.5292,0.5395,0.5395,0.5395,0.5395,0.5395,0.5395,0.5395,0.5395,0.5395,0.7153,0.7994,0.8027,0.9779,1.0593,1.2043,1.2532,1.3108,1.3739,1.3107,1.2305,1.2305,1.0869,0.9319,0.8622,0.6569,0.4651,0.0,0.0,0.0,0.4335,0.4184,0.0,0.5084,0.362,0.0,0.2068,0.0,0.0,0.0,0.0,0.0,0.0,0.0,0.0,0.0,0.0,-0.057,-0.1744,-0.0628,-0.1299,-0.4016,-0.3438,-0.2994,-0.2727,-0.3616,-0.3573,-0.2683,-0.2103,-0.199,-0.2211,-0.0977,-0.0974,-0.1737,-0.0845,-0.0269,0.0,0.0,0.0,0.0,0.0,0.0,-0.0045,-0.0359,-0.0269,0.0,0.0,0.0,0.0,0.0,0.0,0.0,0.0,0.0,0.0,0.0,0.0,0.0,0.0,0.0,0.0,0.0,0.0,0.0,0.0,0.0,0.0,0.0,0.0,0.0,0.0,0.0,0.0,0.0,0.0,0.0,0.0,0.0572,0.1441,0.2611,0.3278,0.4151,0.5329,0.5395,0.5395,0.5395,0.5395,0.5395,0.5395,0.5395,0.5395,0.5395,0.7153,0.7994,0.8027,0.9779,1.0593,1.2726,1.3075,1.3414,1.3628,1.2989,1.2131,1.149,1.0393,0.9148,0.7713,0.5993,0.0,0.3493,0.2867,0.0,0.0,0.0,0.0,0.5118,0.3737,0.2499,0.0,0.0881,0.0,0.0,0.0,0.0,0.0,0.0,0.0,0.0,0.0,-0.0302,-0.0985,-0.0359,-0.0628,-0.2013,-0.3081,-0.2992,-0.179,-0.2503,-0.2458,-0.179,-0.1254,-0.101,-0.0976,-0.0309,-0.0396,-0.0977,-0.0265,0.0,0.0,0.0,0.0,0.0,0.0,0.0,0.0,0.0,0.0,0.0,0.0,0.0,0.0,0.0,0.0,0.0,0.0,0.0,0.0,0.0,0.0,0.0,0.0,0.0,0.0,0.0,0.0,0.0,0.0,0.0,0.0,0.0,0.0,0.0,0.0,0.0,0.0,0.0,0.0,0.0,0.0,0.0787,0.1663,0.2613,0.3513,0.4417,0.5326,0.5395,0.5395,0.5395,0.5395,0.5395,0.5395,0.5395,0.5395,0.5395,0.7153,0.7994,0.8027,0.9779,1.066,1.3823,1.3808,1.3528,1.3528,1.2915,1.1957,1.0648,1.0102,0.9234,0.7007,0.0,0.499,0.3819,0.3195,0.3124,0.3846,0.0,0.4348,0.48,0.3888,0.2933,0.2164,0.0993,0.0158,0.0,0.0,0.0,0.0,0.0,0.0,0.0,0.0,0.0,0.0,0.0,0.0,0.0,-0.2057,-0.2592,-0.1567,-0.1567,-0.1567,-0.1522,-0.0494,0.0,0.0,0.0,0.0,0.0,0.0,0.0,0.0,0.0,0.0,0.0,0.0,0.0,0.0,0.0,0.0,0.0,0.0,0.0,0.0,0.0,0.0,0.0,0.0,0.0,0.0,0.0,0.0,0.0,0.0,0.0,0.0,0.0,0.0,0.0,0.0,0.0,0.0,0.0,0.0,0.0,0.0,0.0,0.0,0.0,0.0,0.0,0.0,0.0914,0.1842,0.2646,0.3655,0.4602,0.5386,0.5453,0.5453,0.5453,0.5453,0.5453,0.5453,0.5453,0.5453,0.5453,0.723,0.808,0.8113,0.9885,1.0841,1.1987,1.2163,1.2556,1.2556,1.2409,1.2171,1.1712,1.0098,0.0,0.0,0.5312,0.3558,0.3598,0.3132,0.2983,0.371,0.0,0.0,0.0,0.0,0.3121,0.0,0.0,0.0,0.0,0.0,0.0,0.0,0.0,0.0,0.0,0.0,0.0,0.0,0.0,0.0,0.0,-0.0404,-0.0539,-0.0314,-0.0314,-0.0314,-0.0314,-0.009,0.0,0.0,0.0,0.0,0.0,0.0,0.0,0.0,0.0,0.0,0.0,0.0,0.0,0.0,0.0,0.0,0.0,0.0,0.0,0.0,0.0,0.0,0.0,0.0,0.0,0.0,0.0,0.0,0.0,0.0,0.0,0.0,0.0,0.0,0.0,0.0,0.0,0.0,0.0,0.0,0.0,0.0,0.0,0.0,0.0,0.0,0.0,0.0,0.1588,0.2701,0.2867,0.4471,0.5544,0.5725,0.5725,0.5725,0.5725,0.5725,0.5725,0.5725,0.5725,0.5725,0.5725,0.7608,0.8513,0.8542,1.0408,1.1303,1.1217,1.158,1.2305,1.2305,1.2191,1.1683,1.0167,0.0,0.0,0.0,0.3945,0.2826,0.2774,0.0,0.0,0.0,0.0,0.0,0.0,0.0,0.0,0.0,0.0,0.0,0.0,0.0,0.0,0.0,0.0,0.0,0.0,0.0,0.0,0.0,0.0,0.0,0.0,0.0,0.0,0.0,0.0,0.0,0.0,0.0,0.0,0.0,0.0,0.0,0.0,0.0,0.0,0.0,0.0,0.0,0.0,0.0,0.0,0.0,0.0,0.0,0.0,0.0,0.0,0.0,0.0,0.0,0.0,0.0,0.0,0.0,0.0,0.0,0.0,0.0,0.0,0.0,0.0,0.0,0.0,0.0,0.0,0.0,0.0,0.0,0.0,0.0,0.0,0.0196,0.0745,0.0815,0.084,0.0819,0.2554,0.3715,0.3738,0.5003,0.58,0.58,0.58,0.58,0.58,0.58,0.58,0.58,0.58,0.58,0.58,0.7672,0.8589,0.8664,1.0516,1.151,1.1149,1.1638,1.2285,1.2225,1.2074,1.1263,0.8745,0.7822,0.0,0.0,0.3052,0.2538,0.2321,0.0,0.2298,0.0,0.0,0.0,0.0,0.0,0.0,0.0,0.0,0.0,0.0,0.0,0.0,0.0,0.0,0.0,0.0,0.0,0.0,0.0,0.0,0.0,0.0,0.0,0.0,0.0,0.0,0.0,0.0,0.0,0.0,0.0,0.0,0.0,0.0,0.0,0.0,0.0,0.0,0.0,0.0,0.0,0.0,0.0,0.0,0.0,0.0,0.0,0.0,0.0,0.0,0.0,0.0,0.0,0.0,0.0,0.0,0.0,0.0,0.0,0.0,0.0,0.0,0.0,0.0,0.0,0.0,0.0,0.0,0.0,0.0079,0.0314,0.0353,0.0706,0.1802,0.2113,0.2254,0.2248,0.3644,0.4552,0.4538,0.538,0.5901,0.5901,0.5901,0.5901,0.5901,0.5901,0.5901,0.5901,0.5901,0.5901,0.5901,0.7587,0.8413,0.8485,1.0155,1.1095,1.1884,1.2218,1.2238,1.2013,1.1926,1.139,0.9511,0.0,0.0,0.5427,0.3767,0.2719,0.3101,0.287,0.2764,0.0,0.0,0.3232,0.0,0.0,0.0,0.0,0.0,0.0,0.0,0.0,0.0,0.0,0.0,0.0,0.0,0.0,0.0,0.0,0.0,0.0,0.0,0.0,0.0,0.0,0.0,0.0,0.0,0.0,0.0,0.0,0.0,0.0,0.0,0.0,0.0,0.0,0.0,0.0,0.0,0.0,0.0,0.0,0.0,0.0,0.0,0.0,0.0,0.0,0.0,0.0,0.0,0.0,0.0,0.0,0.0,0.0,0.0,0.0,0.0,0.0,0.0,0.0,0.0,0.0,0.0,0.0,0.0,0.0,0.0322,0.1298,0.145,0.1801,0.2851,0.3828,0.4411,0.4402,0.4593,0.4668,0.4696,0.563,0.6255,0.6255,0.6255,0.6255,0.6255,0.6255,0.6255,0.6255,0.6255,0.6255,0.6259,0.7355,0.788,0.7884,0.8972,0.9509,0.9757,1.0669,1.1744,1.163,1.147,1.0788,0.8657,0.0,0.6338,0.4129,0.2978,0.23,0.2133,0.2132,0.2262,0.2584,0.0,0.0,0.0,0.0,0.0,0.0,0.0,0.0,0.0,0.0,0.0,0.0,0.0,0.0,0.0,0.0,0.0,0.0,0.0,0.0,0.0,0.0,0.0,0.0,0.0,0.0,0.0,0.0,0.0,0.0,0.0,0.0,0.0,0.0,0.0,0.0,0.0,0.0,0.0,0.0,0.0,0.0,0.0,0.0,0.0,0.0,0.0,0.0,0.0,0.0,0.0,0.0,0.0,0.0,0.0,0.0,0.0,0.0,0.0,0.0,0.0,0.0,0.0,0.0,0.0,0.0,0.0,0.0586,0.1192,0.1567,0.2199,0.298,0.3951,0.4453,0.496,0.5589,0.567,0.567,0.567,0.6064,0.63,0.63,0.63,0.63,0.63,0.63,0.63,0.63,0.63,0.63,0.63,0.7326,0.7783,0.7821,0.8841,0.9296,0.8711,0.9937,1.1369,1.1282,1.0882,0.99,0.0,0.0,0.5391,0.2979,0.2331,0.2016,0.1409,0.1529,0.182,0.2146,0.0,0.3112,0.4432,0.0,0.0,0.0,0.0,0.2101,0.0,0.0,0.0,0.0,0.0,0.0,0.0,0.0,0.0,0.0,0.0,0.0,0.0,0.0,0.0,0.0,0.0,0.0,0.0,0.0,0.0,0.0,0.0,0.0,0.0,0.0,0.0,0.0,0.0,0.0,0.0,0.0,0.0,0.0,0.0,0.0,0.0,0.0,0.0,0.0,0.0,0.0,0.0,0.0,0.0,0.0,0.0,0.0,0.0,0.0,0.0,0.0,0.0,0.0,0.0,0.0,0.0,0.0132,0.0479,0.1242,0.1975,0.2547,0.3313,0.4185,0.5155,0.5306,0.5571,0.6289,0.6361,0.6344,0.6303,0.63,0.63,0.63,0.63,0.63,0.63,0.63,0.63,0.63,0.63,0.63,0.63,0.7022,0.7365,0.7365,0.8084,0.8727,0.9677,1.0709,1.1322,1.1069,1.009,0.8765,0.0,0.0,0.4323,0.2566,0.2204,0.2016,0.1409,0.1413,0.1658,0.2126,0.2375,0.0,0.3856,0.0,0.0,0.0,0.0,0.1626,0.0125,0.0,0.0,0.0,0.0,0.0,0.0,0.0,0.0,0.0,0.0,0.0,0.0,0.0,0.0,0.0,0.0,0.0,0.0,0.0,0.0,0.0,0.0,0.0,0.0,0.0,0.0,0.0,0.0,0.0,0.0,0.0,0.0,0.0,0.0,0.0,0.0,0.0,0.0,0.0,0.0,0.0,0.0,0.0,0.0,0.0,0.0,0.0,0.0,0.0,0.0,0.0,0.0,0.0,0.0,0.0,0.0,0.0401,0.1567,0.1776,0.2534,0.4738,0.5056,0.5477,0.6526,0.6695,0.6637,0.6525,0.6511,0.6453,0.6313,0.63,0.63,0.63,0.63,0.63,0.63,0.63,0.63,0.63,0.63,0.63,0.63,0.63,0.63,0.63,0.6338,0.7403,0.674,0.7595,0.8325,0.8056,0.7702,0.7014,0.5451,0.0,0.3866,0.2486,0.2055,0.1797,0.1377,0.1413,0.1658,0.2126,0.2375,0.0,0.0,0.0,0.0,0.0,0.2649,0.1317,0.0,0.0,0.0,0.0,0.0,0.0,0.0,0.0,0.0,0.0,0.0,0.0,0.0,0.0,0.0,0.0,0.0,0.0,0.0,0.0,0.0,0.0,0.0,0.0,0.0,0.0,0.0,0.0,0.0,0.0,0.0,0.0,0.0,0.0,0.0,0.0,0.0,0.0,0.0,0.0,0.0,0.0,0.0,0.0,0.0,0.0,0.0,0.0,0.0,0.0,0.0,0.0,0.0,0.0,0.0,0.0,0.0673,0.1341,0.173,0.3184,0.4432,0.5022,0.582,0.6434,0.667,0.6702,0.6681,0.6634,0.6627,0.6529,0.632,0.63,0.63,0.63,0.63,0.63,0.63,0.63,0.63,0.63,0.63,0.63,0.63,0.63,0.63,0.63,0.63,0.7365,0.0,0.6212,0.696,0.68,0.642,0.0,0.0,0.0,0.3226,0.2379,0.2103,0.1883,0.139,0.1558,0.1781,0.1848,0.2386,0.0,0.0,0.0,0.0,0.0,0.0,0.0,0.0,0.0,0.0,0.0,0.0,0.0,0.0,0.0,0.0,0.0,0.0,0.0,0.0,0.0,0.0,0.0,0.0,0.0,0.0,0.0,0.0,0.0,0.0,0.0,0.0,0.0,0.0,0.0,0.0,0.0,0.0,0.0,0.0,0.0,0.0,0.0,0.0,0.0,0.0,0.0,0.0,0.0,0.0,0.0,0.0,0.0,0.0,0.0,0.0,0.0,0.0,0.0,0.0,0.0359,0.0673,0.0673,0.1657,0.2637,0.3083,0.4421,0.5513,0.5828,0.648,0.693,0.6878,0.6865,0.6848,0.6793,0.6787,0.6688,0.6487,0.6467,0.6467,0.6467,0.6412,0.6378,0.6378,0.6327,0.63,0.63,0.63,0.63,0.63,0.63,0.63,0.63,0.6683,0.7744,0.0,0.6134,0.0,0.0,0.0,0.0,0.0,0.0,0.0,0.0,0.0,0.2205,0.155,0.1882,0.2062,0.1466,0.245,0.0,0.0,0.0,0.0,0.0,0.1065,0.0,0.0044,0.0,0.0,0.0,0.0,0.0,0.0,0.0,0.0,0.0,0.0,0.0,0.0,0.0,0.0,0.0,0.0,0.0,0.0,0.0,0.0,0.0,0.0,0.0,0.0,0.0,0.0,0.0,0.0,0.0,0.0,0.0,0.0,0.0,0.0,0.0,0.0,0.0,0.0,0.0,0.009,0.009,0.0,0.0,0.0,0.0,0.0,0.0,0.0,0.0,0.0045,0.0135,0.0135,0.1076,0.1924,0.1924,0.2903,0.4105,0.5223,0.5447,0.5891,0.6962,0.7095,0.7095,0.7095,0.7095,0.7045,0.6916,0.6903,0.6846,0.6746,0.6712,0.6702,0.6702,0.6566,0.6528,0.6528,0.6402,0.6327,0.6317,0.6306,0.63,0.63,0.63,0.63,0.6338,0.7326,0.8351,0.3924,0.0,0.427,0.4075,0.3814,0.3527,0.0,0.0,0.0,0.0,0.0,0.0,0.0,0.0,0.0,0.0,0.0,0.0,0.0,0.0,0.0,0.2247,0.2303,0.1867,0.0162,0.0,0.0,0.0,0.0,0.0,0.0,0.0,0.0,0.0,0.0,0.0,0.0,0.0,0.0,0.0,0.0,0.0,0.0,0.0,0.0,0.0,0.0,0.0,0.0,0.0,0.0,0.0,0.0,0.0,0.0,0.0,0.0,0.0,0.0,0.0,0.0,0.0,0.0,0.018,0.1076,0.0718,0.0,0.0,0.0,0.0,0.0,0.0,0.0,0.0,0.0718,0.1389,0.1389,0.2325,0.317,0.317,0.4152,0.5045,0.5359,0.6115,0.6786,0.7051,0.7095,0.7095,0.7095,0.7095,0.7085,0.7051,0.7048,0.7034,0.6997,0.6831,0.6702,0.6702,0.6668,0.6647,0.6647,0.6614,0.6542,0.6463,0.6354,0.63,0.63,0.63,0.63,0.6338,0.7326,0.8351,0.3495,0.3495,0.3566,0.3816,0.3583,0.3333,0.0,0.0,0.0,0.0,0.0,0.0,0.0,0.0,0.0,0.0,0.2812,0.0,0.0,0.0,0.0,0.2799,0.298,0.2498,0.0586,0.0682,0.0583,0.0045,0.0,0.0,0.0,0.0,0.0,0.0,0.0,0.0,0.0,0.0,0.0,0.0,0.0,0.0,0.0,0.0,0.0,0.0,0.0,0.0,0.0,0.0,0.0,0.0,0.0,0.0,0.0,0.0,0.0,0.0,0.0,0.0,0.0,0.0,0.0359,0.0941,0.1612,0.1746,0.1522,0.0986,0.121,0.1522,0.0986,0.1254,0.1657,0.1657,0.2147,0.2637,0.2637,0.3571,0.4419,0.4419,0.5356,0.616,0.616,0.6694,0.7095,0.7095,0.7095,0.7095,0.7095,0.7095,0.7095,0.7095,0.7095,0.7095,0.7095,0.695,0.6902,0.6902,0.6841,0.6807,0.6807,0.6736,0.6661,0.658,0.6502,0.6467,0.6399,0.6399,0.6595,0.7022,0.8008,0.9031,0.3453,0.344,0.3659,0.4568,0.4137,0.3732,0.0,0.0,0.0,0.0,0.0,0.0,0.0,0.0,0.0,0.0,0.0,0.0,0.0,0.4554,0.4453,0.3369,0.348,0.3026,0.1474,0.1616,0.1389,0.0359,0.009,0.0,0.0,0.0,0.0,0.0,0.0,0.0,0.0,0.0,0.0,0.0,0.0,0.0,0.0,0.0,0.0,0.0,0.0,0.0,0.0,0.0,0.0,0.0,0.0,0.0,0.0,0.0,0.0,0.0045,0.0225,0.0269,0.0314,0.0494,0.1254,0.2102,0.2281,0.3081,0.366,0.2637,0.2949,0.3349,0.2325,0.2815,0.3614,0.3614,0.3748,0.3881,0.3881,0.4819,0.5669,0.5669,0.6428,0.7095,0.7095,0.7095,0.7095,0.7095,0.7095,0.7095,0.7095,0.7095,0.7095,0.7095,0.7095,0.7095,0.7095,0.7095,0.7095,0.7095,0.6984,0.6916,0.6916,0.6817,0.6736,0.6736,0.6712,0.6637,0.6549,0.6706,0.7189,0.7902,0.9129,1.0117,0.3226,0.316,0.3423,0.4528,0.4137,0.3732,0.0,0.0,0.0,0.0,0.0,0.0,0.0,0.0,0.0,0.0,0.0,0.404,0.0,0.0,0.5048,0.3988,0.4449,0.4415,0.3295,0.2339,0.1701,0.1522,0.0584,0.0,0.0,0.0,0.0,0.0,0.0,0.0,0.0,0.0,0.0,0.0,0.0,0.0,0.0,0.0,0.0,0.0,0.0,0.0,0.0,0.0,0.0,0.0,0.0,0.0,0.0,0.0,0.0,0.0135,0.1165,0.1522,0.17,0.2726,0.317,0.3527,0.4554,0.4956,0.509,0.4912,0.4241,0.357,0.3393,0.3481,0.3614,0.3614,0.4374,0.5134,0.5134,0.6027,0.6827,0.6827,0.6962,0.7095,0.7095,0.7095,0.7095,0.7095,0.7095,0.7095,0.7095,0.7095,0.7095,0.7095,0.7095,0.7095,0.7095,0.7095,0.7095,0.7095,0.7075,0.7065,0.7065,0.6927,0.6852,0.6852,0.6766,0.6688,0.6664,0.7632,0.8183,0.8356,1.0373,1.1425,0.3357,0.3317,0.3676,0.5177,0.427,0.348,0.0,0.0,0.0,0.0,0.0,0.0,0.0,0.0,0.3622,0.3436,0.0,0.5123,0.4965,0.5396,0.5549,0.5145,0.548,0.5304,0.4192,0.3863,0.3484,0.2815,0.1657,0.0986,0.0986,0.0359,0.0,0.0,0.0,0.0,0.0,0.0,0.0,0.0,0.0,0.0,0.0,0.0,0.0,0.0,0.0,0.0,0.0,0.0,0.0,0.0,0.0,0.0,0.0,0.0,0.0404,0.1031,0.1612,0.2236,0.2858,0.3436,0.4061,0.4688,0.5223,0.5849,0.6337,0.6337,0.5933,0.5351,0.473,0.5041,0.5487,0.5487,0.5933,0.6337,0.6337,0.6738,0.7095,0.7095,0.7095,0.7095,0.7095,0.7095,0.7095,0.7095,0.7095,0.7095,0.7095,0.7095,0.7095,0.7095,0.7095,0.7095,0.7095,0.7095,0.7095,0.7095,0.7095,0.7095,0.7095,0.7034,0.7001,0.7001,0.693,0.6902,0.6824,0.7983,0.8789,0.9249,1.0922,1.1988,0.3426,0.3406,0.379,0.5373,0.4235,0.0,0.0,0.0,0.0,0.0,0.0,0.0,0.0,0.3245,0.0,0.4102,0.5143,0.5857,0.5803,0.5922,0.6067,0.6182,0.6373,0.6141,0.5205,0.5283,0.5001,0.4105,0.2904,0.2102,0.1835,0.0942,0.0314,0.0,0.0,0.0,0.0,0.0,0.0,0.0,0.0,0.0,0.0,0.0,0.0,0.0,0.0,0.0,0.0,0.0,0.0,0.0,0.0,0.0,0.0045,0.0314,0.0807,0.1433,0.1701,0.2413,0.3215,0.3525,0.4241,0.5045,0.5314,0.6027,0.6738,0.7007,0.7095,0.6915,0.6027,0.6428,0.7095,0.7095,0.7095,0.7095,0.7095,0.7095,0.7095,0.7095,0.7095,0.7095,0.7095,0.7095,0.7095,0.7095,0.7095,0.7095,0.7095,0.7095,0.7095,0.7095,0.7095,0.7095,0.7095,0.7095,0.7095,0.7095,0.7095,0.7095,0.7095,0.7095,0.7095,0.7095,0.7095,0.7045,0.6937,0.8418,0.9475,1.0095,1.1589,1.2668,0.32,0.3126,0.3353,0.4295,0.3785,0.0,0.6057,0.4218,0.0,0.4325,0.0,0.0,0.0,0.4239,0.4294,0.4918,0.5254,0.5678,0.6354,0.6539,0.6692,0.6805,0.6947,0.6987,0.69,0.6004,0.5359,0.527,0.415,0.2992,0.1879,0.1701,0.1165,0.0045,0.0,0.0,0.0,0.0,0.0,0.0,0.0,0.0,0.0,0.0,0.0,0.0,0.0,0.0,0.0,0.0,0.0,0.0,0.0,0.0,0.0135,0.1254,0.1031,0.0269,0.1433,0.1879,0.2102,0.3215,0.3659,0.3927,0.5045,0.5447,0.5758,0.6786,0.7095,0.7095,0.7007,0.7051,0.7095,0.7095,0.7095,0.7095,0.7095,0.7095,0.7095,0.7095,0.7095,0.7095,0.7095,0.7095,0.7095,0.7095,0.7095,0.7095,0.7095,0.7095,0.7095,0.7095,0.7095,0.7095,0.7095,0.7095,0.7095,0.7095,0.7095,0.7095,0.7095,0.7095,0.7095,0.7095,0.7095,0.7092,0.7082,0.9378,1.0494,1.0608,1.285,1.3979,0.3935,0.3908,0.4249,0.5661,0.4676,0.0,0.0,0.4297,0.3218,0.4653,0.4018,0.0,0.0,0.0,0.484,0.5063,0.565,0.6221,0.6563,0.6746,0.6856,0.7001,0.7061,0.7095,0.7095,0.6694,0.6473,0.6473,0.5356,0.451,0.4065,0.3304,0.2726,0.2236,0.1522,0.1121,0.1121,0.0359,0.0,0.0,0.0,0.0,0.0,0.0,0.0,0.0,0.0,0.0,0.0,0.0,0.0,0.0,0.0,0.0,0.0045,0.0494,0.0852,0.1165,0.1657,0.2281,0.3126,0.433,0.4732,0.4954,0.6115,0.6473,0.6561,0.6962,0.7095,0.7095,0.7095,0.7095,0.7095,0.7095,0.7095,0.7095,0.7095,0.7095,0.7095,0.7095,0.7095,0.7095,0.7095,0.7095,0.7095,0.7095,0.7095,0.7095,0.7095,0.7095,0.7095,0.7095,0.7095,0.7095,0.7095,0.7095,0.7095,0.7095,0.7095,0.7095,0.7095,0.7095,0.7095,0.7095,0.7095,0.7492,0.8233,0.9831,1.095,1.1681,1.3343,1.4088,0.4402,0.4402,0.4749,0.622,0.0,0.0,0.5848,0.4729,0.3646,0.4846,0.4511,0.3957,0.3768,0.0,0.0,0.0,0.5762,0.6312,0.6654,0.6831,0.694,0.7078,0.7095,0.7095,0.7095,0.7095,0.7095,0.7095,0.6384,0.5761,0.5403,0.4596,0.3972,0.3614,0.2814,0.2191,0.179,0.0986,0.0359,0.0,0.0,0.0,0.0,0.0,0.0,0.0,0.0,0.0,0.0,0.0,0.0,0.0045,0.0404,0.0314,0.0045,0.0449,0.1076,0.179,0.179,0.2592,0.3748,0.4552,0.4821,0.5043,0.6204,0.6561,0.665,0.7007,0.7095,0.7095,0.7095,0.7095,0.7095,0.7095,0.7095,0.7095,0.7095,0.7095,0.7095,0.7095,0.7095,0.7095,0.7095,0.7095,0.7095,0.7095,0.7095,0.7095,0.7095,0.7095,0.7095,0.7095,0.7095,0.7095,0.7095,0.7095,0.7095,0.7095,0.7095,0.7095,0.7095,0.7095,0.7095,0.7095,0.7095,0.7709,0.889,1.0053,1.1171,1.2328,1.3555,1.4088,0.4422,0.4416,0.4623,0.0,0.0,0.0,0.7206,0.5518,0.365,0.4855,0.5566,0.5801,0.5201,0.5257,0.0,0.5395,0.5532,0.5857,0.6597,0.6834,0.694,0.7082,0.7095,0.7095,0.7095,0.7095,0.7095,0.7095,0.7095,0.6605,0.5492,0.5403,0.4865,0.3659,0.3614,0.3037,0.179,0.179,0.1165,0.0,0.0,0.0,0.0,0.0,0.0,0.0,0.0,0.0,0.0,0.0,0.0,0.0135,0.1299,0.1031,0.0135,0.1344,0.179,0.179,0.1835,0.2592,0.3614,0.3614,0.3614,0.3838,0.5045,0.5403,0.5669,0.6782,0.7095,0.7095,0.7095,0.7095,0.7095,0.7095,0.7095,0.7095,0.7095,0.7095,0.7095,0.7095,0.7095,0.7095,0.7095,0.7095,0.7095,0.7095,0.7095,0.7095,0.7095,0.7095,0.7095,0.7095,0.7095,0.7095,0.7095,0.7095,0.7095,0.7095,0.7095,0.7095,0.7095,0.7095,0.7095,0.7095,0.7095,0.7709,0.889,1.0009,1.1166,1.2328,1.3512,1.4088,0.5772,0.5507,0.0,0.0,0.0,0.0,0.0,0.5108,0.0,0.0,0.5503,0.5607,0.481,0.5426,0.589,0.5463,0.5965,0.6447,0.6668,0.6876,0.7048,0.7092,0.7095,0.7095,0.7095,0.7095,0.7095,0.7095,0.7095,0.6962,0.6605,0.6605,0.6068,0.491,0.4061,0.3037,0.179,0.0941,0.0359,0.0,0.0,0.0,0.0,0.0,0.0,0.0,0.0,0.0,0.0,0.0,0.0,0.0045,0.0404,0.0314,0.0135,0.1344,0.179,0.1924,0.2769,0.3303,0.3748,0.4596,0.4865,0.509,0.6248,0.6605,0.665,0.7007,0.7095,0.7095,0.7095,0.7095,0.7095,0.7095,0.7095,0.7095,0.7095,0.7095,0.7095,0.7095,0.7095,0.7095,0.7095,0.7095,0.7095,0.7095,0.7095,0.7095,0.7095,0.7095,0.7095,0.7095,0.7095,0.7095,0.7095,0.7095,0.7095,0.7095,0.7095,0.7095,0.7095,0.7095,0.7095,0.7095,0.7095,0.7709,0.889,0.9235,1.0009,1.1123,1.2291,1.2808,0.6466,0.6224,0.0,0.0,0.0,0.5989,0.5991,0.0,0.0,0.0,0.701,0.6907,0.5993,0.6403,0.665,0.5959,0.6308,0.6722,0.6783,0.695,0.7095,0.7095,0.7095,0.7095,0.7095,0.7095,0.7095,0.7095,0.7095,0.7095,0.7095,0.7095,0.6786,0.6115,0.5354,0.4194,0.2547,0.179,0.0941,0.0,0.0,0.0,0.0,0.0,0.0,0.0,0.0,0.0,0.0,0.0,0.0,0.0045,0.0539,0.0718,0.0852,0.2057,0.2815,0.335,0.4063,0.4596,0.5129,0.5847,0.6071,0.6204,0.6871,0.7095,0.7095,0.7095,0.7095,0.7095,0.7095,0.7095,0.7095,0.7095,0.7095,0.7095,0.7095,0.7095,0.7095,0.7095,0.7095,0.7095,0.7095,0.7095,0.7095,0.7095,0.7095,0.7095,0.7095,0.7095,0.7095,0.7095,0.7095,0.7095,0.7095,0.7095,0.7095,0.7095,0.7095,0.7095,0.7095,0.7095,0.7095,0.7095,0.7095,0.7709,0.889,0.889,0.9492,1.0611,1.1295,1.1858,0.6693,0.0,0.0,0.0,0.0,0.0,0.6735,0.7029,0.7564,0.9016,0.0,0.9013,0.8109,0.7859,0.7533,0.6763,0.6682,0.6753,0.6866,0.7007,0.7095,0.7095,0.7095,0.7095,0.7095,0.7095,0.7095,0.7095,0.7095,0.7095,0.7095,0.7095,0.7051,0.6962,0.6962,0.5888,0.3614,0.3614,0.2503,0.0314,0.0314,0.0314,0.0314,0.009,0.0,0.0,0.0,0.0045,0.018,0.018,0.0225,0.0449,0.1522,0.1969,0.2102,0.3304,0.4463,0.5403,0.5536,0.6248,0.7095,0.7095,0.7095,0.7095,0.7095,0.7095,0.7095,0.7095,0.7095,0.7095,0.7095,0.7095,0.7095,0.7095,0.7095,0.7095,0.7095,0.7095,0.7095,0.7095,0.7095,0.7095,0.7095,0.7095,0.7095,0.7095,0.7095,0.7095,0.7095,0.7095,0.7095,0.7095,0.7095,0.7095,0.7095,0.7095,0.7095,0.7095,0.7095,0.7095,0.7095,0.7095,0.7095,0.7095,0.7095,0.7621,0.8715,0.8715,0.9274,1.0265,1.0394,1.0994,0.0,0.6961,0.0,0.0,0.0,0.0,1.0006,1.0225,0.9704,0.9359,0.9161,0.9046,0.8978,0.8313,0.7765,0.7703,0.7123,0.6753,0.6866,0.7007,0.7095,0.7095,0.7095,0.7095,0.7095,0.7095,0.7095,0.7095,0.7095,0.7095,0.7095,0.7095,0.6694,0.5802,0.5761,0.5087,0.3614,0.3614,0.3347,0.2815,0.2815,0.2815,0.2769,0.0852,0.0,0.0,0.0,0.0539,0.1433,0.1433,0.1969,0.2858,0.3126,0.3213,0.3349,0.4552,0.5179,0.5536,0.6428,0.6915,0.7095,0.7095,0.7095,0.7095,0.7095,0.7095,0.7095,0.7095,0.7095,0.7095,0.7095,0.7095,0.7095,0.7095,0.7095,0.7095,0.7095,0.7095,0.7095,0.7095,0.7095,0.7095,0.7095,0.7095,0.7095,0.7095,0.7095,0.7095,0.7095,0.7095,0.7095,0.7095,0.7095,0.7095,0.7095,0.7095,0.7095,0.7095,0.7095,0.7095,0.7095,0.7095,0.7095,0.7095,0.7095,0.7228,0.7489,0.7489,0.7621,0.7878,0.8842,0.9405,0.0,0.0,0.0,0.0,0.0,0.0,1.0668,1.1216,1.1286,1.0837,1.0659,1.047,1.0101,0.9588,0.9128,0.8758,0.8003,0.7658,0.8374,0.7693,0.7316,0.7885,0.7445,0.7095,0.7095,0.7095,0.7095,0.7095,0.7095,0.7095,0.7095,0.7095,0.6827,0.6248,0.6204,0.5667,0.4463,0.4463,0.415,0.3614,0.3614,0.3614,0.357,0.228,0.1746,0.1746,0.1746,0.2102,0.2681,0.2681,0.3037,0.3659,0.4239,0.4463,0.4596,0.5802,0.6204,0.6293,0.6871,0.7095,0.7095,0.7095,0.7095,0.7095,0.7095,0.7095,0.7095,0.7095,0.7095,0.7095,0.7095,0.7095,0.7095,0.7095,0.7095,0.7095,0.7095,0.7095,0.7095,0.7095,0.7095,0.7095,0.7095,0.7095,0.7095,0.7095,0.7095,0.7095,0.7095,0.7095,0.7095,0.7095,0.7095,0.7095,0.7095,0.7095,0.7095,0.7095,0.7095,0.7095,0.7095,0.7095,0.7095,0.7095,0.7095,0.7095,0.7095,0.7095,0.7401,0.7973,0.8017,0.8623,0.0,0.0,0.0,0.0,0.0,0.0,1.0481,1.1243,1.2058,1.2265,1.2305,1.204,1.1199,1.0938,1.0564,0.9886,0.9014,0.8832,0.9947,0.8674,0.8015,0.9013,0.8301,0.7621,0.7448,0.7404,0.7316,0.7095,0.7095,0.7095,0.7095,0.7095,0.7095,0.7095,0.7095,0.665,0.5714,0.5672,0.5176,0.4192,0.4192,0.4192,0.4192,0.4192,0.397,0.3614,0.3614,0.3703,0.3927,0.3927,0.4016,0.4281,0.5312,0.5672,0.5802,0.6738,0.7095,0.7095,0.7095,0.7095,0.7095,0.7095,0.7095,0.7095,0.7095,0.7095,0.7095,0.7095,0.7095,0.7095,0.7095,0.7095,0.7095,0.7095,0.7095,0.7095,0.7095,0.7095,0.7095,0.7095,0.7095,0.7095,0.7095,0.7095,0.7095,0.7095,0.7095,0.7095,0.7095,0.7095,0.7095,0.7095,0.7095,0.7095,0.7095,0.7095,0.7095,0.7095,0.7095,0.7095,0.7095,0.7095,0.7095,0.7095,0.7095,0.7095,0.7095,0.7095,0.7621,0.8584,0.7577,0.8273,0.0,0.0,0.0,0.0,0.0,0.0,0.0,0.0,1.1115,0.0,1.2305,1.2261,1.2114,1.1391,1.0796,1.0783,0.9954,0.9419,0.972,0.9771,0.9864,0.9991,1.0109,0.9744,0.8759,0.8671,0.8233,0.7183,0.7095,0.7095,0.7095,0.7095,0.7095,0.7095,0.7095,0.7007,0.6874,0.6874,0.6782,0.6647,0.6647,0.6647,0.6647,0.6647,0.5531,0.3614,0.3614,0.4194,0.5179,0.5179,0.5755,0.6647,0.6827,0.6874,0.6871,0.7051,0.7095,0.7095,0.7095,0.7095,0.7095,0.7095,0.7095,0.7095,0.7095,0.7095,0.7095,0.7095,0.7095,0.7095,0.7095,0.7095,0.7095,0.7095,0.7095,0.7095,0.7095,0.7095,0.7095,0.7095,0.7095,0.7095,0.7095,0.7095,0.7095,0.7095,0.7095,0.7095,0.7095,0.7095,0.7095,0.7095,0.7095,0.7095,0.7095,0.7095,0.7095,0.7095,0.7095,0.7095,0.7095,0.7095,0.7095,0.7095,0.7095,0.7095,0.7095,0.7095,0.7183,0.7316,0.7183,0.7837,0.7074,0.0,0.0,0.0,0.0,0.0,1.0848,0.0,1.0641,1.1817,1.2191,1.2305,1.2305,1.1922,1.1658,1.1709,1.0962,1.059,1.1329,1.056,1.0177,1.0833,1.0429,0.9908,0.941,0.8926,0.8394,0.7876,0.7399,0.7095,0.7095,0.7095,0.7095,0.7095,0.7095,0.7095,0.7095,0.7095,0.7095,0.7095,0.7095,0.7095,0.7095,0.7095,0.6558,0.5575,0.5575,0.5844,0.634,0.634,0.665,0.7095,0.7095,0.7095,0.7095,0.7095,0.7095,0.7095,0.7095,0.7095,0.7095,0.7095,0.7095,0.7095,0.7095,0.7095,0.7095,0.7095,0.7095,0.7095,0.7095,0.7095,0.7095,0.7095,0.7095,0.7095,0.7095,0.7095,0.7095,0.7095,0.7095,0.7095,0.7095,0.7095,0.7095,0.7095,0.7095,0.7095,0.7095,0.7095,0.7095,0.7095,0.7095,0.7095,0.7095,0.7095,0.7095,0.7095,0.7095,0.7095,0.7095,0.7095,0.7404,0.8105,0.7445,0.7095,0.7095,0.7095,0.7445,0.8105,0.8105,0.8755,0.0,0.0,0.0,0.0,0.0,0.0,0.0,0.0,0.9913,0.0,1.1837,1.2218,1.2285,1.2305,1.2305,1.2305,1.1759,1.1624,1.2556,1.1423,1.0828,1.1708,1.1084,1.0353,0.9786,0.9151,0.8539,0.7996,0.735,0.6984,0.6984,0.7021,0.7045,0.7045,0.7078,0.7095,0.7095,0.7095,0.7095,0.7095,0.7095,0.7095,0.7095,0.7095,0.7095,0.7095,0.7095,0.7095,0.7095,0.7095,0.7095,0.7095,0.7095,0.7095,0.7095,0.7095,0.7095,0.7095,0.7095,0.7095,0.7095,0.7095,0.7095,0.7095,0.7095,0.7095,0.7095,0.7095,0.7095,0.7095,0.7095,0.7095,0.7095,0.7095,0.7095,0.7095,0.7095,0.7095,0.7095,0.7095,0.7095,0.7095,0.7095,0.7095,0.7095,0.7095,0.7095,0.7095,0.7095,0.7095,0.7095,0.7095,0.736,0.7577,0.7577,0.7837,0.7881,0.7577,0.7837,0.7881,0.7577,0.7837,0.8404,0.9323,0.8448,0.7837,0.7577,0.7577,0.8017,0.889,0.9192,0.9923,0.0,0.0,0.0,0.0,0.0,0.0,0.0,0.0,0.8432,0.9877,1.1102,1.2013,1.2251,1.2305,1.2305,1.2305,1.2274,1.2251,1.2325,1.2503,1.2651,1.2727,1.2909,1.2187,1.0105,0.9867,0.8987,0.6957,0.676,0.6722,0.6722,0.6861,0.6896,0.6896,0.7024,0.7095,0.7095,0.7095,0.7095,0.7095,0.7095,0.7095,0.7095,0.7095,0.7095,0.7095,0.7095,0.7095,0.7095,0.7095,0.7095,0.7095,0.7095,0.7095,0.7095,0.7095,0.7095,0.7095,0.7095,0.7095,0.7095,0.7095,0.7095,0.7095,0.7095,0.7095,0.7095,0.7095,0.7095,0.7095,0.7095,0.7095,0.7095,0.7095,0.7095,0.7095,0.7095,0.7095,0.7095,0.7095,0.7095,0.7095,0.7095,0.7095,0.7095,0.7095,0.7095,0.7095,0.7095,0.7095,0.7095,0.7095,0.8101,0.8803,0.8803,0.9792,0.9966,0.889,0.9836,0.9923,0.8846,0.9836,1.0438,1.0524,1.0438,0.9879,0.8803,0.8803,0.8846,0.8934,1.0009,1.1128,0.0,0.0,0.0,0.0,0.6593,0.5754,0.7506,0.7905,0.8112,0.8851,1.0374,1.1503,1.1236,1.1797,1.2305,1.2305,1.2305,1.2305,1.2305,1.2392,1.2496,1.2496,1.2559,1.2316,1.153,1.094,1.0008,0.8622,0.7696,0.7057,0.6726,0.6478,0.6445,0.6773,0.6883,0.7004,0.7095,0.7095,0.7095,0.7095,0.7095,0.7095,0.7095,0.7095,0.7095,0.7095,0.7095,0.7095,0.7095,0.7095,0.7095,0.7095,0.7095,0.7095,0.7095,0.7095,0.7095,0.7095,0.7095,0.7095,0.7095,0.7095,0.7095,0.7095,0.7095,0.7095,0.7095,0.7095,0.7095,0.7095,0.7095,0.7095,0.7095,0.7095,0.7095,0.7095,0.7095,0.7095,0.7095,0.7095,0.7095,0.7095,0.7095,0.7095,0.7095,0.7095,0.7753,0.8233,0.8233,0.8882,0.9353,0.9353,0.9749,1.0009,1.0009,1.0351,1.0438,1.0009,1.0351,1.0438,1.0009,1.0394,1.0956,1.1681,1.095,1.0394,1.0009,1.0009,1.0009,1.0009,1.1171,1.1895,0.601,0.0,0.0,0.0,0.0,0.5166,0.6534,0.7326,0.7862,0.8163,0.9853,1.1189,1.0935,1.1483,1.2071,1.2271,1.2305,1.2305,1.2305,1.2305,1.2305,1.2305,1.2305,1.215,1.1848,1.1288,1.0505,0.9509,0.8292,0.7452,0.7093,0.6507,0.6339,0.6688,0.6851,0.693,0.7024,0.7071,0.7095,0.7095,0.7095,0.7095,0.7095,0.7095,0.7095,0.7095,0.7095,0.7095,0.7095,0.7095,0.7095,0.7095,0.7095,0.7095,0.7095,0.7095,0.7095,0.7095,0.7095,0.7095,0.7095,0.7095,0.7095,0.7183,0.7577,0.7709,0.7797,0.8185,0.8269,0.8269,0.8269,0.8269,0.8269,0.8269,0.8269,0.8269,0.8269,0.7661,0.7095,0.7095,0.7448,0.7577,0.7183,0.7448,0.7709,0.7709,0.8408,0.9021,0.941,1.0139,1.0611,1.0611,1.0956,1.1166,1.1166,1.1563,1.1606,1.1214,1.1563,1.1606,1.1171,1.1563,1.212,1.2899,1.2163,1.1778,1.1778,1.1386,1.1166,1.1209,1.2376,1.2899,0.0,0.0,0.0,0.0,0.0,0.0,0.4821,0.0,0.7551,0.7806,0.9519,1.1029,1.1289,1.1362,1.1568,1.2184,1.2285,1.2291,1.2305,1.2305,1.2305,1.2305,1.2305,1.1922,1.0932,1.082,1.0415,0.941,0.8409,0.788,0.7855,0.7014,0.6616,0.673,0.6837,0.6876,0.6886,0.7021,0.7092,0.7095,0.7095,0.7095,0.7095,0.7095,0.7095,0.7095,0.7095,0.7095,0.7095,0.7095,0.7095,0.7095,0.7095,0.7095,0.7095,0.7095,0.7139,0.7139,0.7139,0.7183,0.7183,0.7183,0.7183,0.7401,0.8584,0.8934,0.9192,1.0308,1.0611,1.0611,1.0611,1.0567,1.0567,1.0611,1.0611,1.0611,1.0611,0.879,0.7183,0.7183,0.8145,0.8584,0.7401,0.8189,0.8934,0.8934,0.8978,0.9405,1.0524,1.0697,1.0697,1.0697,1.1681,1.237,1.237,1.3428,1.3603,1.2413,1.3464,1.3561,1.2413,1.347,1.4088,1.4088,1.4088,1.4088,1.4088,1.2942,1.237,1.237,1.3555,1.4088,0.5293,0.0,0.0,0.0,0.0,0.0,0.5157,0.0,0.6874,0.6941,0.8412,0.9784,1.0114,1.0681,1.1236,1.1575,1.185,1.2064,1.2271,1.2305,1.2305,1.2305,1.2305,1.2187,1.1922,1.1885,1.1471,1.0453,0.9804,0.931,0.8893,0.7983,0.7513,0.7641,0.6975,0.6705,0.6883,0.6923,0.6994,0.7095,0.7095,0.7095,0.7095,0.7095,0.7095,0.7095,0.7095,0.7095,0.7095,0.7095,0.7095,0.7095,0.7095,0.7095,0.7095,0.7095,0.7665,0.8408,0.8408,0.8925,0.9614,0.9614,0.9614,0.9701,1.0048,1.0139,1.0183,1.0524,1.0611,1.0611,1.0611,1.0009,0.9579,1.0394,1.0611,1.0611,1.0611,1.0091,0.9614,0.9614,0.9918,1.0005,0.9701,0.9918,1.0139,1.0139,1.0826,1.1466,1.1809,1.2601,1.313,1.313,1.3428,1.3603,1.3603,1.3906,1.3955,1.3603,1.3913,1.3955,1.3603,1.3913,1.4088,1.4088,1.4088,1.4088,1.4088,1.3773,1.3603,1.3603,1.3955,1.4088,0.0,0.0,0.0,0.0,0.0,0.0,0.5293,0.6253,0.7148,0.7148,0.8557,0.9733,0.9532,0.992,1.0361,1.0655,1.0842,1.1189,1.1844,1.1937,1.1984,1.2104,1.2124,1.2171,1.2291,1.2305,1.207,1.1465,1.0766,1.0063,0.9352,0.8732,0.8478,0.8549,0.8046,0.787,0.8154,0.8235,0.8361,0.8571,0.8571,0.8571,0.8571,0.8571,0.8317,0.7885,0.836,0.8273,0.7885,0.8356,0.8273,0.7797,0.7316,0.7705,0.8488,0.8013,0.858,0.9623,0.9623,1.0053,1.0611,1.0611,1.0611,1.0697,1.1166,1.1295,1.1429,1.1912,1.204,1.204,1.204,1.1569,1.1225,1.1912,1.204,1.204,1.204,1.204,1.1778,1.0783,1.0999,1.1171,1.0697,1.0994,1.1295,1.1295,1.1858,1.2498,1.2984,1.3646,1.4088,1.4088,1.4088,1.4088,1.4088,1.4088,1.4088,1.4088,1.4088,1.4088,1.4088,1.4088,1.4088,1.4088,1.4088,1.4088,1.4088,1.4088,1.4088,1.4088,1.4088,1.4088,0.0,0.0,0.0,0.0,0.5293,0.0,0.5293,0.6506,0.7639,0.7739,0.9025,0.9943,0.9191,0.9064,0.9151,0.9446,0.9492,0.9907,1.1076,1.1329,1.1455,1.1692,1.1792,1.1924,1.2178,1.2204,1.2218,1.2251,1.1446,1.0565,0.9674,0.9523,0.9485,0.9485,0.9478,0.9602,0.9857,1.0048,1.0311,1.0575,1.06,1.0611,1.0611,1.0611,1.0053,0.9148,1.0183,1.0009,0.9148,1.0178,1.0009,0.8973,0.7925,0.8746,1.0481,0.9449,0.9792,1.0778,1.0778,1.0869,1.0999,1.0999,1.0999,1.1171,1.22,1.2504,1.2723,1.3779,1.3997,1.3913,1.4088,1.3997,1.3913,1.4088,1.4088,1.4088,1.4088,1.3997,1.3343,1.1391,1.1815,1.22,1.1171,1.1815,1.2504,1.2504,1.2504,1.2899,1.3955,1.4088,1.4088,1.4088,1.4088,1.4088,1.4088,1.4088,1.4088,1.4088,1.4088,1.4088,1.4088,1.4088,1.4088,1.4088,1.4088,1.4088,1.4088,1.4088,1.4088,1.4088,1.4088,1.4088,0.0,0.0,0.0,0.0,0.0,0.0,0.5293,0.5568,0.5999,0.6707,0.7149,0.7528,0.8059,0.8159,0.8179,0.8238,0.8252,0.8738,1.0174,1.0942,1.1149,1.0534,1.1082,1.1536,1.1555,1.1562,1.1697,1.1973,1.2018,1.1922,1.1737,1.0944,1.0527,1.0527,0.9749,0.9425,0.9597,0.9817,1.0079,1.0263,1.0482,1.0611,1.0611,1.0611,1.0481,1.0265,1.0481,1.0481,1.0308,1.0524,1.0481,1.0221,1.0005,1.0221,1.0567,1.0351,1.0999,1.1986,1.1986,1.2595,1.3434,1.3434,1.3434,1.3476,1.3688,1.3737,1.3779,1.4039,1.3385,1.2851,1.3864,1.3379,1.2899,1.3864,1.4088,1.4088,1.4088,1.3336,1.2808,1.3343,1.3603,1.3688,1.3476,1.3603,1.3737,1.3737,1.3737,1.3822,1.4088,1.4088,1.4088,1.4088,1.4088,1.4088,1.4088,1.4088,1.4088,1.4088,1.4088,1.4088,1.4088,1.4088,1.4088,1.4088,1.4088,1.4088,1.4088,1.4088,1.4088,1.4088,1.4088,1.4088,0.0,0.0,0.0,0.5333,0.0,0.0,0.0,0.5635,0.6077,0.6519,0.6947,0.7261,0.7261,0.7261,0.7261,0.7261,0.7261,0.7522,0.8257,0.9471,1.0356,1.0534,1.0942,1.1269,1.1375,1.1389,1.155,1.1879,1.2004,1.2151,1.2291,1.1811,1.1545,1.1545,1.1056,1.0918,1.1132,1.1395,1.1659,1.1881,1.218,1.2345,1.2345,1.2345,1.2035,1.1466,1.2083,1.1992,1.1509,1.2083,1.2345,1.2211,1.1042,1.1305,1.226,1.1686,1.2206,1.3203,1.3203,1.3597,1.4088,1.4088,1.4088,1.4088,1.4088,1.4088,1.4088,1.4088,1.3646,1.3336,1.3955,1.3646,1.3336,1.3955,1.4088,1.4088,1.4088,1.3603,1.3379,1.3997,1.4088,1.4088,1.4088,1.4088,1.4088,1.4088,1.4088,1.4088,1.4088,1.4088,1.4088,1.4088,1.4088,1.4088,1.4088,1.4088,1.4088,1.4088,1.4088,1.4088,1.4088,1.4088,1.4088,1.4088,1.4088,1.4088,1.4088,1.4088,1.4088,1.4088,1.4088,1.4088,0.0,0.0,0.0,0.0,0.0,0.5293,0.0,0.0,0.0,0.6358,0.6914,0.7173,0.6473,0.6358,0.6358,0.6358,0.6358,0.6419,0.6586,0.7799,0.9058,1.0033,1.0294,1.0494,1.0696,1.0922,1.1263,1.1705,1.1839,1.2007,1.2204,1.2271,1.2305,1.2305,1.2305,1.2418,1.2697,1.2966,1.3267,1.3527,1.3861,1.4035,1.4088,1.4088,1.3561,1.2717,1.3688,1.3555,1.2723,1.3688,1.4088,1.3913,1.1997,1.2431,1.3997,1.3027,1.3252,1.4088,1.4088,1.4088,1.4088,1.4088,1.4088,1.4088,1.4088,1.4088,1.4088,1.4088,1.4088,1.4088,1.4088,1.4088,1.4088,1.4088,1.4088,1.4088,1.4088,1.3913,1.3822,1.4039,1.3906,1.3822,1.4046,1.4088,1.4088,1.4088,1.4088,1.4088,1.4088,1.4088,1.4088,1.4088,1.4088,1.4088,1.4088,1.4088,1.4088,1.4088,1.4088,1.4088,1.4088,1.4088,1.4088,1.4088,1.4088,1.4088,1.4088,1.4088,1.4088,1.4088,1.4088,1.4088,0.0,0.0,0.0,0.0,0.5471,0.5293,0.5293,0.0,0.5447,0.5447,0.0,0.5568,0.5461,0.0,0.0,0.5447,0.5447,0.5722,0.6499,0.676,0.6941,0.7074,0.7772,0.8265,0.8298,0.9272,1.0221,1.1029,1.1611,1.1919,1.1953,1.2164,1.2305,1.2305,1.2305,1.2318,1.2351,1.2683,1.2991,1.3267,1.3513,1.3793,1.4088,1.4088,1.4046,1.3906,1.4039,1.3997,1.3906,1.4039,1.4088,1.4088,1.3828,1.387,1.4088,1.3955,1.3997,1.4088,1.4088,1.4088,1.4088,1.4088,1.4088,1.4088,1.4088,1.4088,1.4088,1.4088,1.4088,1.4088,1.4088,1.4088,1.4088,1.4088,1.4088,1.4088,1.4088,1.3252,1.2808,1.3913,1.3245,1.2851,1.3913,1.4088,1.4088,1.4088,1.4088,1.4088,1.4088,1.4088,1.4088,1.4088,1.4088,1.4088,1.4088,1.4088,1.4088,1.4088,1.4088,1.4088,1.4088,1.4088,1.4088,1.4088,1.4088,1.4088,1.4088,1.4088,1.4088,1.4088,1.4088,1.4088,0.0,0.0,0.0,0.0,0.6506,0.6293,0.6293,0.5765,0.5293,0.5293,0.0,0.0,0.0,0.0,0.0,0.0,0.5293,0.5427,0.5796,0.5849,0.6231,0.7226,0.7679,0.8105,0.8611,0.8651,0.9105,1.0184,1.0492,1.0787,1.1122,1.1745,1.2131,1.2298,1.2305,1.2305,1.2305,1.2636,1.2945,1.3213,1.3467,1.3801,1.4088,1.4088,1.4088,1.4088,1.4088,1.4088,1.4088,1.4088,1.4088,1.4088,1.4088,1.4088,1.4088,1.4088,1.4088,1.4088,1.4088,1.4088,1.4088,1.4088,1.4088,1.4088,1.4088,1.4088,1.4088,1.4088,1.4088,1.4088,1.4088,1.4088,1.4088,1.4088,1.4088,1.4088,1.4088,1.3688,1.3512,1.3997,1.3688,1.3512,1.3997,1.4088,1.4088,1.4088,1.4088,1.4088,1.4088,1.4088,1.4088,1.4088,1.4088,1.4088,1.4088,1.4088,1.4088,1.4088,1.4088,1.4088,1.4088,1.4088,1.4088,1.4088,1.4088,1.4088,1.4088,1.4088,1.4088,1.4088,1.4088,1.4088,0.8265,0.8325,0.8152,0.7709,0.7368,0.7061,0.6713,0.6005,0.5394,0.5313,0.5293,0.0,0.0,0.0,0.5293,0.5293,0.0,0.5293,0.5293,0.5293,0.581,0.7188,0.7563,0.7926,0.8425,0.8139,0.8258,0.9138,0.9499,0.9903,1.0332,1.1337,1.2,1.2178,1.2265,1.2305,1.2305,1.2556,1.2819,1.3213,1.3387,1.368,1.4088,1.4088,1.4088,1.4088,1.4088,1.4088,1.4088,1.4088,1.4088,1.4088,1.4088,1.4088,1.4088,1.4088,1.4088,1.4088,1.4088,1.4088,1.4088,1.4088,1.4088,1.4088,1.4088,1.4088,1.4088,1.4088,1.4088,1.4088,1.4088,1.4088,1.4088,1.4088,1.4088,1.4088,1.4088,1.4088,1.4088,1.4088,1.4088,1.4088,1.4088,1.4088,1.4088,1.4088,1.4088,1.4088,1.4088,1.4088,1.4088,1.4088,1.4088,1.4088,1.4088,1.4088,1.4088,1.4088,1.4088,1.4088,1.4088,1.4088,1.4088,1.4088,1.4088,1.4088,1.4088,1.4088,1.4088,1.4088,1.4088,1.4088,0.9648,0.9419,0.8964,0.8105,0.7682,0.7176,0.6019,0.5708,0.5618,0.5353,0.5293,0.5293,0.5293,0.5293,0.0,0.0,0.0,0.0,0.0,0.5293,0.5472,0.5909,0.6709,0.7081,0.6713,0.7413,0.7919,0.7959,0.9038,0.9722,0.9742,1.1115,1.1906,1.1919,1.2151,1.2305,1.2305,1.2311,1.2619,1.3213,1.322,1.3527,1.4088,1.4088,1.4088,1.4088,1.4088,1.4088,1.4088,1.4088,1.4088,1.4088,1.4088,1.4088,1.4088,1.4088,1.4088,1.4088,1.4088,1.4088,1.4088,1.4088,1.4088,1.4088,1.4088,1.4088,1.4088,1.4088,1.4088,1.4088,1.4088,1.4088,1.4088,1.4088,1.4088,1.4088,1.4088,1.4088,1.4088,1.4088,1.4088,1.4088,1.4088,1.4088,1.4088,1.4088,1.4088,1.4088,1.4088,1.4088,1.4088,1.4088,1.4088,1.4088,1.4088,1.4088,1.4088,1.4088,1.4088,1.4088,1.4088,1.4088,1.4088,1.4088,1.4088,1.4088,1.4088,1.4088,1.4088,1.4088,1.4088,1.4088,1.0394,1.0474,1.0327,1.0033,0.9292,0.8512,0.8112,0.6813,0.5668,0.5585,0.5427,0.5293,0.5293,0.5293,0.0,0.0,0.0,0.0,0.0,0.5765,0.6145,0.6275,0.6083,0.6222,0.6928,0.6503,0.642,0.7001,0.7408,0.7722,0.7909,0.9693,1.0802,1.1028,1.185,1.2305,1.2305,1.2305,1.2605,1.3213,1.3213,1.352,1.4088,1.4088,1.4088,1.4088,1.4088,1.4088,1.4088,1.4088,1.4088,1.4088,1.4088,1.4088,1.4088,1.4088,1.4088,1.4088,1.4088,1.4088,1.4088,1.4088,1.4088,1.4088,1.4088,1.4088,1.4088,1.4088,1.4088,1.4088,1.4088,1.4088,1.4088,1.4088,1.4088,1.4088,1.4088,1.4088,1.4088,1.4088,1.4088,1.4088,1.4088,1.4088,1.4088,1.4088,1.4088,1.4088,1.4088,1.4088,1.4088,1.4088,1.4088,1.4088,1.4088,1.4088,1.4088,1.4088,1.4088,1.4088,1.4088,1.4088,1.4088,1.4088,1.4088,1.4088,1.4088,1.4088,1.4088,1.4088,1.4088,1.4088,1.1303,1.1456,1.1383,1.1069,1.0421,0.9724,0.9304,0.8039,0.6886,0.67,0.6526,0.6271,0.5842,0.5762,0.5662,0.0,0.0,0.0,0.0,0.6167,0.6555,0.6691,0.6529,0.6491,0.6712,0.6264,0.602,0.6124,0.6432,0.6673,0.684,0.8838,1.0094,1.0425,1.1536,1.2198,1.2305,1.2305,1.2552,1.3046,1.316,1.346,1.3935,1.4041,1.4088,1.4088,1.4088,1.4088,1.4088,1.4088,1.4088,1.4088,1.4088,1.4088,1.4088,1.4088,1.4088,1.4088,1.4088,1.4088,1.4088,1.4088,1.4088,1.4088,1.4088,1.4088,1.4088,1.4088,1.4088,1.4088,1.4088,1.4088,1.4088,1.4088,1.4088,1.4088,1.4088,1.4088,1.4088,1.4088,1.4088,1.4088,1.4088,1.4088,1.4088,1.4088,1.4088,1.4088,1.4088,1.4088,1.4088,1.4088,1.4088,1.4088,1.4088,1.4088,1.4088,1.4088,1.4088,1.4088,1.4088,1.4088,1.4088,1.4088,1.4088,1.4088,1.4088,1.4088,1.4088,1.4088,1.4088,1.4088]}]]